[[{"header":{"parameterUnit":"m.s-1","parameterCategory":1,"la1":30.6,"la2":28.766,"lo1":-90.7593,"lo2":-88.6598,"dy":0.0162,"dx":0.0183,"nx":116,"ny":114,"refTime":"2023-10-30T06:00:00:Z","depth":0,"parameterNumber":2,"parameterNumberName":"U-component_of_WINDS"},"data":[0.0,0.0,0.0,0.0,0.0,0.0,0.0,0.0,0.0,0.0,0.0,0.0,0.0,0.0,0.0,0.0,0.0,0.0,0.0,0.0,0.0,0.0,0.0,0.0,0.0,0.0,0.0,0.0,0.0,0.0,0.0,0.0,0.0,0.0,0.0,0.0,0.0,0.0,0.0,0.0,0.0,0.0,0.0,0.0,0.0,0.0,0.0,0.0,0.0,0.0,0.0,0.0,0.0,0.0,0.0,0.0,0.0,0.0,0.0,0.0,0.0,0.0,0.0,0.0,0.0,0.0,0.0,0.0,0.0,0.0,0.0,0.0,0.0,0.0,0.0,0.0,0.0,0.0,0.0,0.0,0.0,0.0,0.0,0.0,0.0,0.0,0.0,0.0,0.0,0.0,0.0,0.0,0.0,0.0,0.0,0.0,0.0,0.0,0.0,0.0,0.0,0.0,0.0,0.0,0.0,0.0,0.0,0.0,0.0,0.0,0.0,0.0,0.0,0.0,0.0,0.0,0.0,0.0,0.0,0.0,0.0,0.0,0.0,0.0,0.0,0.0,0.0,0.0,0.0,0.0,0.0,0.0,0.0,0.0,0.0,0.0,0.0,0.0,0.0,0.0,0.0,0.0,0.0,0.0,0.0,0.0,0.0,0.0,0.0,0.0,0.0,0.0,0.0,0.0,0.0,0.0,0.0,0.0,0.0,0.0,0.0,0.0,0.0,0.0,0.0,0.0,0.0,0.0,0.0,0.0,0.0,0.0,0.0,0.0,0.0,0.0,0.0,0.0,0.0,0.0,0.0,0.0,0.0,0.0,0.0,0.0,0.0,0.0,0.0,0.0,0.0,0.0,0.0,0.0,0.0,0.0,0.0,0.0,0.0,0.0,0.0,0.0,0.0,0.0,0.0,0.0,0.0,0.0,0.0,0.0,0.0,0.0,0.0,0.0,0.0,0.0,0.0,0.0,0.0,0.0,0.0,0.0,0.0,0.0,0.0,0.0,0.0,0.0,0.0,0.0,0.0,0.0,0.0,0.0,0.0,0.0,0.0,0.0,0.0,0.0,0.0,0.0,0.0,0.0,0.0,0.0,0.0,0.0,0.0,0.0,0.0,0.0,0.0,0.0,0.0,0.0,0.0,0.0,0.0,0.0,0.0,0.0,0.0,0.0,0.0,0.0,0.0,0.0,0.0,0.0,0.0,0.0,0.0,0.0,0.0,0.0,0.0,0.0,0.0,0.0,0.0,0.0,0.0,0.0,0.0,0.0,0.0,0.0,0.0,0.0,0.0,0.0,0.0,0.0,0.0,0.0,0.0,0.0,0.0,0.0,0.0,0.0,0.0,0.0,0.0,0.0,0.0,0.0,0.0,0.0,0.0,0.0,0.0,0.0,0.0,0.0,0.0,0.0,0.0,0.0,0.0,0.0,0.0,0.0,0.0,0.0,0.0,0.0,0.0,0.0,0.0,0.0,0.0,0.0,0.0,0.0,0.0,0.0,0.0,0.0,0.0,0.0,0.0,0.0,0.0,0.0,0.0,0.0,0.0,0.0,0.0,0.0,0.0,0.0,0.0,0.0,0.0,0.0,0.0,0.0,0.0,0.0,0.0,0.0,0.0,0.0,0.0,0.0,0.0,0.0,0.0,0.0,0.0,0.0,0.0,0.0,0.0,0.0,0.0,0.0,0.0,0.0,0.0,0.0,0.0,0.0,0.0,0.0,0.0,0.0,0.0,0.0,0.0,0.0,0.0,0.0,0.0,0.0,0.0,0.0,0.0,0.0,0.0,0.0,0.0,0.0,0.0,0.0,0.0,0.0,0.0,0.0,0.0,0.0,0.0,0.0,0.0,0.0,0.0,0.0,0.0,0.0,0.0,0.0,0.0,0.0,0.0,0.0,0.0,0.0,0.0,0.0,0.0,0.0,0.0,0.0,0.0,0.0,0.0,0.0,0.0,0.0,0.0,0.0,0.0,0.0,0.0,0.0,0.0,0.0,0.0,0.0,0.0,0.0,0.0,0.0,0.0,0.0,0.0,0.0,0.0,0.0,0.0,0.0,0.0,0.0,0.0,0.0,0.0,0.0,0.0,0.0,0.0,0.0,0.0,0.0,0.0,0.0,0.0,0.0,0.0,0.0,0.0,0.0,0.0,0.0,0.0,0.0,0.0,0.0,0.0,0.0,0.0,0.0,0.0,0.0,0.0,0.0,0.0,0.0,0.0,0.0,0.0,0.0,0.0,0.0,0.0,0.0,0.0,0.0,0.0,0.0,0.0,0.0,0.0,0.0,0.0,0.0,0.0,0.0,0.0,0.0,0.0,0.0,0.0,0.0,0.0,0.0,0.0,0.0,0.0,0.0,0.0,0.0,0.0,0.0,0.0,0.0,0.0,0.0,0.0,0.0,0.0,0.0,0.0,0.0,0.0,0.0,0.0,0.0,0.0,0.0,0.0,0.0,0.0,0.0,0.0,0.0,0.0,0.0,0.0,0.0,0.0,0.0,0.0,0.0,0.0,0.0,0.0,0.0,0.0,0.0,0.0,0.0,0.0,0.0,0.0,0.0,0.0,0.0,0.0,0.0,0.0,0.0,0.0,0.0,0.0,0.0,0.0,0.0,0.0,0.0,0.0,0.0,0.0,0.0,0.0,0.0,0.0,0.0,0.0,0.0,0.0,0.0,0.0,0.0,0.0,0.0,0.0,0.0,0.0,0.0,0.0,0.0,0.0,0.0,0.0,0.0,0.0,0.0,0.0,0.0,0.0,0.0,0.0,0.0,0.0,0.0,0.0,0.0,0.0,0.0,0.0,0.0,0.0,0.0,0.0,0.0,0.0,0.0,0.0,0.0,0.0,0.0,0.0,0.0,0.0,0.0,0.0,0.0,0.0,0.0,0.0,0.0,0.0,0.0,0.0,0.0,0.0,0.0,0.0,0.0,0.0,0.0,0.0,0.0,0.0,0.0,0.0,0.0,0.0,0.0,0.0,0.0,0.0,0.0,0.0,0.0,0.0,0.0,0.0,0.0,0.0,0.0,0.0,0.0,0.0,0.0,0.0,0.0,0.0,0.0,0.0,0.0,0.0,0.0,0.0,0.0,0.0,0.0,0.0,0.0,0.0,0.0,0.0,0.0,0.0,0.0,0.0,0.0,0.0,0.0,0.0,0.0,0.0,0.0,0.0,0.0,0.0,0.0,0.0,0.0,0.0,0.0,0.0,0.0,0.0,0.0,0.0,0.0,0.0,0.0,0.0,0.0,0.0,0.0,0.0,0.0,0.0,0.0,0.0,0.0,0.0,0.0,0.0,0.0,0.0,0.0,0.0,0.0,0.0,0.0,0.0,0.0,0.0,0.0,0.0,0.0,0.0,0.0,0.0,0.0,0.0,0.0,0.0,0.0,0.0,0.0,0.0,0.0,0.0,0.0,0.0,0.0,0.0,0.0,0.0,0.0,0.0,0.0,0.0,0.0,0.0,0.0,0.0,0.0,0.0,0.0,0.0,0.0,0.0,0.0,0.0,0.0,0.0,0.0,0.0,0.0,0.0,0.0,0.0,0.0,0.0,0.0,0.0,0.0,0.0,0.0,0.0,0.0,0.0,0.0,0.0,0.0,0.0,0.0,0.0,0.0,0.0,0.0,0.0,0.0,0.0,0.0,0.0,0.0,0.0,0.0,0.0,0.0,0.0,0.0,0.0,0.0,0.0,0.0,0.0,0.0,0.0,0.0,0.0,0.0,0.0,0.0,0.0,0.0,0.0,0.0,0.0,0.0,0.0,0.0,0.0,0.0,0.0,0.0,0.0,0.0,0.0,0.0,0.0,0.0,0.0,0.0,0.0,0.0,0.0,0.0,0.0,0.0,0.0,0.0,0.0,0.0,0.0,0.0,0.0,0.0,0.0,0.0,0.0,0.0,0.0,0.0,0.0,0.0,0.0,0.0,0.0,0.0,0.0,0.0,0.0,0.0,0.0,0.0,0.0,0.0,0.0,0.0,0.0,0.0,0.0,0.0,0.0,0.0,0.0,0.0,0.0,0.0,0.0,0.0,0.0,0.0,0.0,0.0,0.0,0.0,0.0,0.0,0.0,0.0,0.0,0.0,0.0,0.0,0.0,0.0,0.0,0.0,0.0,0.0,0.0,0.0,0.0,0.0,0.0,0.0,0.0,0.0,0.0,0.0,0.0,0.0,0.0,0.0,0.0,0.0,0.0,0.0,0.0,0.0,0.0,0.0,0.0,0.0,0.0,0.0,0.0,0.0,0.0,0.0,0.0,0.0,0.0,0.0,0.0,0.0,0.0,0.0,0.0,0.0,0.0,0.0,0.0,0.0,0.0,0.0,0.0,0.0,0.0,0.0,0.0,0.0,0.0,0.0,0.0,0.0,0.0,0.0,0.0,0.0,0.0,0.0,0.0,0.0,0.0,0.0,0.0,0.0,0.0,0.0,0.0,0.0,0.0,0.0,0.0,0.0,0.0,0.0,0.0,0.0,0.0,0.0,0.0,0.0,0.0,0.0,0.0,0.0,0.0,0.0,0.0,0.0,0.0,0.0,0.0,0.0,0.0,0.0,0.0,0.0,0.0,0.0,0.0,0.0,0.0,0.0,0.0,0.0,0.0,0.0,0.0,0.0,0.0,0.0,0.0,0.0,0.0,0.0,0.0,0.0,0.0,0.0,0.0,0.0,0.0,0.0,0.0,0.0,0.0,0.0,0.0,0.0,0.0,0.0,0.0,0.0,0.0,0.0,0.0,0.0,0.0,0.0,0.0,0.0,0.0,0.0,0.0,0.0,0.0,0.0,0.0,0.0,0.0,0.0,0.0,0.0,0.0,0.0,0.0,0.0,0.0,0.0,0.0,0.0,0.0,0.0,0.0,0.0,0.0,0.0,0.0,0.0,0.0,0.0,0.0,0.0,0.0,0.0,0.0,0.0,0.0,0.0,0.0,0.0,0.0,0.0,0.0,0.0,0.0,0.0,0.0,0.0,0.0,0.0,0.0,0.0,0.0,0.0,0.0,0.0,0.0,0.0,0.0,0.0,0.0,0.0,0.0,0.0,0.0,0.0,0.0,0.0,0.0,0.0,0.0,0.0,0.0,0.0,0.0,0.0,0.0,0.0,0.0,0.0,0.0,0.0,0.0,0.0,0.0,0.0,0.0,0.0,0.0,0.0,0.0,0.0,0.0,0.0,0.0,0.0,0.0,0.0,0.0,0.0,0.0,0.0,0.0,0.0,0.0,0.0,0.0,0.0,0.0,0.0,0.0,0.0,0.0,0.0,0.0,0.0,0.0,0.0,0.0,0.0,0.0,0.0,0.0,0.0,0.0,0.0,0.0,0.0,0.0,0.0,0.0,0.0,0.0,0.0,0.0,0.0,0.0,0.0,0.0,0.0,0.0,0.0,0.0,0.0,0.0,0.0,0.0,0.0,0.0,0.0,0.0,0.0,0.0,0.0,0.0,0.0,0.0,0.0,0.0,0.0,0.0,0.0,0.0,0.0,0.0,0.0,0.0,0.0,0.0,0.0,0.0,0.0,0.0,0.0,0.0,0.0,0.0,0.0,0.0,0.0,0.0,0.0,0.0,0.0,0.0,0.0,0.0,0.0,0.0,0.0,0.0,0.0,0.0,0.0,0.0,0.0,0.0,0.0,0.0,0.0,0.0,0.0,0.0,0.0,0.0,0.0,0.0,0.0,0.0,0.0,0.0,0.0,0.0,0.0,0.0,0.0,0.0,0.0,0.0,0.0,0.0,0.0,0.0,0.0,0.0,0.0,0.0,0.0,0.0,0.0,0.0,0.0,0.0,0.0,0.0,0.0,0.0,0.0,0.0,0.0,0.0,0.0,0.0,0.0,0.0,0.0,0.0,0.0,0.0,0.0,0.0,0.0,0.0,0.0,0.0,0.0,0.0,0.0,0.0,0.0,0.0,0.0,0.0,0.0,0.0,0.0,0.0,0.0,0.0,0.0,0.0,0.0,0.0,0.0,0.0,0.0,0.0,0.0,0.0,0.0,0.0,0.0,0.0,0.0,0.0,0.0,0.0,0.0,0.0,0.0,0.0,0.0,0.0,0.0,0.0,0.0,0.0,0.0,0.0,0.0,0.0,0.0,0.0,0.0,3.589,3.6163,0.0,0.0,0.0,0.0,0.0,0.0,0.0,0.0,0.0,0.0,0.0,0.0,0.0,0.0,0.0,0.0,0.0,0.0,0.0,0.0,0.0,0.0,0.0,0.0,0.0,0.0,0.0,0.0,0.0,0.0,0.0,0.0,0.0,0.0,0.0,0.0,0.0,0.0,0.0,0.0,0.0,0.0,0.0,0.0,0.0,0.0,0.0,0.0,0.0,0.0,0.0,0.0,0.0,0.0,0.0,0.0,0.0,0.0,0.0,0.0,0.0,0.0,0.0,0.0,0.0,0.0,0.0,0.0,0.0,0.0,0.0,0.0,0.0,0.0,0.0,0.0,0.0,0.0,0.0,0.0,0.0,0.0,0.0,0.0,0.0,0.0,0.0,0.0,0.0,0.0,0.0,0.0,0.0,0.0,0.0,0.0,0.0,0.0,0.0,0.0,0.0,0.0,0.0,0.0,0.0,0.0,0.0,0.0,0.0,0.0,0.0,0.0,0.0,0.0,3.8653,3.7664,0.0,0.0,0.0,0.0,0.0,0.0,0.0,0.0,0.0,0.0,0.0,0.0,0.0,0.0,0.0,0.0,0.0,0.0,0.0,0.0,0.0,0.0,0.0,0.0,0.0,0.0,0.0,0.0,0.0,0.0,0.0,0.0,0.0,0.0,0.0,0.0,0.0,0.0,0.0,0.0,0.0,0.0,0.0,0.0,0.0,0.0,0.0,0.0,0.0,0.0,0.0,0.0,0.0,0.0,0.0,0.0,0.0,0.0,0.0,0.0,0.0,0.0,0.0,0.0,0.0,0.0,0.0,0.0,0.0,0.0,0.0,0.0,0.0,0.0,0.0,0.0,0.0,0.0,0.0,0.0,0.0,0.0,0.0,0.0,0.0,0.0,0.0,0.0,0.0,0.0,0.0,0.0,0.0,0.0,0.0,0.0,0.0,0.0,0.0,0.0,0.0,0.0,0.0,0.0,0.0,0.0,0.0,0.0,4.3291,4.4283,4.5148,4.5721,4.5987,4.5774,4.2055,4.0037,3.9443,4.0011,0.0,0.0,0.0,0.0,0.0,0.0,0.0,0.0,0.0,0.0,0.0,0.0,0.0,0.0,0.0,0.0,0.0,0.0,0.0,0.0,0.0,0.0,0.0,0.0,0.0,0.0,0.0,0.0,0.0,0.0,0.0,0.0,0.0,0.0,0.0,0.0,0.0,0.0,3.5663,3.6693,3.6851,3.6103,3.2487,0.0,0.0,0.0,0.0,0.0,0.0,0.0,0.0,0.0,0.0,0.0,0.0,0.0,0.0,0.0,0.0,0.0,0.0,0.0,0.0,0.0,0.0,0.0,0.0,0.0,0.0,0.0,0.0,0.0,0.0,0.0,0.0,0.0,0.0,0.0,0.0,0.0,0.0,0.0,0.0,0.0,0.0,0.0,3.374,3.3939,0.0,0.0,0.0,0.0,0.0,0.0,0.0,0.0,0.0,0.0,0.0,0.0,0.0,4.3506,4.5677,4.6164,4.6283,4.6062,4.6531,4.6317,4.5538,4.6148,4.6658,4.7094,4.7001,0.0,4.3556,4.1903,0.0,0.0,0.0,0.0,0.0,0.0,0.0,0.0,0.0,0.0,0.0,0.0,0.0,0.0,0.0,0.0,0.0,0.0,0.0,0.0,0.0,0.0,0.0,0.0,0.0,0.0,0.0,0.0,0.0,0.0,0.0,0.0,0.0,0.0,0.0,0.0,3.6245,3.8492,3.9706,4.0146,4.059,4.0926,3.8348,3.672,3.5853,3.399,0.0,0.0,0.0,0.0,0.0,0.0,0.0,0.0,0.0,0.0,0.0,0.0,0.0,0.0,0.0,0.0,0.0,0.0,0.0,0.0,0.0,0.0,0.0,0.0,0.0,0.0,0.0,0.0,0.0,0.0,0.0,0.0,0.0,0.0,0.0,0.0,0.0,0.0,0.0,3.691,3.8403,3.8405,3.9791,4.0095,0.0,0.0,0.0,0.0,0.0,0.0,0.0,0.0,0.0,4.4061,4.5176,4.623,4.7209,4.8063,4.8998,5.0009,5.0803,5.1084,5.0953,5.1518,5.1753,5.1685,5.1596,5.0387,4.8273,4.5573,4.3709,4.2482,0.0,0.0,0.0,0.0,4.2221,4.2435,0.0,0.0,0.0,0.0,0.0,0.0,0.0,0.0,0.0,0.0,0.0,0.0,0.0,0.0,0.0,3.3376,0.0,0.0,0.0,0.0,0.0,0.0,0.0,0.0,0.0,0.0,0.0,3.7193,4.0953,4.2998,4.3416,4.3797,4.4341,4.5001,4.4163,4.1975,3.8792,3.7049,3.5471,0.0,0.0,0.0,0.0,0.0,0.0,0.0,0.0,0.0,0.0,0.0,0.0,0.0,0.0,0.0,0.0,0.0,0.0,0.0,0.0,0.0,0.0,0.0,0.0,0.0,0.0,0.0,0.0,0.0,0.0,0.0,0.0,0.0,0.0,0.0,0.0,0.0,0.0,3.9927,4.1552,4.1523,4.2927,4.3057,0.0,0.0,0.0,0.0,0.0,0.0,4.4281,4.5769,4.6805,4.7351,4.853,4.9354,4.9725,5.076,5.2292,5.4279,5.5141,5.583,5.6415,5.6693,5.6588,5.6144,5.5429,5.4262,5.2659,4.9079,4.6567,4.4937,4.4356,4.4203,4.4429,4.4955,4.5419,4.579,0.0,0.0,0.0,0.0,0.0,0.0,0.0,0.0,0.0,0.0,0.0,0.0,0.0,0.0,3.5967,3.8925,3.8228,3.7726,0.0,0.0,0.0,0.0,0.0,0.0,0.0,0.0,0.0,4.1576,4.3852,4.5522,4.6712,4.8487,4.887,4.8104,4.8549,4.7074,4.4058,4.0383,3.8514,3.7732,0.0,0.0,0.0,0.0,0.0,0.0,0.0,0.0,0.0,0.0,0.0,0.0,0.0,0.0,0.0,0.0,0.0,0.0,0.0,0.0,0.0,0.0,0.0,0.0,0.0,0.0,0.0,0.0,0.0,0.0,0.0,0.0,0.0,0.0,0.0,0.0,0.0,0.0,0.0,4.0569,4.2711,0.0,0.0,0.0,0.0,4.4915,4.6067,4.7446,4.9152,4.9871,5.058,5.1296,5.2465,5.4161,5.6284,5.6945,5.7852,5.9055,5.9107,5.9429,5.9916,5.9455,5.9212,5.9133,5.8009,5.7155,5.6196,5.1611,4.9575,4.9184,4.8077,4.8916,5.0534,4.9011,4.8569,4.8561,0.0,0.0,0.0,0.0,0.0,0.0,0.0,0.0,0.0,0.0,0.0,0.0,0.0,3.6148,3.9428,4.1126,4.1824,4.171,4.0568,0.0,0.0,0.0,0.0,0.0,0.0,0.0,4.0023,4.3517,4.6083,4.8452,5.0554,5.04,5.0722,5.1363,5.0729,4.9587,4.7924,4.3915,4.1305,3.9529,3.5983,3.3679,0.0,0.0,0.0,0.0,0.0,0.0,0.0,0.0,0.0,0.0,0.0,0.0,0.0,0.0,0.0,0.0,0.0,0.0,0.0,0.0,0.0,0.0,0.0,0.0,0.0,0.0,0.0,0.0,0.0,0.0,0.0,0.0,0.0,0.0,0.0,0.0,0.0,4.6402,4.8246,0.0,4.7299,4.678,4.7019,4.8215,4.8654,4.9812,5.1941,5.365,5.5016,5.6004,5.719,5.8348,5.955,5.9777,6.0292,6.105,6.105,6.1155,6.1364,6.1155,6.0658,5.9882,5.949,5.8784,5.7721,5.5743,5.3339,5.0744,4.9256,4.8921,4.9236,4.9033,4.9219,4.9547,0.0,0.0,0.0,0.0,0.0,0.0,0.0,0.0,0.0,0.0,0.0,3.2259,3.4608,3.9383,4.3074,4.4672,4.5114,4.465,4.313,0.0,0.0,0.0,3.4955,0.0,0.0,3.9866,4.2835,4.611,4.8702,5.0769,5.2335,5.1721,5.205,5.3105,5.2251,5.169,5.1204,4.7923,4.4749,4.1685,3.8642,3.6891,3.5747,0.0,0.0,0.0,0.0,0.0,0.0,0.0,0.0,0.0,0.0,0.0,0.0,0.0,0.0,0.0,0.0,0.0,0.0,0.0,0.0,0.0,0.0,0.0,0.0,0.0,0.0,0.0,0.0,0.0,0.0,0.0,0.0,0.0,0.0,4.5254,4.8237,5.0904,5.2536,5.3134,5.2352,5.1228,5.1003,5.2153,5.2575,5.3739,5.5883,5.7434,5.8766,5.9916,6.0674,6.1379,6.1973,6.1973,6.226,6.2835,6.2835,6.2959,6.3161,6.3085,6.2644,6.1864,6.1619,6.0982,6.0035,5.9289,5.727,5.4408,5.2161,5.1049,5.0723,5.1071,5.1433,5.1786,0.0,0.0,0.0,0.0,0.0,0.0,0.0,0.0,0.0,0.0,2.9615,3.363,3.8222,4.2899,4.6851,4.9688,4.7847,4.6278,4.5689,4.0158,0.0,0.0,0.0,0.0,4.058,4.3589,4.6552,4.952,5.1605,5.2376,5.1887,5.2625,5.3055,5.3282,5.3282,5.358,5.3935,5.2302,4.8926,4.4517,4.2502,4.1235,4.0257,0.0,0.0,0.0,0.0,0.0,0.0,0.0,0.0,0.0,0.0,0.0,0.0,0.0,0.0,0.0,0.0,0.0,0.0,0.0,0.0,0.0,0.0,0.0,0.0,0.0,0.0,0.0,0.0,0.0,0.0,0.0,0.0,0.0,4.3942,4.8569,5.2296,5.3441,5.5059,5.5643,5.4521,5.4409,5.5125,5.685,5.7982,5.9393,6.1118,6.1222,6.1745,6.2869,6.2895,6.3156,6.377,6.377,6.4031,6.4541,6.4541,6.4868,6.5476,6.5292,6.5268,6.5208,6.4463,6.3807,6.3175,6.2038,6.1229,6.0367,5.7013,5.5726,5.568,5.5501,5.5434,5.5408,0.0,0.0,0.0,0.0,0.0,0.0,0.0,0.0,0.0,0.0,3.167,3.6726,3.9095,4.4621,4.893,5.0958,4.8654,4.6981,4.678,0.0,0.0,0.0,0.0,0.0,4.2154,4.5497,4.8035,4.9655,5.2025,5.3247,5.3403,5.4003,5.4466,5.482,5.5203,5.5228,5.4996,5.452,5.3113,5.0699,4.5747,4.3054,4.1656,0.0,0.0,0.0,0.0,0.0,0.0,0.0,0.0,0.0,0.0,0.0,0.0,0.0,0.0,0.0,0.0,0.0,0.0,0.0,0.0,0.0,0.0,0.0,0.0,0.0,0.0,0.0,0.0,0.0,0.0,0.0,4.4545,4.675,4.8126,5.1325,5.4594,5.7423,5.8894,5.9563,5.9228,5.9198,5.9576,6.0501,6.1241,6.2189,6.3496,6.3555,6.4097,6.5292,6.49,6.4953,6.5574,6.5155,6.5162,6.5595,6.5595,6.6061,6.6906,6.6466,6.6279,6.6245,6.5616,6.4995,6.4382,6.3673,6.3025,6.2215,5.9605,5.832,5.7957,5.836,5.8207,5.779,0.0,0.0,0.0,0.0,0.0,0.0,0.0,0.0,0.0,0.0,3.3052,3.8488,4.0753,4.6055,4.9833,5.08,4.8885,4.698,4.5455,0.0,0.0,0.0,0.0,4.3615,4.5252,4.8093,5.0389,5.2104,5.3534,5.4475,5.4923,5.5247,5.5631,5.6093,5.6401,5.6502,5.642,5.6194,5.5673,5.4719,5.0728,4.8086,4.6167,4.2958,4.1955,4.2001,3.9936,4.011,4.1088,3.9391,0.0,0.0,0.0,0.0,0.0,0.0,0.0,0.0,0.0,0.0,0.0,0.0,0.0,0.0,0.0,0.0,0.0,0.0,0.0,0.0,0.0,0.0,0.0,0.0,4.8541,5.1451,5.426,5.5835,5.7739,6.0501,6.2051,6.2914,6.2914,6.3123,6.341,6.377,6.4299,6.4979,6.5838,6.5712,6.6059,6.7162,6.6686,6.664,6.7162,6.6819,6.678,6.6999,6.6999,6.7323,6.7873,6.749,6.7321,6.7306,6.6872,6.6339,6.5756,6.5426,6.4961,6.4172,0.0,0.0,0.0,0.0,5.9937,5.9561,0.0,0.0,0.0,0.0,0.0,0.0,0.0,0.0,0.0,0.0,0.0,3.915,4.2367,4.6839,4.9679,4.9899,4.863,4.6398,0.0,0.0,4.0548,4.1688,4.3887,4.6356,4.9084,5.1115,5.3283,5.5612,5.5717,5.6043,5.6552,5.6552,5.6853,5.7361,5.7361,5.7631,5.8052,5.7581,5.7261,5.7029,5.6068,5.4285,5.1783,4.8021,4.74,4.8145,4.5608,4.4199,4.3312,4.163,0.0,0.0,0.0,0.0,0.0,0.0,0.0,0.0,0.0,0.0,0.0,0.0,0.0,0.0,0.0,0.0,0.0,0.0,0.0,0.0,0.0,0.0,0.0,0.0,5.2836,5.6379,6.0935,6.1118,6.1379,6.2999,6.4652,6.5659,6.56,6.615,6.6505,6.6464,6.695,6.7467,6.795,6.7493,0.0,0.0,0.0,6.8151,6.8513,6.8486,6.8479,6.8486,6.8486,6.8533,6.8646,6.8434,6.8369,6.8361,6.809,6.7648,6.7105,6.7105,6.6733,6.5936,6.3298,6.2023,6.1628,6.1167,6.1071,6.1098,0.0,0.0,0.0,0.0,0.0,0.0,0.0,0.0,0.0,2.8064,3.4011,3.8842,4.0713,4.5034,4.8396,4.9834,4.7544,4.5169,0.0,4.1673,4.2305,4.5551,4.7232,4.9279,5.1858,5.4306,5.5998,5.6925,5.7694,5.8347,5.8855,5.8855,5.9156,5.9664,5.9664,5.9489,5.9207,5.9514,5.8911,5.77,5.7499,5.5523,5.2604,5.1383,4.9883,4.8287,4.7362,4.7647,4.8229,4.6749,4.6033,4.5467,4.3787,0.0,0.0,0.0,0.0,0.0,0.0,0.0,0.0,0.0,0.0,0.0,0.0,0.0,0.0,0.0,0.0,0.0,0.0,0.0,0.0,5.4013,5.678,5.9822,6.4005,6.4475,6.4691,6.5528,6.6652,6.7186,6.6808,6.7506,6.7866,6.7525,6.7912,6.8419,6.8984,6.8452,6.8651,6.9839,6.9305,6.9038,6.9126,6.9126,6.9067,6.8944,6.8944,0.0,7.0149,6.9633,6.9402,6.9375,6.8849,6.8291,6.7729,6.7729,6.7376,6.6625,6.4626,6.4372,6.4887,6.29,6.28,6.3469,0.0,0.0,0.0,0.0,0.0,0.0,0.0,0.0,0.0,0.0,3.3666,3.7762,3.9502,4.2845,4.4833,4.4572,4.2774,0.0,4.2602,4.321,4.5053,4.8405,5.0701,5.2876,5.4941,5.6726,5.7993,5.8793,5.9261,5.9784,6.0356,6.0356,6.0487,6.0738,6.0738,6.0437,5.9935,6.0512,5.996,5.873,5.9006,5.7782,5.5641,5.4274,5.319,5.2329,5.1438,5.1242,5.1197,4.9931,4.8735,4.7645,4.6673,4.3661,4.0615,0.0,0.0,0.0,0.0,0.0,0.0,0.0,0.0,0.0,0.0,0.0,0.0,0.0,0.0,4.5313,4.8298,0.0,5.4237,5.8286,6.0622,6.3061,6.616,6.7165,6.7564,6.7438,6.8149,6.8397,6.7823,6.9208,6.969,6.8636,6.8863,6.9251,6.9748,6.8623,6.8557,6.986,6.941,6.9459,7.0144,6.9983,6.9954,7.0058,7.0064,7.0165,7.0341,6.9899,6.969,6.9636,6.8733,6.8182,6.7892,6.7892,6.7729,6.7322,6.6109,6.5838,6.5919,6.44,6.4229,6.4581,0.0,0.0,0.0,0.0,0.0,0.0,0.0,0.0,0.0,0.0,3.2988,3.6294,3.7982,4.0283,4.0891,0.0,0.0,3.959,4.2563,4.5008,4.7836,5.1154,5.4024,5.6315,5.8015,5.8802,5.9714,6.0794,6.0668,6.0939,6.1492,6.1391,6.1411,6.1512,6.1411,6.109,6.0668,6.1266,6.0858,5.9859,6.0311,5.989,5.8786,5.6796,5.6197,5.6305,5.5263,5.3796,5.2266,5.1571,4.9759,4.7817,4.7979,4.6121,4.4026,4.4762,4.2657,0.0,0.0,0.0,0.0,0.0,0.0,0.0,0.0,4.2531,4.4112,4.5367,4.7205,4.9715,5.3447,5.575,5.8241,6.179,6.4031,6.5974,6.7779,6.9243,6.9891,6.9244,6.9505,6.9399,6.8611,7.041,7.0971,6.9356,6.9621,6.9962,7.0141,6.8838,6.861,6.9751,6.9563,6.9924,7.0886,7.0625,7.0625,7.0907,7.0673,7.0382,6.9983,6.9656,6.9385,6.9135,6.8098,6.7792,6.8055,6.7946,6.7892,6.7838,6.7376,6.6869,6.6354,6.5504,6.5341,6.5368,0.0,0.0,0.0,0.0,0.0,0.0,0.0,0.0,0.0,0.0,0.0,0.0,0.0,0.0,0.0,0.0,3.9162,4.156,4.4572,4.6565,4.9768,5.4613,5.6707,5.8677,6.0704,6.0864,6.1441,6.2526,6.2024,6.2074,6.2601,6.2124,6.2149,6.2601,6.2119,6.1868,6.1843,6.2375,6.1994,6.1009,6.1085,6.0713,5.9991,5.8786,5.7461,5.6236,5.627,5.3606,5.0203,5.1231,4.9733,4.7449,4.7414,4.7724,4.7884,4.6639,4.5283,4.4288,4.4801,4.3116,4.123,4.1514,4.1952,4.2787,0.0,4.6665,4.853,4.9826,5.1845,5.4199,5.6723,5.9023,6.1211,6.3331,6.6249,6.8394,6.8871,7.0248,7.1192,7.1178,7.0775,7.0105,6.9115,7.0005,7.0216,6.913,6.9884,7.0211,6.9705,6.9996,7.024,7.0377,7.0874,7.0943,7.0548,7.0536,7.0536,7.0548,6.9543,6.926,6.9632,6.9129,6.8351,6.7388,6.6918,6.7494,6.8671,6.8128,6.7892,6.7892,6.7838,6.7756,6.7485,6.5802,6.5884,6.6562,0.0,0.0,0.0,0.0,0.0,0.0,0.0,0.0,0.0,0.0,0.0,0.0,0.0,0.0,0.0,3.3532,3.6657,4.0189,4.3883,4.7698,5.1443,5.5067,5.8238,5.9453,5.8488,6.0866,6.1302,5.9589,6.1524,6.2041,6.125,6.2082,6.2576,6.2802,6.2576,6.2275,6.2044,6.2576,6.2174,6.121,6.121,6.0638,5.9684,5.8259,5.6678,5.5256,5.5237,5.3362,0.0,0.0,5.0079,4.9124,4.9478,4.8661,4.7685,4.8144,4.6758,4.497,4.4768,4.4549,4.4343,4.4081,4.5954,4.8161,4.9347,5.1668,5.3697,5.4183,5.6362,5.8836,6.0815,6.3273,6.5293,6.6194,6.8565,7.0102,6.9592,7.0461,7.0674,6.9321,6.9053,6.9078,6.9372,7.0393,7.0434,6.8992,6.9691,7.007,6.9795,6.8955,6.9057,7.0337,6.967,6.9754,7.0664,7.0142,6.9984,7.0195,6.9709,6.9403,6.9296,6.8919,6.7943,6.6573,6.6416,6.653,6.6719,6.5391,6.4818,6.4719,6.3622,6.3194,6.3429,6.5502,6.5574,6.4479,0.0,0.0,0.0,0.0,0.0,0.0,0.0,0.0,0.0,0.0,0.0,0.0,0.0,0.0,3.0475,3.1018,3.4442,3.8211,4.2043,4.7577,5.1951,5.4731,5.8305,5.9577,5.826,6.0237,6.0473,5.8828,6.0997,6.1622,6.0872,6.2183,6.2802,6.2802,6.2802,6.2576,6.225,6.2626,6.235,6.1592,6.114,6.0362,5.9276,5.7315,5.5378,5.3698,5.3425,5.1784,0.0,0.0,4.8637,4.8435,4.9251,4.864,4.786,4.9078,4.8067,4.6398,4.5593,4.6467,4.759,4.7518,5.0093,5.2891,5.3913,5.6325,5.8369,5.8547,6.035,6.2409,6.4025,6.5686,6.7066,6.7836,6.9656,7.0616,6.9598,7.0231,6.9857,6.74,6.6847,6.7005,6.7889,6.9304,6.9847,6.9028,6.9377,6.9646,6.9755,6.8423,6.8469,7.025,6.8821,6.8881,7.064,6.9537,6.9237,6.9821,6.9471,6.9169,6.8911,6.7737,6.6568,6.5508,6.4684,6.4215,6.3995,6.2463,6.1832,6.1688,6.0314,5.9814,6.0224,6.3719,6.3788,6.1968,0.0,0.0,0.0,0.0,0.0,0.0,0.0,0.0,0.0,0.0,0.0,0.0,0.0,0.0,3.0135,3.138,3.3675,3.6336,3.9334,4.5578,5.0672,5.4072,5.6461,5.9236,6.2522,5.923,5.9167,6.2638,6.0976,6.1038,6.272,6.2761,6.2802,6.2802,6.2802,6.2802,6.2777,6.2802,6.2802,6.2626,6.0995,6.001,5.9189,5.6493,5.3835,5.154,5.0998,0.0,0.0,4.5049,4.4346,4.3538,4.4801,4.7393,4.9875,4.9219,4.9513,4.9793,4.8691,4.9364,5.0682,5.1961,5.3655,5.5567,5.78,6.0164,6.2064,6.2861,6.355,6.4397,6.5603,6.5058,6.5108,6.7275,6.8934,6.9634,6.8767,6.9488,6.9141,6.6463,6.4777,6.3822,6.3884,6.5867,6.7756,6.927,6.8921,6.8871,6.9401,6.9378,6.9629,7.03,6.9175,6.9147,7.0298,6.867,6.8371,6.9401,6.8343,6.8139,6.8503,6.4969,6.3611,6.3795,6.0818,6.0039,6.0788,6.0156,5.9876,5.9876,5.9834,5.9814,5.9834,5.9956,5.9977,5.9749,0.0,0.0,0.0,0.0,0.0,0.0,0.0,0.0,0.0,0.0,0.0,0.0,0.0,0.0,0.0,0.0,3.2233,3.5226,3.8719,4.344,4.7629,5.1078,5.37,5.5131,5.5247,5.6299,5.6846,5.6891,5.9043,6.0413,6.1018,6.2224,6.2802,6.2802,6.2802,6.2802,6.2777,6.2425,6.2275,6.2049,5.9684,5.8618,5.8155,5.4799,5.1567,4.8603,0.0,0.0,0.0,4.2799,4.1954,4.1324,4.3775,4.4432,4.4578,4.5801,4.788,4.9866,5.0246,5.1947,5.4081,5.601,5.7885,5.9786,6.171,6.2918,6.3559,6.3493,6.3849,6.4191,6.4233,6.5053,6.6015,6.6873,6.8669,6.9652,6.8731,6.9192,6.7822,6.2914,6.3451,6.3357,6.112,6.3273,6.5484,6.7094,6.7722,6.845,6.9356,6.9055,6.9325,7.0275,6.9529,6.9306,6.9705,6.9549,6.8616,6.6925,6.5235,6.4307,6.4025,6.2537,6.137,6.0438,5.9083,5.8463,5.8329,5.6921,5.6357,5.6248,5.4983,5.4477,5.4477,5.4477,5.4477,5.4654,0.0,0.0,0.0,0.0,0.0,0.0,0.0,0.0,0.0,0.0,0.0,0.0,0.0,0.0,0.0,0.0,0.0,3.3614,3.6205,4.0482,4.415,4.6914,4.8991,5.0374,5.0976,5.1502,5.232,5.3394,5.5605,5.727,5.8454,5.9805,6.0543,6.0744,6.0944,6.1145,6.1316,6.102,6.0638,6.0007,5.7247,5.5733,5.4688,5.1111,4.7841,0.0,0.0,0.0,3.9741,4.0104,3.9936,3.9944,4.2113,4.2991,4.3494,4.5126,4.7947,5.0809,5.1974,5.439,5.7032,5.8937,6.0776,6.2569,6.4083,6.441,6.4145,6.3248,6.311,6.2897,6.2141,6.2619,6.3754,6.5669,6.6718,6.7571,6.8346,6.753,6.5263,6.1081,6.0986,6.0458,5.8364,5.9891,6.2323,6.5421,6.6132,6.6998,6.8284,6.8012,6.8234,6.9148,6.8432,6.7968,6.7769,6.7781,6.6835,6.4894,6.3409,6.2384,6.1763,6.0658,5.9475,5.821,5.6732,5.591,5.549,5.4143,5.3611,5.3477,5.2288,5.1791,5.1791,5.1791,5.1791,5.1998,0.0,0.0,0.0,0.0,0.0,0.0,0.0,0.0,0.0,0.0,0.0,0.0,0.0,0.0,0.0,0.0,0.0,0.0,3.2144,3.6822,4.0282,4.1898,4.2741,4.5251,4.9749,4.5379,4.6059,5.2169,5.0937,5.1994,5.5178,5.5688,5.6198,5.6707,5.7297,5.7825,5.8341,5.8414,5.7779,5.6476,5.3762,5.1466,4.9296,4.5926,0.0,0.0,0.0,0.0,3.5939,3.7253,3.8431,3.9461,3.9953,4.2962,4.644,4.7052,4.9659,5.2649,5.3946,5.6704,5.957,6.088,6.2383,6.3811,6.4922,6.4675,6.3773,6.2253,6.1384,6.054,5.9429,5.8006,5.8628,6.3677,6.3317,6.3724,6.752,6.4708,6.1864,6.084,5.7793,5.5772,5.5725,5.6136,5.8677,6.4139,6.4035,6.4489,6.6282,6.6308,6.6477,6.6981,6.607,6.5329,6.4818,6.3703,6.3222,6.3338,6.2683,6.2057,6.1437,5.9145,5.7771,5.704,5.3885,5.2516,5.2454,5.2019,5.1812,5.1791,5.1791,5.1791,5.1791,5.1791,5.1791,5.1791,0.0,0.0,0.0,0.0,0.0,0.0,0.0,0.0,0.0,0.0,0.0,0.0,0.0,0.0,0.0,0.0,0.0,0.0,3.1949,3.3889,3.6167,3.8869,3.9675,4.1141,4.3461,4.3002,4.4384,4.7742,4.812,4.9652,5.2208,5.2345,5.2473,5.2611,5.2781,5.2893,5.3012,5.2586,5.1965,5.1089,0.0,4.7947,4.751,0.0,0.0,0.0,0.0,3.8798,3.6708,3.8426,4.0239,4.1535,4.0494,4.2492,4.5551,4.7221,5.0383,5.3856,5.6276,5.8991,6.1598,6.3601,6.3941,6.398,6.4616,6.3158,6.1297,6.0099,5.831,5.6634,5.561,5.6284,5.7973,6.0933,6.1933,6.3221,6.5761,6.4346,6.1856,5.8683,5.9023,5.8547,5.6087,5.7128,5.8455,5.9666,6.0685,6.2224,6.45,6.4291,6.4152,6.4221,6.4779,6.4609,6.3642,6.1935,6.1259,6.1614,5.8937,5.7557,5.736,5.6073,5.5202,5.4648,5.3514,5.2806,5.2495,5.2371,5.2122,5.1791,5.1791,5.1791,5.1791,5.1791,5.1791,5.1791,0.0,0.0,0.0,0.0,0.0,0.0,0.0,0.0,0.0,0.0,0.0,0.0,0.0,0.0,0.0,0.0,0.0,0.0,0.0,3.2165,3.3713,3.5795,3.6072,3.6885,3.8459,3.8497,3.9719,4.2146,0.0,0.0,4.6268,4.6513,4.6757,4.6976,4.722,4.7608,4.8066,4.7513,0.0,0.0,0.0,0.0,0.0,0.0,0.0,0.0,0.0,3.931,3.9037,4.0658,4.2315,4.3697,4.3854,4.6361,4.9541,5.1317,5.421,5.7186,5.8912,6.152,6.3786,6.4007,6.4176,6.3966,6.2654,6.1021,5.9073,5.6583,5.5082,5.3809,5.2421,5.3572,5.5644,5.8338,5.9621,6.1296,6.4208,6.2827,6.0794,5.8905,5.8682,5.7895,5.5801,5.6656,5.7298,5.7078,5.8439,6.0096,6.1985,6.2007,6.1961,6.1912,6.2546,6.2253,6.0942,5.9817,5.9292,5.9389,5.7036,5.5997,5.6163,5.5017,5.4583,5.4645,5.3633,5.3056,5.2785,5.2578,5.2226,5.1791,5.1791,5.1791,5.1791,5.1791,5.1791,5.1791,0.0,0.0,0.0,0.0,0.0,0.0,0.0,0.0,0.0,0.0,0.0,0.0,0.0,0.0,0.0,0.0,0.0,0.0,0.0,0.0,0.0,3.292,3.2741,3.3228,3.456,3.3748,3.4421,3.6717,3.7258,3.8204,0.0,0.0,0.0,0.0,0.0,0.0,0.0,0.0,0.0,0.0,0.0,0.0,0.0,0.0,0.0,0.0,3.7853,3.9412,4.1644,4.3536,4.4864,4.6131,4.8543,5.1961,5.538,5.7032,5.9199,6.1126,6.1563,6.3861,6.561,6.3351,6.3604,6.3497,6.0237,5.8668,5.6808,5.2884,5.2013,5.1427,4.9812,5.0806,5.2891,5.6035,5.7075,5.8831,6.2688,6.0734,5.9247,6.0076,5.7852,5.6101,5.5707,5.5976,5.6204,5.6266,5.7317,5.8389,5.9309,5.9764,5.9981,5.9981,5.9981,5.9383,5.8097,5.7954,5.7751,5.7455,5.6404,5.6101,5.6453,5.51,5.4934,5.5624,5.4048,5.3326,5.3181,5.2806,5.2329,5.1812,5.1874,5.1853,5.1791,5.1791,5.1791,5.1791,0.0,0.0,0.0,0.0,0.0,0.0,0.0,0.0,0.0,0.0,2.8779,2.8031,0.0,0.0,0.0,0.0,0.0,0.0,0.0,0.0,0.0,0.0,3.1809,3.2246,3.2349,3.3026,3.3806,3.4697,3.525,3.5831,0.0,0.0,0.0,0.0,0.0,0.0,0.0,0.0,0.0,0.0,0.0,0.0,0.0,0.0,0.0,0.0,3.9443,4.0038,4.1292,4.6386,4.8708,4.9814,5.1778,5.4245,5.6956,5.994,6.1512,6.2471,6.3371,6.4678,6.5476,6.4162,6.2934,6.161,5.9815,5.6742,5.375,5.1857,4.9849,4.8372,4.8124,4.9979,5.24,5.4891,5.595,5.7595,6.0828,5.9137,5.8034,5.9309,5.8686,5.8105,5.8022,5.7732,5.7711,5.8105,5.7993,5.7985,5.8177,5.826,5.8302,5.8302,5.8302,5.8364,5.848,5.8089,5.7861,5.7796,5.6498,5.5935,5.5976,5.4955,5.4603,5.4727,5.4417,5.3882,5.3222,5.3465,5.2865,5.1833,5.2226,5.2143,5.1791,5.1791,5.1791,5.1791,0.0,0.0,0.0,0.0,0.0,0.0,0.0,2.9033,3.0322,3.3472,3.3013,3.1987,3.0893,3.014,0.0,0.0,0.0,0.0,0.0,0.0,0.0,0.0,0.0,0.0,3.2118,3.2557,3.2898,3.3163,0.0,3.3671,3.3874,3.3874,3.3874,3.3874,3.396,3.4171,3.4426,3.4326,0.0,3.4696,3.5536,3.6286,0.0,0.0,0.0,0.0,0.0,4.1271,4.2395,4.6902,4.994,5.2377,5.5605,5.853,6.1103,6.301,6.3878,6.4428,6.5486,6.6544,6.6903,6.4963,6.3574,6.1777,5.8229,5.4971,5.1962,4.924,4.7519,4.6514,4.6498,4.8725,5.1084,5.2624,5.3277,5.4827,5.8348,5.6865,5.6403,5.8995,5.9098,5.8974,5.8974,5.8767,5.8622,5.8601,5.8622,5.8436,5.7914,5.7666,5.7541,5.7541,5.7769,5.7893,5.7872,5.7872,5.7769,5.7521,5.6407,5.6142,5.6531,5.5393,5.5145,5.5559,5.5082,5.4503,5.3858,5.3814,5.33,5.2539,5.2495,5.235,5.2122,5.1895,5.1791,5.1791,0.0,0.0,0.0,0.0,0.0,0.0,0.0,3.13,3.2757,3.7226,3.7479,3.6433,3.4378,3.2599,3.1277,0.0,0.0,0.0,0.0,0.0,0.0,0.0,0.0,0.0,3.2471,0.0,0.0,3.23,3.23,0.0,0.0,0.0,0.0,0.0,3.2516,3.2898,3.333,3.3155,3.3568,0.0,0.0,3.5831,3.7053,0.0,0.0,0.0,0.0,4.2018,4.3253,4.6689,5.0016,5.345,5.7632,6.1371,6.4344,6.5214,6.5815,6.6378,6.7094,6.8154,6.8393,6.5644,6.4016,6.1741,5.6569,5.322,5.0213,4.6797,4.5668,4.5357,4.5553,4.7582,4.9557,5.071,5.1201,5.267,5.6151,5.5435,5.5705,5.8798,5.9409,5.9554,5.945,5.9533,5.9409,5.8933,5.9057,5.8788,5.7934,5.7541,5.7293,5.721,5.7562,5.7562,5.721,5.7562,5.7562,5.719,5.6432,5.6411,5.7024,5.5869,5.5707,5.6246,5.5521,5.4875,5.4311,5.4062,5.3589,5.3036,5.2743,5.2539,5.2309,5.1936,5.1791,5.1791,0.0,0.0,0.0,0.0,0.0,0.0,0.0,3.252,3.5098,4.0391,3.9643,3.8413,3.7973,3.5249,3.2492,0.0,0.0,0.0,0.0,0.0,0.0,0.0,0.0,0.0,0.0,0.0,0.0,3.265,3.265,0.0,0.0,0.0,0.0,0.0,0.0,3.3444,3.3507,3.4155,0.0,0.0,0.0,0.0,0.0,0.0,0.0,0.0,0.0,4.1236,4.2462,4.6604,4.9568,5.2111,5.5193,5.9558,6.3798,6.5247,6.6712,6.7807,6.7397,6.8439,6.8963,6.6218,6.3102,5.9678,5.571,5.1359,4.7653,4.5795,4.4963,4.4918,4.6022,4.6974,4.8309,5.0464,5.1632,5.303,5.5156,5.6379,5.7478,5.8536,5.9781,6.0408,5.9968,6.0325,6.0387,5.9906,5.9119,5.8457,5.7914,5.7852,5.7645,5.721,5.7252,5.7252,5.721,5.7252,5.7252,5.719,5.6763,5.6577,5.6639,5.608,5.5645,5.5334,5.5251,5.4689,5.3897,5.4269,5.3693,5.2599,5.2994,5.2599,5.1853,5.1812,5.1791,5.1791,0.0,0.0,0.0,0.0,0.0,0.0,3.2608,3.3264,3.5503,4.1809,4.1474,4.0384,3.9685,3.7748,3.5004,3.1197,0.0,0.0,0.0,0.0,0.0,0.0,0.0,0.0,0.0,0.0,3.2819,3.3058,3.3225,0.0,0.0,0.0,0.0,0.0,0.0,3.4036,3.4062,3.4451,0.0,0.0,0.0,0.0,0.0,0.0,0.0,0.0,0.0,0.0,4.2389,4.4212,4.6733,4.9361,5.0845,5.4172,5.832,6.2198,6.4465,6.6133,6.818,6.9161,6.9203,6.7362,6.4086,6.0118,5.5602,5.1543,4.8056,4.5766,4.4694,4.4532,4.5578,4.5909,4.6786,4.9147,4.8574,4.9076,5.27,5.2185,5.2887,5.6753,5.782,5.8689,5.9864,6.0402,6.0257,5.9243,5.9078,5.8581,5.7521,5.7479,5.7397,5.721,5.7479,5.7479,5.721,5.7479,5.7479,5.719,5.6805,5.6722,5.6945,5.6225,5.6076,5.6366,5.5538,5.4979,5.4648,5.4541,5.4024,5.3279,5.322,5.2974,5.2557,5.1998,5.1791,5.1791,0.0,0.0,0.0,0.0,0.0,2.825,3.3316,3.3777,3.5768,4.201,4.2034,4.1158,4.035,3.8462,3.5946,3.2662,3.1619,0.0,0.0,0.0,0.0,0.0,0.0,0.0,0.0,0.0,3.3345,3.3832,3.4152,3.4272,0.0,0.0,3.4581,3.408,0.0,0.0,0.0,0.0,0.0,0.0,0.0,0.0,0.0,0.0,0.0,0.0,0.0,0.0,0.0,0.0,0.0,4.6841,4.7422,4.9711,5.3254,5.889,6.1832,6.3997,6.7254,6.8506,6.8559,6.7209,6.4099,6.0108,5.5322,5.1404,4.809,4.5556,4.4422,4.4125,4.4983,4.5181,4.5896,4.7817,4.7103,4.7592,5.128,5.0535,5.1269,5.5755,5.6744,5.774,5.9486,6.0167,6.0071,5.9098,5.9057,5.8726,5.7852,5.7438,5.721,5.721,5.7521,5.7541,5.721,5.7521,5.7521,5.719,5.6904,5.6863,5.7008,5.6511,5.6469,5.678,5.5831,5.5251,5.4958,5.45,5.3962,5.3382,5.3095,5.2911,5.2725,5.204,5.1895,5.1978,0.0,0.0,0.0,0.0,0.0,0.0,3.2473,3.4053,3.6239,4.0826,4.0908,4.0357,3.9941,3.6701,3.4526,3.4466,3.2632,0.0,0.0,0.0,0.0,0.0,0.0,0.0,0.0,0.0,0.0,3.5076,3.5475,3.5909,3.6375,3.6357,3.6026,3.5391,0.0,0.0,0.0,0.0,0.0,0.0,0.0,0.0,3.9391,0.0,0.0,0.0,0.0,0.0,0.0,0.0,0.0,0.0,0.0,4.7199,4.9748,5.5765,5.9346,6.1782,6.3899,6.5791,6.6814,6.5147,6.2416,5.898,5.4613,5.0508,4.7018,4.4841,4.3985,4.3807,4.4406,4.5113,4.5856,4.6687,4.8531,5.0316,5.1635,5.3364,5.4952,5.6069,5.7361,5.8342,5.8766,5.9545,5.9988,5.9988,5.914,5.8808,5.9264,5.7955,5.721,5.721,5.721,5.721,5.721,5.721,5.721,5.721,5.719,5.6987,5.6618,5.7008,5.6738,5.5914,5.5893,5.5372,5.4455,5.4,5.33,5.2495,5.2495,5.2226,5.1812,5.1812,5.2081,5.2435,0.0,0.0,0.0,0.0,0.0,0.0,0.0,3.0899,3.2673,3.7242,3.6681,3.6361,3.7704,3.577,3.4281,3.4099,3.2511,0.0,0.0,0.0,0.0,0.0,0.0,0.0,0.0,0.0,0.0,0.0,0.0,3.8464,3.8924,3.897,3.842,3.7374,3.7351,3.697,0.0,0.0,0.0,0.0,0.0,3.9237,3.9516,0.0,0.0,0.0,0.0,0.0,0.0,0.0,0.0,0.0,0.0,0.0,0.0,5.0307,5.4743,5.9,6.0917,6.2237,6.266,6.105,5.8741,5.5813,5.1957,4.9446,4.7263,4.4888,4.4256,4.4105,4.3977,4.427,4.5231,4.7391,4.8428,4.9725,5.1963,5.2281,5.318,5.5648,5.7999,5.9598,6.0068,6.0047,5.9864,5.9554,5.8953,5.8514,5.8348,5.7603,5.721,5.721,5.721,5.69,5.6304,5.6614,5.6805,5.6805,5.6449,5.6552,5.6987,5.62,5.5873,5.5873,5.5227,5.4441,5.3633,5.3755,5.3279,5.2495,5.2495,5.2412,5.2226,5.1915,5.1895,5.1998,0.0,0.0,0.0,0.0,0.0,0.0,0.0,2.9224,3.0468,3.4345,3.3637,3.3626,3.5868,3.4373,3.3439,3.399,3.2696,0.0,0.0,0.0,0.0,0.0,0.0,0.0,0.0,0.0,0.0,0.0,0.0,0.0,0.0,0.0,4.1612,3.9658,3.911,3.8232,0.0,0.0,0.0,0.0,3.8809,3.9403,3.9537,0.0,0.0,0.0,0.0,0.0,0.0,0.0,0.0,0.0,0.0,0.0,0.0,0.0,5.0685,5.4686,5.7354,5.8571,5.8885,5.7974,5.599,5.3507,5.0577,4.8601,4.6857,4.4806,4.4233,4.4069,4.4014,4.4209,4.5004,4.6915,4.7948,4.9054,5.0553,5.1418,5.2942,5.5835,5.8167,5.9642,5.9938,5.9833,5.9616,5.9326,5.8705,5.8312,5.8162,5.7541,5.7128,5.6987,5.6966,5.6614,5.5914,5.6183,5.6411,5.6602,5.6287,5.637,5.6676,5.5828,5.5521,5.5604,5.4831,5.4086,0.0,5.3527,5.3054,5.2226,5.2226,5.2226,5.2205,5.1915,5.1915,5.204,0.0,0.0,0.0,0.0,0.0,0.0,0.0,2.8686,2.9455,3.205,3.1631,3.1942,3.4207,3.2595,3.2112,3.3894,0.0,0.0,0.0,0.0,0.0,0.0,0.0,0.0,0.0,0.0,0.0,0.0,4.2501,4.414,4.6162,0.0,0.0,4.2039,4.0981,3.9556,0.0,0.0,0.0,0.0,3.8642,3.9262,0.0,0.0,0.0,0.0,0.0,0.0,0.0,0.0,0.0,0.0,0.0,0.0,0.0,0.0,0.0,0.0,0.0,5.4597,5.5231,5.5251,5.3617,5.1562,4.9903,4.7743,0.0,4.4525,4.3937,4.3819,4.4352,4.477,4.5215,4.5755,4.7491,4.8612,4.8219,5.1013,5.4085,5.6727,5.811,5.8915,5.8997,5.9169,5.9285,5.9264,5.8415,5.8079,5.8539,5.7686,5.7008,5.6556,5.6535,5.6308,5.5811,5.5831,5.6059,5.6494,5.6453,5.6246,5.5893,5.579,5.5541,5.5103,5.4645,5.4166,5.3669,5.3302,5.2621,5.1791,5.1791,5.1791,5.1791,5.1791,5.2081,5.2371,0.0,0.0,0.0,0.0,0.0,0.0,0.0,0.0,0.0,0.0,3.0035,3.0174,3.0891,3.1155,3.1337,0.0,0.0,0.0,0.0,0.0,0.0,0.0,0.0,0.0,0.0,0.0,0.0,4.1168,4.3805,4.5924,4.7476,4.827,0.0,0.0,0.0,0.0,0.0,0.0,0.0,0.0,3.9479,3.9936,0.0,0.0,0.0,0.0,4.0496,4.0657,0.0,0.0,0.0,0.0,0.0,0.0,0.0,0.0,4.4646,4.5869,4.7092,0.0,4.9339,4.8096,4.7044,4.6228,0.0,4.4897,4.3959,4.3172,4.3658,4.4125,4.3865,4.4629,4.5953,4.7907,4.9346,5.0287,5.0531,5.2723,5.5564,5.8918,5.9542,6.0014,6.0792,5.9921,5.916,5.8788,5.825,5.7934,5.8059,5.75,5.6863,5.608,5.6059,5.5686,5.4831,5.5186,5.5417,5.5521,5.5165,5.531,5.5852,5.4769,5.4438,5.4645,5.4166,5.3527,5.2806,5.2702,5.2309,5.1791,5.1791,5.1791,5.1791,5.1791,5.1874,5.1957,0.0,0.0,0.0,0.0,0.0,0.0,0.0,0.0,0.0,0.0,0.0,0.0,0.0,0.0,0.0,0.0,0.0,0.0,0.0,0.0,0.0,0.0,0.0,0.0,0.0,0.0,0.0,0.0,0.0,4.7457,0.0,0.0,0.0,0.0,0.0,0.0,0.0,0.0,0.0,3.812,3.9882,0.0,0.0,0.0,0.0,0.0,4.0843,4.1041,0.0,4.1934,4.2626,4.3219,0.0,0.0,0.0,0.0,4.3746,4.4534,4.4288,4.5929,4.7491,4.6372,4.5534,4.4948,4.483,4.3919,4.2975,4.2677,4.3237,4.3835,4.3986,4.4026,4.5075,4.8152,4.8193,4.9019,5.2344,5.4699,5.7132,6.0015,6.0748,6.0961,6.0822,5.9686,5.8871,5.8622,5.7955,5.7583,5.7583,5.7173,5.6594,5.5914,5.5893,5.5562,5.4834,5.5062,5.5314,5.5521,5.5041,5.5082,5.5541,5.4334,5.3938,5.4145,5.3714,5.3137,5.2495,5.2495,5.2226,5.1791,5.1791,5.1791,5.1791,5.1791,5.1791,5.1791,0.0,0.0,0.0,0.0,0.0,0.0,0.0,0.0,0.0,0.0,0.0,0.0,0.0,0.0,0.0,0.0,0.0,0.0,0.0,0.0,0.0,0.0,0.0,0.0,0.0,0.0,0.0,0.0,0.0,0.0,0.0,0.0,0.0,0.0,0.0,0.0,0.0,0.0,3.9179,3.8768,4.0072,0.0,0.0,0.0,0.0,0.0,0.0,0.0,0.0,4.2449,4.3271,4.3928,4.312,0.0,0.0,0.0,0.0,0.0,4.3858,4.5679,4.7466,4.648,4.5817,4.531,4.4966,4.3694,4.2581,4.2537,4.3023,4.361,4.4152,4.3904,4.4646,4.7751,4.6727,4.7648,5.376,5.6112,5.8088,6.0459,6.1332,6.1324,6.0222,5.9081,5.8374,5.8291,5.7504,5.7024,5.7107,5.6722,5.6308,5.5914,5.5831,5.5604,5.521,5.5272,5.5438,5.5686,5.5207,5.502,5.5062,5.4065,5.3669,5.3773,5.3302,5.287,5.2495,5.2412,5.2164,5.1791,5.1791,5.1791,5.1791,5.1791,5.1791,5.1791,0.0,0.0,0.0,0.0,0.0,0.0,0.0,0.0,0.0,0.0,0.0,0.0,0.0,0.0,0.0,0.0,0.0,0.0,0.0,0.0,0.0,0.0,0.0,0.0,0.0,0.0,0.0,0.0,0.0,0.0,5.0291,5.325,5.1839,0.0,0.0,0.0,0.0,0.0,3.9439,3.9432,4.0253,0.0,0.0,0.0,0.0,0.0,0.0,0.0,0.0,4.1407,4.2061,4.2835,4.1338,0.0,0.0,0.0,0.0,0.0,4.6426,4.7218,4.6483,4.3508,4.3482,4.3958,4.32,4.2806,4.2525,4.23,4.3706,4.4575,4.3299,4.6189,4.8717,4.8564,4.9459,5.1351,5.4711,5.508,5.644,6.0299,6.0183,6.0002,6.064,5.8712,5.7252,5.6929,5.6411,5.6266,5.668,5.6246,5.5976,5.5893,5.5521,5.5272,5.521,5.5604,5.5414,5.4707,5.4252,5.4207,5.4562,5.3282,5.3093,5.3752,5.295,5.258,5.2454,5.206,5.1853,5.1791,5.1791,5.1791,5.1791,5.1791,5.1791,5.1791,0.0,0.0,0.0,0.0,0.0,0.0,0.0,0.0,0.0,0.0,0.0,0.0,0.0,0.0,0.0,0.0,0.0,0.0,0.0,0.0,0.0,0.0,0.0,0.0,0.0,0.0,0.0,0.0,0.0,5.1512,5.3281,5.2238,4.9995,4.6645,0.0,0.0,0.0,0.0,3.9724,4.0166,0.0,0.0,0.0,0.0,0.0,0.0,0.0,0.0,0.0,0.0,4.2205,4.3084,4.1027,0.0,0.0,0.0,0.0,0.0,4.4487,4.5478,4.5575,4.3404,4.3883,0.0,0.0,4.244,4.2472,4.3487,4.43,4.4812,4.4838,4.6266,4.7481,4.7704,5.106,5.4189,5.5778,5.7188,5.8825,6.0841,6.0966,6.0643,6.0057,5.8536,5.7397,5.6966,5.6287,5.5997,5.6204,5.5769,5.5417,5.5165,5.5165,5.4858,5.4133,5.4793,5.4914,5.4476,5.3796,5.3592,5.3778,5.2888,5.2723,5.3095,5.2661,5.235,5.2102,5.1895,5.1791,5.1791,5.1791,5.1791,5.1791,5.1791,5.1791,5.1791,0.0,0.0,0.0,0.0,0.0,0.0,0.0,0.0,0.0,0.0,0.0,0.0,0.0,0.0,0.0,0.0,0.0,0.0,0.0,0.0,0.0,0.0,0.0,0.0,0.0,0.0,4.539,4.9382,5.1638,5.3913,5.6105,5.168,4.8541,0.0,0.0,0.0,0.0,0.0,4.0008,4.0893,0.0,0.0,0.0,0.0,0.0,0.0,0.0,0.0,0.0,0.0,0.0,0.0,0.0,0.0,0.0,4.1863,4.2025,4.2763,4.3561,4.4484,4.5086,4.4676,0.0,0.0,0.0,0.0,4.308,4.5007,4.5032,4.4969,4.5899,4.6391,4.7126,4.8653,5.2886,5.6125,5.6556,5.8738,6.0427,6.0628,6.0982,6.0563,5.8967,5.798,5.7256,5.6755,5.6014,5.5624,5.5728,5.5189,5.4772,5.452,5.4648,5.4237,5.3222,5.3734,5.4086,5.4189,5.3406,5.3098,5.3181,5.2599,5.2392,5.2495,5.2371,5.2122,5.1791,5.1791,5.1791,5.1791,5.1791,5.1791,5.1791,5.1791,5.1791,5.1791,0.0,0.0,0.0,0.0,0.0,0.0,0.0,0.0,0.0,0.0,0.0,0.0,0.0,0.0,0.0,0.0,0.0,0.0,0.0,0.0,0.0,0.0,0.0,0.0,0.0,4.5782,4.7308,5.0846,5.3544,5.5324,5.6148,5.3155,4.9669,4.5751,0.0,0.0,0.0,0.0,0.0,4.1533,4.1565,0.0,0.0,0.0,0.0,0.0,0.0,0.0,0.0,0.0,0.0,0.0,0.0,0.0,4.2227,4.2722,4.2719,4.3414,4.7138,4.6686,4.5549,4.705,4.6728,0.0,4.7156,4.5966,4.5051,4.6393,4.6057,4.5324,4.4678,4.7866,5.145,5.4092,5.5814,5.6753,5.662,5.7468,5.8306,5.8732,5.8441,5.7971,5.7422,5.6552,5.5852,5.5396,5.4872,5.4789,5.5231,5.4396,5.4083,5.45,5.3758,5.3305,5.3201,5.2826,5.2847,5.3305,5.2785,5.2787,5.3181,5.2267,5.2081,5.2497,5.204,5.1833,5.1791,5.1791,5.1791,5.1791,5.1791,5.1791,5.1791,5.1791,5.1791,5.1791,0.0,0.0,0.0,0.0,0.0,0.0,0.0,0.0,0.0,0.0,0.0,0.0,0.0,0.0,0.0,0.0,0.0,0.0,0.0,0.0,0.0,0.0,0.0,4.2284,4.5435,4.7353,5.049,5.4861,5.6347,5.6536,5.5419,5.1343,0.0,0.0,0.0,0.0,0.0,0.0,0.0,4.2206,4.1336,4.0293,0.0,0.0,0.0,0.0,0.0,0.0,0.0,0.0,4.0202,4.0817,3.9558,4.0749,4.2509,4.1933,4.1863,4.2424,4.4491,4.4794,4.4955,4.6806,4.7515,0.0,0.0,4.6827,4.755,5.1459,4.9635,4.7491,4.7934,4.8754,5.0493,5.3921,5.5002,5.5867,5.7236,5.7711,5.8059,5.856,5.8208,5.7707,5.7252,5.6407,5.5707,5.5251,5.4769,5.4458,5.4334,5.398,5.3628,5.3282,5.322,5.2932,5.2329,5.2433,5.2433,5.2329,5.2143,5.2164,5.2309,5.1957,5.1895,5.206,5.1874,5.1791,5.1791,5.1791,5.1791,5.1791,5.1791,5.1791,5.1791,5.1791,5.1791,5.1791,0.0,0.0,0.0,0.0,0.0,0.0,0.0,0.0,0.0,0.0,0.0,0.0,0.0,0.0,0.0,0.0,0.0,0.0,0.0,0.0,0.0,0.0,0.0,4.2447,4.4953,4.8225,5.187,5.5925,5.7263,5.6536,5.3713,0.0,0.0,0.0,0.0,0.0,0.0,0.0,0.0,0.0,4.1462,4.0356,0.0,0.0,0.0,0.0,0.0,0.0,0.0,0.0,3.9969,4.0602,3.9514,4.0782,4.254,4.1841,4.1753,4.1973,4.2564,4.332,4.4288,4.5748,0.0,0.0,4.8057,4.8038,4.917,5.309,5.0891,4.8597,4.9721,4.9486,5.021,5.3557,5.4577,5.5617,5.7603,5.7769,5.779,5.8121,5.7649,5.709,5.661,5.6014,5.5438,5.4813,5.4458,5.4062,5.3631,5.3465,5.3114,5.2516,5.2684,5.2433,5.1812,5.2122,5.2122,5.1791,5.1791,5.1791,5.1791,5.1791,5.1791,5.1791,5.1791,5.1791,5.1791,5.1791,5.1791,5.1791,5.1791,5.1791,5.1791,5.1791,5.1791,5.1791,0.0,0.0,0.0,0.0,0.0,0.0,0.0,0.0,0.0,0.0,0.0,0.0,0.0,0.0,0.0,0.0,0.0,0.0,0.0,0.0,0.0,0.0,0.0,4.2194,4.5559,4.8407,5.0933,5.3123,5.583,5.5051,5.0941,4.8867,0.0,0.0,0.0,0.0,0.0,0.0,0.0,0.0,4.2174,4.1597,0.0,0.0,0.0,0.0,0.0,0.0,0.0,0.0,4.0392,3.99,4.2217,4.253,4.2175,4.2813,4.2722,4.2419,4.2419,4.2998,4.3694,4.4054,4.5793,4.7886,4.9791,4.9828,4.9634,5.0102,4.907,4.8331,4.9168,5.0085,5.1456,5.3733,5.5128,5.637,5.7686,5.7479,5.719,5.719,5.6407,5.5707,5.5251,5.5189,5.4793,5.3856,5.3794,5.3631,5.3199,5.2743,5.2495,5.2495,5.204,5.1791,5.1791,5.1791,5.1791,5.1791,5.1791,5.1791,5.1791,5.1791,5.1791,5.1791,5.1791,5.1791,5.1791,5.1791,5.1791,5.1791,5.1791,5.1791,5.1791,5.1791,5.1791,5.1791,0.0,0.0,0.0,0.0,0.0,0.0,0.0,0.0,0.0,0.0,0.0,0.0,0.0,0.0,0.0,0.0,0.0,0.0,0.0,0.0,0.0,0.0,0.0,0.0,0.0,0.0,4.887,5.4231,5.3756,5.2563,0.0,0.0,0.0,4.5251,0.0,0.0,0.0,0.0,0.0,0.0,4.2355,4.1312,0.0,0.0,0.0,0.0,0.0,0.0,0.0,0.0,0.0,0.0,4.0411,4.2474,4.4483,4.2783,4.3734,4.496,4.3244,4.3158,4.4084,4.6166,4.7427,4.8689,5.0608,5.0103,4.9535,5.0613,5.2174,5.2929,5.1535,5.1636,5.2428,5.3859,5.4556,5.5265,5.6324,5.6366,5.6308,5.6308,5.5769,5.5207,5.4748,5.4417,5.3983,5.3427,5.3385,5.3178,5.2723,5.2601,5.235,5.2019,5.1874,5.1791,5.1791,5.1791,5.1791,5.1791,5.1791,5.1791,5.1791,5.1791,5.1791,5.1791,5.1791,5.1791,5.1791,5.1791,5.1791,5.1791,5.1791,5.1791,5.1791,5.1791,5.1791,5.1791,0.0,0.0,0.0,0.0,0.0,0.0,0.0,0.0,0.0,0.0,0.0,0.0,0.0,0.0,0.0,0.0,0.0,0.0,0.0,0.0,0.0,0.0,0.0,0.0,0.0,4.3936,4.7195,0.0,0.0,0.0,0.0,0.0,0.0,4.7134,0.0,4.8672,0.0,0.0,4.5159,4.4993,4.3453,4.26,4.2284,0.0,0.0,0.0,0.0,0.0,0.0,0.0,0.0,0.0,3.989,4.1737,4.3678,4.1974,4.311,4.4472,4.2533,4.3309,4.4968,4.6187,4.7624,4.9045,5.022,5.0458,5.078,5.1939,5.3328,5.3989,5.2768,5.2363,5.2607,5.3793,5.4262,5.4831,5.5769,5.5749,5.5562,5.5372,5.4938,5.4482,5.4048,5.3714,5.3362,5.295,5.2932,5.2725,5.2247,5.2226,5.2081,5.1812,5.1791,5.1791,5.1791,5.1791,5.1791,5.1791,5.1791,5.1791,5.1791,5.1791,5.1791,5.1791,5.1791,5.1791,5.1791,5.1791,5.1791,5.1791,5.1791,5.1791,5.1791,5.1791,5.1791,5.1791,0.0,0.0,0.0,0.0,0.0,0.0,0.0,0.0,0.0,0.0,0.0,0.0,0.0,0.0,0.0,0.0,0.0,0.0,0.0,0.0,0.0,0.0,0.0,0.0,0.0,0.0,0.0,0.0,0.0,0.0,0.0,0.0,4.9923,5.0302,0.0,5.2305,0.0,4.9066,4.734,4.5552,4.4803,4.4519,4.4455,4.3904,0.0,0.0,0.0,0.0,0.0,0.0,0.0,0.0,4.0343,4.0812,4.1208,4.092,4.1683,4.2367,4.1347,4.3472,4.5817,4.5154,4.7198,4.937,4.9344,5.1048,5.2826,5.361,5.3261,5.2909,5.3263,5.264,5.2495,5.3607,5.4145,5.4727,5.5604,5.5314,5.4855,5.4438,5.4024,5.3589,5.3181,5.3139,5.2953,5.2474,5.2433,5.2247,5.1833,5.1791,5.1791,5.1791,5.1791,5.1791,5.1791,5.1791,5.1791,5.1791,5.1791,5.1791,5.1791,5.1791,5.1791,5.1791,5.1791,5.1791,5.1791,5.1791,5.1791,5.1791,5.1791,5.1791,5.1791,5.1791,5.1791,5.1812,0.0,0.0,0.0,0.0,0.0,0.0,0.0,0.0,0.0,0.0,0.0,0.0,0.0,0.0,0.0,0.0,0.0,0.0,0.0,0.0,0.0,0.0,0.0,0.0,0.0,0.0,0.0,0.0,0.0,0.0,0.0,0.0,0.0,5.0271,0.0,5.0882,4.7818,4.5719,4.4573,4.409,4.3421,4.3145,4.3169,4.3539,4.2916,0.0,0.0,0.0,0.0,0.0,0.0,0.0,4.0589,4.1886,4.3157,4.2238,4.3279,4.4636,4.4197,4.3747,4.4266,4.7847,5.01,5.1403,5.1243,5.241,5.3486,5.3364,5.432,5.4958,5.4334,5.4358,5.4317,5.3856,5.3876,5.4021,5.4207,5.3903,5.3595,5.3489,5.3385,5.3137,5.2681,5.264,5.2454,5.1978,5.1957,5.1915,5.1812,5.1791,5.1791,5.1791,5.1791,5.1791,5.1791,5.1791,5.1791,5.1791,5.1791,5.1791,5.1791,5.1791,5.1791,5.1791,5.1791,5.1791,5.1791,5.1791,5.1791,5.1791,5.1791,5.1791,5.1791,5.1791,5.1791,5.1836,0.0,0.0,0.0,0.0,0.0,0.0,0.0,0.0,0.0,0.0,0.0,0.0,0.0,0.0,0.0,0.0,0.0,0.0,0.0,0.0,0.0,0.0,0.0,0.0,0.0,0.0,0.0,0.0,0.0,0.0,0.0,0.0,0.0,5.0937,0.0,5.0566,4.7385,4.5828,4.4794,4.4162,4.4171,4.418,4.418,4.4162,4.3318,4.2071,4.1731,0.0,0.0,0.0,0.0,0.0,0.0,0.0,4.2444,4.1899,4.312,4.4642,4.461,4.4982,4.6186,4.9722,5.1131,5.1709,5.2057,5.301,5.3693,5.3282,5.463,5.56,5.4686,5.4707,5.4586,5.3651,5.3507,5.3507,5.3507,5.3323,5.3118,5.2888,5.2847,5.2684,5.2205,5.2164,5.206,5.1812,5.1791,5.1791,5.1791,5.1791,5.1791,5.1791,5.1584,5.1584,5.1791,5.1357,5.1357,5.1791,5.1584,5.1584,5.1791,5.1791,5.1791,5.1791,5.1791,5.1791,5.1791,5.1791,5.1791,5.1791,5.1791,5.1791,5.1814,5.204,5.2152,5.2197,0.0,0.0,0.0,0.0,0.0,0.0,0.0,0.0,0.0,0.0,0.0,0.0,0.0,0.0,0.0,0.0,0.0,0.0,0.0,0.0,0.0,0.0,0.0,0.0,0.0,0.0,0.0,0.0,0.0,0.0,0.0,0.0,0.0,5.1556,0.0,0.0,4.7624,4.655,4.5349,4.4203,4.4835,4.5096,4.5024,0.0,0.0,0.0,4.1818,4.1381,4.1061,4.0766,0.0,0.0,0.0,0.0,4.1021,4.1143,4.2265,4.3568,4.412,4.6277,4.8768,5.046,5.099,5.1357,5.2288,5.3051,5.3486,5.3137,5.4527,5.5476,5.4562,5.4373,5.4127,5.3323,5.3139,5.3077,5.3077,5.3015,5.2806,5.2435,5.2371,5.2226,5.1833,5.1791,5.1791,5.1791,5.1791,5.1791,5.1791,5.1729,5.1688,5.1688,5.1315,5.1253,5.1564,5.0858,5.0858,5.1564,5.1148,5.1169,5.1564,5.1564,5.1646,5.1791,5.1791,5.1791,5.1791,5.1791,5.1791,5.1791,5.1791,5.1836,5.1972,5.2357,5.2536,5.2671,0.0,0.0,0.0,0.0,0.0,0.0,0.0,0.0,0.0,0.0,0.0,0.0,0.0,0.0,0.0,0.0,0.0,0.0,0.0,0.0,0.0,0.0,0.0,0.0,0.0,0.0,0.0,0.0,0.0,0.0,0.0,0.0,0.0,5.1335,0.0,0.0,0.0,4.4315,4.2766,4.2008,4.2134,4.2166,0.0,0.0,0.0,0.0,0.0,4.1381,4.1123,4.1322,4.117,0.0,0.0,0.0,4.1079,4.1421,4.175,4.237,4.4139,4.6565,4.8601,4.8764,4.9957,5.1357,5.2288,5.2578,5.2661,5.2599,5.4027,5.5,5.4062,5.3897,5.3755,5.3261,5.287,5.2578,5.2578,5.2247,5.1957,5.1895,5.1895,5.1874,5.1812,5.1791,5.1791,5.1791,5.1791,5.1791,5.1791,5.1419,5.1189,5.1189,5.1127,5.092,5.0589,5.088,5.088,5.0589,5.0506,5.0527,5.0589,5.0589,5.1024,5.1791,5.1791,5.1791,5.1791,5.1791,5.1791,5.1791,5.1791,5.204,5.2402,5.2469,5.276,5.3163,0.0,0.0,0.0,0.0,0.0,0.0,0.0,0.0,0.0,0.0,0.0,0.0,0.0,0.0,0.0,3.5181,3.4751,3.5072,3.646,3.7183,0.0,0.0,0.0,0.0,0.0,0.0,0.0,0.0,0.0,0.0,0.0,4.8408,5.0114,0.0,0.0,0.0,0.0,0.0,0.0,4.2166,4.1763,4.2149,0.0,0.0,0.0,0.0,0.0,0.0,4.0591,4.1282,4.1231,4.0916,4.0973,0.0,0.0,0.0,4.1806,4.2415,4.4118,4.6468,4.8415,4.8414,4.9204,5.0364,5.1771,5.2102,5.2102,5.2102,5.3157,5.3861,5.322,5.3072,5.295,5.2495,5.2247,5.2102,5.2102,5.1936,5.1791,5.1791,5.1791,5.1791,5.1791,5.1791,5.1791,5.1791,5.1564,5.1419,5.1419,5.0941,5.0693,5.0693,5.0487,5.0363,5.0403,5.0115,5.0012,5.0074,5.0301,5.0403,5.0403,5.0403,5.061,5.1025,5.1025,5.1148,5.1419,5.1419,5.1564,5.1791,5.1791,5.2085,5.2536,5.2804,5.3185,5.3676,0.0,0.0,0.0,0.0,0.0,0.0,0.0,0.0,0.0,0.0,0.0,0.0,0.0,0.0,0.0,0.0,3.513,3.5413,3.6893,3.723,0.0,0.0,0.0,0.0,0.0,0.0,0.0,0.0,0.0,0.0,4.83,4.9138,5.1597,0.0,5.1828,0.0,0.0,0.0,0.0,0.0,0.0,0.0,0.0,0.0,0.0,0.0,0.0,0.0,0.0,4.108,4.1087,4.0798,4.0946,4.1013,0.0,0.0,0.0,4.2202,4.3761,4.5844,4.7667,4.7937,4.8733,4.9762,5.1014,5.146,5.1626,5.1626,5.2267,5.2746,5.2371,5.2412,5.235,5.1874,5.1791,5.1791,5.1791,5.1791,5.175,5.1646,5.1729,5.1708,5.1481,5.1564,5.1584,5.146,5.1129,5.092,5.092,5.0508,5.0259,5.0259,4.995,4.9888,5.0073,4.9432,4.9288,4.964,4.995,5.0073,5.0073,5.0073,5.0073,5.0094,5.03,5.0672,5.1108,5.1108,5.1444,5.1972,5.1972,5.2333,5.2895,5.3252,5.3698,5.4165,0.0,0.0,0.0,0.0,0.0,0.0,0.0,0.0,0.0,0.0,0.0,0.0,0.0,0.0,3.5695,3.5697,3.5437,3.5745,3.6915,3.7465,3.8234,0.0,0.0,0.0,0.0,0.0,0.0,0.0,0.0,0.0,5.1001,5.1511,5.4605,5.9603,5.5878,5.255,4.9596,0.0,0.0,0.0,0.0,0.0,0.0,0.0,0.0,0.0,0.0,0.0,4.0447,4.0812,4.0697,4.0489,4.0864,4.1013,4.0933,0.0,0.0,0.0,4.2875,4.4494,4.5847,4.6683,4.8614,5.0267,4.9967,5.0551,5.115,5.115,5.1522,5.1874,5.1833,5.2205,5.235,5.1874,5.1791,5.1791,5.1791,5.1791,5.1646,5.1191,5.1522,5.146,5.0548,5.0879,5.0941,5.0506,5.0444,5.0444,5.0444,5.0054,4.9827,4.9827,4.9806,4.9599,4.9163,4.9101,4.9122,4.9143,4.9164,4.9185,4.9185,4.9185,4.9185,4.9204,5.0052,5.0672,5.1108,5.1108,5.1646,5.2447,5.2447,5.3007,5.381,5.3833,5.421,5.4652,0.0,0.0,0.0,0.0,0.0,0.0,0.0,0.0,0.0,0.0,0.0,0.0,0.0,3.5312,3.5705,3.6186,3.6115,3.6255,3.6642,3.6412,3.7174,3.9218,0.0,0.0,0.0,0.0,0.0,0.0,0.0,4.248,4.7371,4.907,5.1545,5.4599,5.3593,5.2719,5.1659,4.7299,0.0,0.0,0.0,0.0,0.0,0.0,0.0,0.0,4.2647,4.1622,4.0558,4.1518,4.1491,4.11,4.1451,4.1307,4.0925,4.0516,4.0883,4.1525,4.1865,4.3018,4.4371,4.5346,4.6297,4.7254,4.8216,4.9154,4.9826,4.9826,5.0632,5.1357,5.1357,5.1729,5.1998,5.1833,5.1543,5.1357,5.1357,5.1086,5.0838,5.0672,5.0796,5.0755,5.0424,5.0548,5.0569,5.0403,5.0156,5.0012,5.0012,4.9577,4.935,4.935,4.935,4.9267,4.9102,4.9102,4.9102,4.9102,4.9102,4.9102,4.9102,4.9102,4.9102,4.9122,4.9432,4.9826,5.0281,5.0549,5.1188,5.2072,5.2387,5.3074,5.3899,5.3899,5.4254,5.4696,0.0,0.0,0.0,0.0,0.0,0.0,0.0,0.0,0.0,0.0,0.0,0.0,0.0,0.0,3.6279,3.6758,3.6793,3.6694,3.6463,3.5963,3.6707,3.8958,3.8259,0.0,0.0,0.0,0.0,0.0,0.0,0.0,0.0,4.7619,5.0057,5.2536,5.1449,5.1894,0.0,0.0,0.0,4.7631,0.0,0.0,4.603,0.0,0.0,4.526,4.4784,4.3492,4.1949,4.1774,4.1436,4.1087,4.133,0.0,0.0,0.0,4.0654,4.1368,4.1269,4.2225,4.3665,4.5181,4.5375,4.5648,4.7337,4.8047,4.84,4.8606,4.9598,5.0508,5.0796,5.1129,5.1377,5.1543,5.1315,5.1024,5.0879,5.0589,5.0341,5.0218,5.0322,5.0279,4.999,5.0115,5.0135,4.997,4.9722,4.9578,4.9578,4.9267,4.9102,4.9102,4.9102,4.9102,4.9102,4.9267,4.933,4.935,4.9474,4.9474,4.933,4.933,4.9247,4.9102,4.9102,4.9371,4.9827,5.0095,5.0924,5.2085,5.2379,5.3192,5.4187,5.4187,5.4387,5.4696,0.0,0.0,0.0,0.0,0.0,0.0,0.0,0.0,0.0,0.0,0.0,0.0,0.0,0.0,0.0,3.7465,3.7431,3.7092,3.6371,3.6297,3.6957,3.8531,3.8459,0.0,0.0,0.0,0.0,0.0,0.0,0.0,0.0,0.0,5.046,0.0,5.0053,5.036,5.385,0.0,5.2512,5.1703,0.0,4.6755,4.7636,4.9892,5.0103,4.9172,4.8711,4.7111,4.4767,4.161,4.0602,4.0671,4.0564,0.0,0.0,0.0,0.0,0.0,0.0,0.0,0.0,4.6119,4.6028,4.5715,4.7316,4.722,4.6944,4.7525,4.8398,4.9287,5.0155,5.0341,5.0527,5.0984,5.1067,5.09,5.0444,5.0362,5.0218,4.9827,5.0115,5.0032,4.9163,4.9516,4.9599,4.9143,4.9102,4.9102,4.9102,4.9102,4.908,4.9081,4.9081,4.9102,4.9102,4.9537,4.9765,4.9806,5.0197,5.0177,4.9806,4.9806,4.9537,4.9102,4.9102,4.9371,4.9807,4.9807,5.0871,5.2484,5.2528,5.3402,5.4696,5.4696,5.4696,5.4696,0.0,0.0,0.0,0.0,0.0,0.0,0.0,0.0,0.0,0.0,0.0,0.0,0.0,0.0,0.0,3.8564,3.8138,3.7536,3.6791,3.6011,3.6486,3.8509,3.8138,3.8796,0.0,0.0,0.0,0.0,0.0,0.0,0.0,0.0,0.0,0.0,4.9129,4.9506,4.9457,4.7255,0.0,5.2439,4.816,4.7819,4.9846,4.9229,4.8461,4.7694,4.7459,4.7857,4.8041,4.4966,4.5636,4.7233,4.4008,0.0,0.0,0.0,0.0,0.0,4.1126,0.0,0.0,0.0,0.0,0.0,4.4449,4.4483,4.4672,4.5977,4.6695,4.7361,4.8272,4.9287,4.9888,4.9681,4.9929,5.0116,4.9971,4.9681,4.9412,4.9309,4.9391,4.937,4.9101,4.9226,4.9247,4.9122,4.9102,4.9102,4.9102,4.9102,4.8935,4.8604,4.8583,4.877,4.9102,4.8873,4.9143,4.9806,4.9909,4.993,4.9806,4.9806,4.9537,4.9102,4.9102,4.9334,4.9738,5.0093,5.0965,5.2125,5.2752,5.3688,5.4696,5.4696,5.4696,5.4696,0.0,0.0,0.0,0.0,0.0,0.0,0.0,0.0,0.0,0.0,0.0,0.0,0.0,0.0,0.0,0.0,3.9578,3.8776,3.7413,3.6607,3.6766,3.8052,3.8161,3.8921,0.0,0.0,0.0,0.0,0.0,0.0,0.0,0.0,0.0,0.0,0.0,0.0,0.0,0.0,4.6266,5.1609,4.9542,4.985,5.1505,5.1257,5.0644,4.9957,5.0049,5.0296,5.0114,4.7123,4.7346,4.8203,4.4322,0.0,0.0,0.0,0.0,0.0,0.0,0.0,0.0,4.3183,0.0,0.0,4.3338,4.2692,4.2177,4.3674,4.4457,4.5292,4.6616,4.7672,4.8397,4.85,4.8583,4.877,4.9164,4.8998,4.8812,4.8812,4.8625,4.8583,4.877,4.8812,4.8812,4.8812,4.8812,4.8707,4.8521,4.85,4.848,4.8397,4.821,4.8335,4.879,4.8728,4.906,4.9806,4.9971,5.0054,5.0054,4.9889,4.9537,4.9102,4.9102,4.9315,4.9742,5.0229,5.0974,5.1916,5.2627,5.3517,5.439,5.4631,5.4696,5.4696,0.0,0.0,0.0,0.0,0.0,0.0,0.0,0.0,0.0,0.0,0.0,0.0,0.0,0.0,0.0,0.0,4.1455,4.0421,3.8348,3.7773,3.7485,3.7454,3.8375,3.9259,4.0034,0.0,0.0,0.0,0.0,0.0,0.0,0.0,0.0,0.0,0.0,0.0,0.0,0.0,4.5133,4.9533,5.0948,5.2013,5.2839,5.434,5.4426,5.3787,5.4087,5.3274,5.1696,4.91,4.7499,4.6111,4.3334,4.3264,4.3755,4.1361,4.1803,0.0,0.0,0.0,0.0,0.0,4.3439,0.0,4.3203,4.1691,4.0277,4.1507,4.236,4.3404,4.522,4.5974,4.6581,4.7397,4.7295,4.7402,4.8211,4.8314,4.8293,4.8252,4.7921,4.7838,4.8148,4.821,4.8231,4.8169,4.821,4.8065,4.7631,4.7672,4.7879,4.8231,4.7838,4.7879,4.8397,4.8749,4.9247,4.9806,5.0156,5.032,5.032,4.995,4.9537,4.9102,4.9102,4.9358,4.9827,5.0231,5.0932,5.1852,5.2326,5.3083,5.3953,5.4434,5.4653,5.4696,3.6486,0.0,0.0,0.0,0.0,0.0,0.0,0.0,0.0,0.0,0.0,0.0,0.0,0.0,0.0,0.0,0.0,4.1425,0.0,3.8905,3.8033,3.7793,3.8519,3.9357,4.0394,4.0453,0.0,0.0,0.0,0.0,0.0,0.0,0.0,0.0,0.0,0.0,0.0,4.6031,4.7037,4.6559,4.8925,5.1726,5.4431,5.3989,5.3369,5.2722,5.2326,5.3527,5.518,5.4289,5.0934,4.7087,4.6735,4.5274,4.3563,4.317,4.3089,0.0,0.0,0.0,0.0,4.3266,4.3729,0.0,4.2223,4.1909,4.2173,4.2692,4.272,4.3068,4.4404,4.5683,4.6518,4.6427,4.7293,4.7931,4.7859,4.7838,4.7713,4.732,4.7527,4.7444,4.6762,4.7051,4.7113,4.6741,4.7072,4.7237,4.7155,4.7486,4.7568,4.7279,4.7196,4.7527,4.8397,4.8107,4.8583,4.9806,4.9889,4.993,4.9909,4.9847,4.9537,4.9102,4.9102,4.955,5.0273,5.0358,5.0932,5.1852,5.2322,5.3081,5.391,5.4019,5.4325,5.4696,3.686,0.0,0.0,0.0,0.0,0.0,0.0,0.0,0.0,0.0,0.0,0.0,0.0,0.0,0.0,0.0,0.0,0.0,0.0,0.0,3.8782,3.8623,3.9073,3.9929,4.1171,4.1179,4.1214,0.0,0.0,0.0,0.0,0.0,0.0,0.0,0.0,0.0,0.0,4.4721,4.6287,4.7099,4.9988,5.196,5.3205,5.3404,5.323,5.2981,5.3243,5.4157,5.4917,5.3016,5.1711,5.0405,4.7366,4.7018,4.7278,4.5225,4.4945,4.5317,4.5138,4.5548,4.5831,4.4874,4.4072,0.0,0.0,4.0697,4.0197,4.1575,4.1038,4.0987,4.3277,4.4063,4.4678,4.5737,4.619,4.6746,4.7745,4.7388,4.6823,4.6389,4.6347,4.6264,4.6017,4.6203,4.6244,4.6017,4.6389,4.6451,4.6017,4.6637,4.6906,4.6658,4.6658,4.6989,4.7693,4.7486,4.7941,4.9101,4.935,4.9681,5.0073,4.9888,4.9682,4.9433,4.942,4.9764,5.0421,5.0654,5.1142,5.1867,5.2318,5.2774,5.3255,5.3713,5.4062,5.4325,3.6837,0.0,0.0,0.0,0.0,0.0,0.0,0.0,0.0,0.0,0.0,0.0,0.0,0.0,0.0,0.0,0.0,0.0,0.0,0.0,3.9634,3.949,3.9954,4.0618,4.1505,4.1888,4.1887,4.1597,0.0,0.0,0.0,0.0,0.0,0.0,0.0,0.0,0.0,4.3282,4.5384,4.848,5.1399,5.2242,5.1905,5.3225,5.3678,5.376,5.4753,5.4707,5.3814,5.1207,5.2136,5.3413,4.8375,4.9012,5.0984,4.7697,4.7415,4.7969,4.7145,4.7218,4.7458,4.7066,4.5049,4.2889,0.0,0.0,0.0,4.0399,3.9718,3.9694,4.2622,4.2693,4.2911,4.486,4.4867,4.5284,4.7125,4.665,4.6092,4.6017,4.5328,4.5096,4.5635,4.5451,4.5317,4.5435,4.58,4.5716,4.5042,4.583,4.6265,4.6183,4.6265,4.6534,4.6989,4.7072,4.7568,4.8397,4.8977,4.9557,5.0156,4.9909,4.9787,4.977,4.9718,5.004,5.0548,5.095,5.1392,5.1834,5.2206,5.2424,5.2598,5.3342,5.3735,5.3953,3.7397,3.8114,0.0,0.0,0.0,0.0,0.0,0.0,0.0,0.0,0.0,0.0,0.0,0.0,0.0,0.0,0.0,0.0,4.6317,4.2842,0.0,4.0203,4.1125,4.121,4.0224,4.178,4.2286,4.1597,0.0,0.0,0.0,0.0,0.0,0.0,4.1505,4.2998,4.5508,4.5688,4.6723,4.8481,5.0567,5.2073,5.3208,5.4443,5.4681,5.4437,5.4932,5.4707,5.4282,5.4698,5.4134,5.3261,5.3234,5.2042,5.0737,5.1144,5.0915,5.0463,5.0228,5.1803,5.2267,4.7096,4.7581,4.7846,4.1991,0.0,4.24,4.1411,0.0,4.216,4.3554,0.0,0.0,4.3175,4.4052,4.4709,4.482,4.5163,4.5871,4.7053,4.5533,4.4701,4.5535,4.4492,4.3943,4.4417,4.4779,4.4994,4.5018,4.583,4.6141,4.5768,4.61,4.6534,4.6989,4.7424,4.7879,4.8418,4.9309,4.9557,4.9246,4.964,4.9772,4.9698,4.9699,5.021,5.1034,5.1076,5.1392,5.1813,5.1856,5.2118,5.2511,5.2599,5.3211,5.391,3.6816,3.7672,0.0,0.0,0.0,0.0,0.0,0.0,0.0,0.0,0.0,0.0,5.175,5.0476,4.9917,5.0606,4.7975,4.6367,4.6566,4.3745,0.0,4.3441,4.2783,4.2663,4.3345,4.2942,4.2735,4.2812,4.2008,0.0,0.0,0.0,0.0,4.2837,4.2344,4.3496,4.5776,4.576,4.6523,4.7881,4.9913,5.1148,5.1927,5.3129,5.4018,5.4666,5.5192,5.5347,5.515,5.4217,5.4605,5.5145,5.3209,5.3121,5.3498,5.2591,5.2164,5.1855,5.1404,5.1001,5.024,4.8145,4.655,4.4933,4.2946,4.1851,4.1452,4.2121,0.0,0.0,0.0,0.0,0.0,0.0,4.4023,4.4284,4.5004,4.4286,4.4384,4.6287,4.5188,4.4233,4.4211,4.3811,4.3446,4.3154,4.3981,4.4308,4.3799,4.4899,4.5478,4.5311,4.5726,4.6161,4.6596,4.6803,4.7258,4.8003,4.8957,4.9433,4.9516,4.995,5.0126,5.0098,5.0103,5.0464,5.1118,5.1392,5.1623,5.1791,5.1791,5.1922,5.2162,5.2708,5.3167,5.3582,3.6715,0.0,0.0,0.0,4.1147,0.0,0.0,4.8332,0.0,0.0,5.1288,5.2792,5.3626,5.2929,5.2534,5.2951,5.085,4.8996,4.7811,4.5372,4.4334,4.5173,4.4512,4.4435,4.5057,4.4071,4.3516,4.3444,4.241,4.2008,0.0,0.0,0.0,4.444,4.4013,4.4843,4.6562,4.6652,4.7381,4.8616,4.9921,5.0774,5.1443,5.2527,5.3737,5.4916,5.5525,5.5901,5.5904,5.4497,5.5253,5.6317,5.3755,5.3733,5.4389,5.2894,5.2083,5.1606,5.1403,5.0391,4.9246,4.8731,4.6214,4.3815,4.3504,4.2196,4.1429,4.274,4.2096,0.0,0.0,0.0,4.2429,4.3893,0.0,4.3746,4.4751,4.3534,4.3414,4.5774,4.542,4.478,4.4257,4.4008,4.358,4.2903,4.3483,4.3556,4.2785,4.3925,4.4733,4.4981,4.5456,4.5892,4.6307,4.6431,4.6906,4.7713,4.8645,4.9288,4.962,5.0032,5.023,5.0225,5.0337,5.0654,5.1139,5.1602,5.1791,5.1791,5.1791,5.1791,5.19,5.2708,5.3189,5.3495,3.7683,3.8259,0.0,0.0,4.0156,4.2558,4.5766,4.6224,4.7097,4.9645,4.9962,5.0914,5.351,5.2165,5.2881,5.7375,5.2577,4.9975,5.1535,4.8332,4.5581,4.3744,4.6275,4.6354,4.3358,4.4872,4.4717,4.2735,4.2671,4.3011,4.3617,4.3648,4.4553,4.6131,4.6644,4.7644,4.9016,4.9452,5.0393,5.1493,5.0774,5.1472,5.3014,5.3764,5.4499,5.5268,5.5869,5.6099,5.6227,5.7138,5.6648,5.5807,5.6639,5.4356,5.1462,5.1962,5.0652,4.9239,5.0184,5.1624,5.1977,4.8291,4.8176,4.779,4.3286,4.3437,4.4254,4.3227,4.4231,4.5248,4.5088,4.4103,0.0,0.0,0.0,0.0,0.0,4.28,4.3547,4.6186,4.6733,4.6883,4.6784,4.5455,4.4471,4.4255,4.3372,4.2682,4.2338,4.3159,4.407,4.496,4.5456,4.5892,4.6307,4.6762,4.7217,4.7713,4.8645,4.9122,4.9143,4.962,4.9773,4.9742,5.0188,5.0654,5.1139,5.1602,5.1791,5.1791,5.1791,5.1791,5.1856,5.2337,5.3101,5.3888,0.0,0.0,0.0,3.8981,3.9989,4.2043,4.529,4.7602,4.9719,5.183,5.3284,5.5325,5.861,5.8385,5.8357,5.9188,5.746,5.5599,5.3886,5.2153,5.0623,4.9357,5.0133,4.9678,4.7669,4.7789,4.7277,4.6148,4.4717,4.4613,4.5751,4.4988,4.5922,4.8223,4.7566,4.7827,4.8813,4.9541,4.9981,5.0276,5.1316,5.3283,5.544,5.4175,5.4499,5.5634,5.5832,5.63,5.6823,5.6661,5.6352,5.5708,5.4117,5.2984,5.2014,5.075,5.0017,4.971,5.0048,4.9469,4.8546,4.766,4.5772,4.4004,4.3393,4.3695,4.3947,4.3391,4.4922,4.6104,4.5269,4.4639,0.0,0.0,0.0,0.0,0.0,4.1917,4.2281,4.3735,4.4403,4.4635,4.429,4.3999,4.32,4.176,4.1584,4.1632,4.1845,4.2391,4.3427,4.494,4.5147,4.5581,4.6307,4.6472,4.6762,4.7258,4.819,4.8625,4.8645,4.9454,4.9925,5.0167,5.0337,5.0844,5.1581,5.1728,5.1791,5.1791,5.1791,5.1987,5.2315,5.2796,5.3145,5.3538,4.0242,4.0335,4.0321,4.0087,4.0978,4.2792,4.5882,4.9247,5.2016,5.3694,5.6342,5.9191,6.1985,6.2585,6.2659,6.2414,6.1541,5.9582,5.6122,5.5396,5.418,5.2094,5.2608,5.1765,4.9272,4.9823,4.9135,4.7133,4.6988,4.7319,4.8038,4.6788,4.7449,4.9646,4.9268,4.884,4.8579,5.107,5.1214,4.9944,5.2108,5.4257,5.6033,5.469,5.5064,5.6267,5.5767,5.5977,5.6343,5.5247,5.4766,5.4178,5.1675,5.0548,4.9846,4.8418,4.7736,4.7585,4.8071,4.7235,4.6338,4.6832,4.5019,4.3273,4.3869,4.4479,4.4705,4.4045,4.5649,4.6763,4.5337,4.5021,0.0,0.0,0.0,0.0,0.0,4.0964,4.1262,4.2047,4.3075,4.378,4.4023,4.3695,4.2693,4.0868,4.0663,4.0682,4.0835,4.1604,4.2785,4.4443,4.4815,4.5354,4.6079,4.6224,4.6451,4.6762,4.7527,4.8086,4.8418,4.9039,4.9526,4.9955,5.0273,5.0738,5.135,5.1665,5.1791,5.1791,5.1791,5.1987,5.2315,5.297,5.3429,5.3844,4.2955,4.1325,4.0341,4.1865,4.3018,4.4668,4.7498,5.0849,5.3645,5.5245,5.8998,6.2101,6.3684,6.4546,6.5549,6.6834,6.4688,6.1808,5.8429,5.8066,5.6216,5.2215,5.3798,5.2737,4.8384,5.0972,5.0271,4.601,4.9343,5.0752,5.0331,4.8929,4.8965,5.0319,5.1627,5.0716,4.848,5.3818,5.3985,5.0775,5.3132,5.447,5.504,5.5253,5.6077,5.6946,5.5585,5.507,5.4835,5.3106,5.2109,5.1282,4.9647,4.739,4.5314,4.5241,4.4121,4.3201,4.4489,4.5156,4.5575,4.5811,4.5797,4.5505,4.46,4.5636,4.6424,4.5047,4.6412,4.7265,4.5356,4.5292,4.5011,0.0,0.0,0.0,3.9995,4.0132,4.0707,4.1349,4.2814,4.4334,4.5776,4.4441,4.2905,4.1465,4.0545,3.991,3.9551,4.085,4.2216,4.3573,4.4505,4.5209,4.5663,4.6099,4.6286,4.6286,4.6762,4.7486,4.8355,4.8376,4.8667,4.9209,5.004,5.0443,5.0548,5.1434,5.1791,5.1791,5.1791,5.1834,5.1987,5.2862,5.3844,5.4696,4.2861,4.3956,4.5051,4.5475,4.4531,4.4821,4.814,5.0776,5.4007,5.8528,6.146,6.428,6.7276,6.78,6.7873,6.7724,6.6192,6.4454,6.256,6.1448,5.9657,5.7036,5.6955,5.5522,5.2394,5.2882,5.225,5.0324,5.0424,5.0756,5.1217,4.9731,4.9204,4.9647,5.1827,5.1149,4.8676,5.2963,5.4132,5.3201,5.4518,5.5679,5.6449,5.5107,5.4622,5.4599,5.3779,5.3428,5.3021,5.0881,5.0073,4.954,4.7435,4.6308,4.5518,4.4367,4.375,4.3502,4.3847,4.402,4.431,4.5112,4.437,4.3623,4.4332,4.499,4.5208,4.4181,4.5755,4.6799,4.5144,4.5445,4.5305,4.333,4.2471,4.1736,4.0898,4.1082,4.177,4.3021,4.2449,4.2304,4.3125,4.2507,4.1343,3.9704,3.9391,3.9503,4.0003,4.1069,4.2284,4.3551,4.4505,4.5043,4.5187,4.5914,4.6161,4.5871,4.6637,4.7299,4.79,4.8231,4.9006,5.0082,5.0294,5.0781,5.1476,5.1686,5.1791,5.1791,5.1791,5.2228,5.2883,5.3102,5.3844,5.4696,4.4117,4.6528,4.8645,4.8645,4.8483,4.9092,5.1309,5.3189,5.582,6.0006,6.3138,6.5648,6.735,6.892,6.9303,6.7982,6.6709,6.499,6.2654,6.1585,6.0091,5.8006,5.7342,5.5652,5.2614,5.2885,5.2355,5.0938,5.0895,5.1225,5.1882,5.0246,4.9273,4.8973,5.1342,5.1137,4.9267,5.2753,5.4701,5.5442,5.5343,5.5318,0.0,5.4023,5.2859,5.1701,5.0673,5.0545,5.0503,4.848,4.7818,4.7472,4.5509,4.4894,4.4706,4.3841,4.3596,4.3596,4.3596,4.3741,4.4034,4.4612,4.4196,4.3827,4.4567,4.487,4.4818,4.4099,4.5153,4.5731,4.4244,4.4948,4.5216,4.3619,4.284,4.2145,4.1312,4.1656,4.2289,4.312,4.276,4.2411,4.234,4.2101,4.0978,3.8681,4.0174,4.078,3.9861,4.1677,4.2909,4.3236,4.4754,4.5395,4.5002,4.6265,4.6492,4.5725,4.6575,4.7237,4.7713,4.819,4.9027,5.0104,5.0316,5.0823,5.1518,5.1707,5.1791,5.1791,5.1791,5.2381,5.3189,5.3189,5.3844,5.4696,4.6193,4.9078,5.1469,5.1311,5.3262,5.5052,5.5654,5.691,5.8631,6.0954,6.468,6.6868,6.6176,6.8794,6.9759,6.7616,6.6318,6.422,6.0979,6.0222,5.9104,5.7268,5.6489,5.4628,5.1443,5.2014,5.1536,4.9874,5.0846,5.1516,5.1819,5.0443,4.9225,4.8307,5.0608,5.103,5.0113,5.2797,5.4922,5.6444,5.5259,5.3919,5.2597,5.2341,5.0842,4.8681,4.734,4.7372,4.7823,4.6168,4.5602,4.5359,4.4031,4.3596,4.3596,4.3596,4.3596,4.3596,4.3596,4.3905,4.4215,4.4215,4.4505,4.4814,4.4816,4.4811,4.4703,4.4289,4.4529,4.4444,4.3205,4.4005,4.4566,4.3729,4.3395,4.2772,4.1392,4.1992,4.2609,4.2764,4.3355,0.0,4.2741,4.2609,4.1382,3.8489,4.1572,4.2357,3.9495,4.2173,4.3446,4.2681,4.4792,4.5685,4.5104,4.6657,4.6906,4.5891,4.6637,4.7237,4.7713,4.819,4.8921,4.9827,5.021,5.0696,5.1223,5.1623,5.1791,5.1791,5.1791,5.2337,5.3123,5.3189,5.3779,5.4609,4.8361,5.1596,5.4018,5.2934,5.5475,5.7912,5.8644,5.9972,6.1852,6.445,6.7487,6.9084,6.8252,6.8727,6.8253,6.6151,6.4758,6.3336,6.1759,6.0557,5.957,5.8754,5.7093,5.5473,5.3903,5.2375,5.132,5.0673,5.024,4.9835,4.9504,4.999,4.9302,4.7841,5.0664,5.1689,5.1348,5.2477,5.2798,5.2612,5.258,5.1999,5.1082,5.021,4.8483,4.6448,4.6193,4.6201,4.6098,4.4534,4.4012,4.3955,4.3691,4.3596,4.3596,4.3596,4.3596,4.3596,4.3596,4.3677,4.372,4.372,4.3782,4.3838,4.3854,4.3849,4.3809,4.3725,4.3786,4.374,4.3446,4.2862,4.2425,4.246,4.2526,4.2252,4.1331,4.2144,4.3189,4.4129,4.3452,4.3083,4.3527,4.3217,4.2084,3.9905,4.0786,4.0898,3.9619,4.1244,4.2092,4.1809,4.3272,4.4567,4.558,4.5891,4.6285,4.6762,4.6927,4.7237,4.7713,4.819,4.909,5.0273,5.0358,5.0908,5.1665,5.1749,5.1791,5.1791,5.1791,5.214,5.2664,5.3058,5.356,5.4106,5.247,5.4566,5.6127,5.5847,5.7559,5.9198,5.9845,6.1499,6.2743,6.2917,6.4706,6.5776,6.538,6.6649,6.6784,6.5016,6.3725,6.2203,6.025,5.8983,5.7927,5.7055,5.6127,5.5103,5.3947,5.1772,5.1026,5.1892,4.9371,4.8543,4.9246,4.8799,4.781,4.6519,4.9102,5.1499,5.3571,5.2928,5.2703,5.2702,5.1743,5.0338,4.8731,4.7872,4.6356,4.4706,4.4706,4.4706,4.4595,4.3841,4.3596,4.3596,4.3596,4.3596,4.3596,4.3596,4.3761,4.3967,4.3967,4.4319,4.4629,4.4381,4.4672,4.4816,4.4113,4.4153,4.4194,4.3699,4.3596,4.3704,4.4068,4.3586,4.3216,4.3418,4.3677,4.3641,4.3095,4.3596,4.408,4.4173,4.4305,4.4024,4.3019,4.3402,4.3026,4.1371,4.1897,4.186,4.0891,4.1519,4.1907,4.1855,4.3454,4.465,4.5332,4.6264,4.6699,4.6638,4.7134,4.7486,4.7734,4.8438,4.9362,5.04,5.04,5.0929,5.1791,5.1791,5.1791,5.1791,5.1791,5.2228,5.2883,5.3123,5.3669,5.4346,5.5834,5.6944,5.7735,5.789,5.8808,5.967,6.0099,6.196,6.2906,6.1663,6.2417,6.2965,6.2651,6.4594,6.5232,6.3487,6.2516,6.0944,5.8489,5.7373,5.6405,5.5517,5.5229,5.468,5.3792,5.1465,5.0839,5.2043,4.8854,4.7709,4.8426,4.7888,4.7065,4.6108,4.8289,5.1054,5.4008,5.2666,5.2377,5.2668,5.0631,4.8573,4.6665,4.5748,4.4671,4.3596,4.3596,4.3596,4.3596,4.3596,4.3596,4.3596,4.3596,4.3596,4.3596,4.3596,4.3863,4.4174,4.4277,4.4836,4.5353,4.5064,4.5437,4.5603,4.4546,4.4505,4.4484,4.3741,4.3596,4.3758,4.4343,4.4256,4.4207,4.4506,4.4733,4.4775,4.4552,4.4866,4.4714,4.3566,4.5059,4.5079,4.2265,4.3651,4.4081,4.2492,4.3195,4.307,4.166,4.2256,4.2447,4.209,4.384,4.5044,4.5528,4.6591,4.701,4.6741,4.7403,4.7755,4.7879,4.8814,4.9657,5.0421,5.0506,5.1034,5.1791,5.1791,5.1791,5.1791,5.1791,5.2315,5.3058,5.3145,5.3757,5.4543,5.5902,5.7588,5.8807,5.6982,5.8345,5.9627,5.9431,6.1166,6.3104,6.4811,6.5601,6.5499,6.4162,6.4255,6.3352,6.0804,6.0474,5.9678,5.7878,5.7163,5.6754,5.6667,5.5647,5.5046,5.4942,5.2642,5.083,4.9556,4.939,4.7718,4.4704,4.8187,4.9258,4.8369,5.0471,5.072,4.9563,5.0171,5.005,4.9286,4.7328,4.633,4.5841,4.4369,4.3729,4.3596,4.3596,4.3596,4.3596,4.3596,4.3596,4.3596,4.3596,4.3596,4.3596,4.3596,4.3616,4.376,4.4194,4.436,4.4526,4.4898,4.4733,4.4463,4.4339,4.3989,4.3718,4.3616,4.3596,4.3613,4.3616,4.3303,4.3338,4.4265,4.4051,4.3805,4.3949,4.4687,4.4464,4.2496,4.4904,4.5395,4.1968,4.4359,4.5146,4.2835,4.3477,4.2876,4.0417,4.3026,4.3823,4.2064,4.3403,4.5187,4.7239,4.593,4.6264,4.821,4.7858,4.7921,4.8377,4.9235,4.9912,5.0421,5.0865,5.135,5.1791,5.1791,5.1791,5.1791,5.1791,5.2097,5.262,5.3058,5.3538,5.4041,5.7002,5.7604,5.8215,5.7835,5.8357,5.9087,5.975,6.0855,6.2063,6.3234,6.3621,6.3518,6.2918,6.2553,6.2056,6.1323,6.064,5.9777,5.8793,5.8157,5.7355,5.6327,5.583,5.5438,5.5125,5.3504,5.2269,5.1364,5.128,5.0007,4.7733,4.8728,4.9035,4.8808,4.9216,4.9713,5.0168,4.9291,4.8286,4.7161,4.5975,4.5113,4.4445,4.3822,4.3596,4.3596,4.3596,4.3443,4.3272,4.352,4.3596,4.3596,4.3596,4.3596,4.3677,4.3946,4.4215,4.4546,4.5002,4.5333,4.5417,4.5084,4.5064,4.4919,4.407,4.3967,4.3946,4.3677,4.3596,4.358,4.356,4.3656,4.377,4.39,4.3973,4.4144,4.4557,4.4675,4.4112,4.2474,4.3414,4.3177,4.0494,4.2701,4.4102,4.3639,4.359,4.2917,4.1323,4.2009,4.2236,4.1837,4.2595,4.397,4.5973,4.5856,4.6389,4.7548,4.7941,4.821,4.8439,4.9299,5.0125,5.0865,5.1329,5.1623,5.1791,5.1791,5.1791,5.1791,5.1791,5.2271,5.2948,5.3145,5.3713,5.4412,5.7264,5.7401,5.7692,5.8015,5.8234,5.8783,5.9992,6.0726,6.1319,6.1913,6.201,6.201,6.201,6.1607,6.145,6.1704,6.0797,5.9986,5.9447,5.8697,5.7791,5.6719,5.6153,5.5804,5.5595,5.4314,5.324,5.2451,5.2765,5.1669,4.9219,4.9214,4.9287,4.9437,4.9498,4.989,5.0353,4.8633,4.7218,4.595,4.5026,4.4243,4.3596,4.3596,4.3596,4.3596,4.3596,4.3424,4.3214,4.35,4.3596,4.3596,4.3596,4.3678,4.3865,4.4215,4.4629,4.5084,4.558,4.5912,4.6017,4.5519,4.554,4.5456,4.4443,4.4256,4.4174,4.3698,4.3596,4.3596,4.3596,4.3859,4.4137,4.4257,4.4169,4.4391,4.5215,4.4834,4.401,4.2894,4.3225,4.2536,4.0016,4.2089,4.337,4.2736,4.3043,4.2959,4.2326,4.1825,4.163,4.1786,4.2482,4.3629,4.53,4.5966,4.6596,4.7217,4.79,4.8398,4.8816,4.9722,5.0549,5.1308,5.1665,5.1878,5.2009,5.2009,5.2097,5.2228,5.2228,5.2687,5.3407,5.3407,5.3953,5.4696,5.6304,5.693,5.759,5.6938,5.7756,5.8862,6.002,6.0726,6.1319,6.1913,6.201,6.201,6.201,6.201,6.1756,6.117,6.0543,5.9986,5.9447,5.8349,5.7939,5.8453,5.6824,5.6196,5.6771,5.5072,5.3347,5.1601,5.3458,5.1888,4.7176,4.9562,5.0685,5.076,5.2532,5.1732,4.8965,4.7935,4.6879,4.5766,4.4237,4.3615,4.3596,4.3596,4.3596,4.3596,4.3596,4.3596,4.3596,4.3596,4.3596,4.3596,4.3596,4.3925,4.4298,4.4298,4.4629,4.5084,4.558,4.5705,4.5788,4.6183,4.5975,4.5705,4.5684,4.496,4.4174,4.3698,4.3596,4.3596,4.3596,4.3594,4.4123,4.5639,4.4593,4.4121,4.5673,4.5143,4.4355,4.367,4.4982,4.4623,4.1207,4.3418,4.3431,3.9475,4.1627,4.3074,4.2997,4.3236,4.2951,4.2037,4.3335,4.4721,4.606,4.6244,4.6782,4.7693,4.7713,4.84,4.97,5.0654,5.1329,5.1791,5.1791,5.2053,5.2489,5.2489,5.2752,5.3167,5.3167,5.3473,5.3888,5.3888,5.4237,5.4696,5.5949,5.6552,5.718,5.738,5.8653,5.9655,5.9665,6.0841,6.1633,6.1424,6.1756,6.201,6.201,6.1633,6.1476,6.1704,6.1163,6.0569,5.9986,5.962,5.8967,5.7991,5.7416,5.6841,5.6196,5.5647,5.4639,5.3165,5.4828,5.4438,5.215,5.2938,5.2814,5.1895,5.1335,5.0148,4.8497,4.7022,4.5612,4.4294,4.3803,4.3596,4.3596,4.3596,4.3596,4.3596,4.3596,4.3424,4.3233,4.352,4.3424,4.3233,4.352,4.3906,4.4422,4.5083,4.5354,4.5561,4.5996,4.612,4.6079,4.5933,4.5788,4.5622,4.5311,4.4733,4.4256,4.4112,4.3803,4.3596,4.3596,4.3596,4.3746,4.4237,4.3917,4.3661,4.3835,4.3104,4.2249,4.1386,4.1454,4.1018,3.9594,4.1778,4.2909,4.2029,4.2795,4.2752,4.1439,4.214,4.2493,4.2262,4.3234,4.4278,4.5337,4.6298,4.7092,4.7713,4.8355,4.9194,5.0188,5.0823,5.1371,5.1791,5.1791,5.2053,5.2511,5.2511,5.2598,5.2708,5.2708,5.3014,5.3429,5.3429,5.3953,5.4696,5.6092,5.6719,5.7338,5.7913,5.9411,6.0431,6.0091,6.1155,6.1861,6.1476,6.1782,6.201,6.201,6.1678,6.1581,6.1965,6.145,6.0935,6.0569,6.0143,5.9429,5.8375,5.793,5.7407,5.6794,5.6348,5.5771,5.5051,5.5515,5.5542,5.5166,5.4661,5.3634,5.2192,5.1128,4.9469,4.7393,4.6334,4.5006,4.3596,4.3596,4.3596,4.3596,4.3596,4.3596,4.3596,4.3596,4.3443,4.3253,4.352,4.3548,4.3559,4.3993,4.4443,4.4898,4.5332,4.5664,4.5975,4.6224,4.6307,4.6245,4.5975,4.5933,4.5809,4.5354,4.5022,4.4774,4.4588,4.4194,4.3863,4.3863,4.372,4.3596,4.3596,4.3596,4.343,4.2975,4.1998,4.1331,4.1254,4.0682,4.0171,3.989,4.1533,4.2566,4.241,4.2455,4.211,4.1268,4.1623,4.1984,4.2353,4.3164,4.4215,4.5479,4.6658,4.7506,4.7962,4.9089,4.9702,4.9953,5.0925,5.1518,5.1791,5.1791,5.2162,5.2752,5.2752,5.2992,5.332,5.332,5.3516,5.3757,5.3757,5.415,5.4696,5.6624,5.7277,5.7825,5.8416,5.9929,6.1033,6.0951,6.1532,6.1947,6.1864,6.1947,6.201,6.201,6.201,6.1965,6.1939,6.1424,6.1066,6.0987,5.9978,5.9369,5.9379,5.8306,5.7878,5.8172,5.7106,5.6683,5.6981,5.5634,5.5379,5.6109,5.48,5.3277,5.1612,5.1462,4.9332,4.5878,4.5807,4.4913,4.3596,4.3596,4.3596,4.3596,4.3637,4.3635,4.3596,4.3637,4.3637,4.3637,4.3637,4.3967,4.4422,4.4857,4.5312,4.5622,4.5209,4.5665,4.6307,4.6307,4.6307,4.6307,4.6307,4.6307,4.6203,4.583,4.5725,4.558,4.5126,4.4691,4.4381,4.4319,4.3967,4.3698,4.3596,4.3575,4.3368,4.2872,4.1749,4.1404,4.2601,4.206,4.1584,4.154,4.2414,4.241,4.1099,4.1058,4.1432,4.2264,4.1749,4.1727,4.2382,4.3284,4.461,4.6286,4.7258,4.7983,4.8459,4.9765,4.9974,4.9249,5.1002,5.1791,5.1791,5.1834,5.2337,5.3167,5.3211,5.3779,5.4609,5.4609,5.4631,5.4653,5.4609,5.4653,5.4696,5.7155,5.7259,5.7433,5.8606,5.991,6.0441,5.9363,6.0793,6.1629,6.0524,6.133,6.201,6.201,6.201,6.1809,6.1346,6.117,6.0726,5.9848,5.9552,5.9337,5.9184,5.8464,5.8057,5.7967,5.7266,5.6837,5.6772,5.6131,5.534,5.4374,5.3484,5.195,4.9847,4.8629,4.7289,4.5825,4.4631,4.3936,4.3596,4.3596,4.3596,4.3637,4.4008,4.3925,4.3656,4.4008,4.4132,4.4132,4.4132,4.4443,4.4857,4.496,4.5312,4.5726,4.5934,4.6141,4.6307,4.6307,4.6307,4.6307,4.6307,4.6307,4.6286,4.6183,4.5933,4.5663,4.556,4.5456,4.5147,4.4443,4.4505,4.4443,4.3718,4.3306,4.2789,4.2018,4.1625,4.1162,4.0408,4.1088,4.1464,4.1106,4.1909,4.2361,4.2077,4.2423,4.257,4.2388,4.3289,4.3627,4.3299,4.4837,4.5872,4.6307,4.7589,4.8459,4.8936,4.9934,5.0294,5.0123,5.1284,5.1791,5.1813,5.2162,5.2467,5.2708,5.3451,5.3669,5.356,5.356,5.3779,5.4041,5.3691,5.4041,5.4696,5.6705,5.6765,5.6971,5.818,5.9382,5.9984,5.9452,6.0437,6.0859,5.9858,6.0497,6.0953,6.0687,6.1152,6.1211,6.059,6.087,6.0726,5.9803,5.9696,5.9586,5.9466,5.906,5.8738,5.8528,5.7939,5.7234,5.6426,5.5492,5.4432,5.3267,5.1817,5.012,4.8212,4.7033,4.5878,4.4781,4.3955,4.3596,4.3596,4.3596,4.3739,4.3906,4.3967,4.3967,4.3925,4.3967,4.4112,4.4298,4.4298,4.4753,4.5332,4.5332,4.5623,4.6017,4.6245,4.6307,4.6307,4.6307,4.6307,4.6307,4.6307,4.6307,4.6307,4.6307,4.6141,4.5954,4.5954,4.583,4.5477,4.4753,4.465,4.4381,4.343,4.3432,4.3086,4.1778,4.1934,4.1759,4.0601,4.1314,4.183,4.156,4.235,4.2807,4.2649,4.3102,4.3358,4.3279,4.4235,4.4628,4.4234,4.5562,4.6596,4.7237,4.8231,4.8728,4.8791,4.9871,5.0294,5.0123,5.1263,5.1791,5.1834,5.2314,5.2599,5.2883,5.3604,5.3888,5.3888,5.3888,5.4041,5.4237,5.3975,5.4215,5.4696,5.6082,5.6193,5.6488,5.775,5.8789,5.9576,5.9988,6.0135,5.9926,5.9278,5.9497,5.9509,5.9041,5.9989,6.0436,5.9878,6.0614,6.0833,6.0158,5.9939,5.9836,5.981,5.9552,5.9313,5.9116,5.8406,5.7251,5.5584,5.4163,5.2926,5.18,4.9748,4.7958,4.6463,4.5822,4.4819,4.3596,4.3698,4.3718,4.3699,4.3782,4.4049,4.436,4.3967,4.4029,4.4256,4.3946,4.4029,4.4319,4.4463,4.5022,4.5725,4.5768,4.6017,4.6307,4.6307,4.6307,4.6307,4.6307,4.6307,4.6307,4.6307,4.6307,4.6307,4.6307,4.6307,4.6307,4.6307,4.6079,4.5726,4.5188,4.4774,4.423,4.3358,4.3659,4.3453,4.1907,4.2334,4.2511,4.1705,4.2203,4.2596,4.2596,4.3344,4.3656,4.3244,4.3575,4.3987,4.4381,4.4981,4.5312,4.5312,4.6099,4.7155,4.848,4.8894,4.8936,4.8606,4.9829,5.023,4.9952,5.1219,5.1834,5.1922,5.2402,5.2817,5.3233,5.38,5.4237,5.4565,5.4565,5.4631,5.4696,5.4631,5.4631,5.4696,5.653,5.6149,5.6226,5.8428,5.896,5.9037,5.8875,5.9311,5.9201,5.7976,5.8347,5.8682,5.8581,5.9462,5.9891,5.9518,6.0459,6.0705,5.9757,5.965,5.9559,5.938,5.8885,5.8496,5.8301,5.7071,5.5411,5.3241,5.2427,5.0627,4.7863,4.6868,4.5599,4.4123,4.4012,4.3822,4.3635,4.4029,4.4194,4.4236,4.4629,4.4815,4.4877,4.4795,4.4588,4.4339,4.467,4.4567,4.4422,4.5228,4.558,4.5747,4.6099,4.6245,4.6307,4.6307,4.6307,4.6307,4.6307,4.6307,4.6307,4.6307,4.6307,4.6307,4.6307,4.6307,4.6307,4.6307,4.6555,4.6555,4.5726,4.5539,4.5309,4.4746,4.3515,4.2484,4.2145,4.2268,4.2191,4.1661,4.3013,4.3987,4.3987,4.4463,4.4753,4.467,4.4733,4.4815,4.4877,4.6037,4.6679,4.6679,4.7217,4.7983,4.8998,4.906,4.9231,4.951,5.0125,5.059,5.0905,5.1517,5.2009,5.2424,5.2883,5.3145,5.3255,5.4194,5.4346,5.4019,5.4019,5.4303,5.4653,5.4194,5.4303,5.4696,5.51,5.4867,5.4971,5.6396,5.6867,5.7114,5.7277,5.7554,5.7467,5.6798,5.7345,5.7662,5.73,5.8495,5.9284,5.9243,5.9887,6.0102,5.964,6.0116,6.0036,5.924,5.9093,5.8523,5.7413,5.5328,5.3572,5.2168,5.0144,4.8235,4.6393,4.521,4.4275,4.3596,4.3844,4.3987,4.4008,4.4484,4.467,4.4691,4.4898,4.5147,4.5353,4.5104,4.5022,4.5043,4.5002,4.5022,4.5105,4.556,4.585,4.6058,4.6245,4.6472,4.6638,4.6389,4.6307,4.6369,4.6617,4.6493,4.6431,4.6927,4.6658,4.6431,4.6948,4.6865,4.6741,4.6989,4.703,4.6782,4.6141,4.5643,4.5258,4.5055,4.3864,4.2988,4.2946,4.3203,4.3193,4.2714,4.3863,4.467,4.467,4.5084,4.5394,4.5394,4.5394,4.5685,4.6429,4.6803,4.7361,4.8107,4.8335,4.8645,4.9102,4.9102,4.9294,4.9699,5.0167,5.0654,5.1118,5.1863,5.2314,5.2555,5.3255,5.3582,5.3648,5.439,5.4543,5.4325,5.4325,5.4478,5.4675,5.4434,5.4478,5.4696,5.3948,5.39,5.4044,5.4837,5.539,5.5926,5.6441,5.6616,5.6551,5.6206,5.6655,5.6775,5.6136,5.7455,5.8466,5.8664,5.9157,5.9431,5.9342,6.0198,6.0119,5.8798,5.8743,5.7754,5.5667,5.3543,5.178,5.0351,4.7945,4.6263,4.5341,4.4268,4.3761,4.3782,4.4256,4.4463,4.4484,4.496,4.5147,4.5167,4.5271,4.5519,4.5788,4.5333,4.5394,4.5663,4.5291,4.5312,4.558,4.5768,4.6037,4.6327,4.6431,4.67,4.6948,4.67,4.6637,4.6679,4.6927,4.6886,4.6968,4.7672,4.732,4.6989,4.7713,4.7506,4.7258,4.7631,4.7424,4.7051,4.6679,4.5892,4.5307,4.5287,4.4329,4.365,4.376,4.3981,4.4119,4.4101,4.4815,4.5395,4.5602,4.5953,4.616,4.616,4.6264,4.6782,4.7817,4.7734,4.8148,4.9226,4.9164,4.9102,4.9102,4.9102,4.9358,4.987,5.0231,5.0696,5.1287,5.2123,5.2577,5.2708,5.3538,5.3953,5.4106,5.4521,5.4696,5.4696,5.4696,5.4696,5.4696,5.4696,5.4696,5.4696,5.4428,5.414,5.4284,5.5823,5.642,5.6867,5.7406,5.7883,5.777,5.6691,5.6504,5.6259,5.57,5.653,5.7201,5.7423,5.8492,5.8975,5.8593,5.917,5.8987,5.7773,5.6718,5.4886,5.2151,5.1879,4.9973,4.6341,4.61,4.521,4.3786,4.4107,4.4256,4.4277,4.4733,4.494,4.4981,4.5456,4.5663,4.5684,4.6058,4.6224,4.6203,4.5809,4.5663,4.5705,4.5663,4.5394,4.5167,4.5976,4.6286,4.6389,4.6803,4.6968,4.7092,4.7486,4.761,4.7506,4.7113,4.761,4.8252,4.8335,4.8293,4.8252,4.8335,4.7983,4.7672,4.7693,4.7672,4.7651,4.7589,4.6823,4.6208,4.6199,4.4734,4.3763,4.4188,4.3888,4.4123,4.5394,4.5934,4.6555,4.7424,4.7527,4.7548,4.7548,4.7962,4.8231,4.8335,4.9122,4.964,4.9744,4.933,4.9102,4.9102,4.9102,4.9529,5.0358,5.0379,5.0886,5.1771,5.2271,5.273,5.3189,5.367,5.4172,5.4653,5.4675,5.4696,5.4696,5.4696,5.4696,5.4696,5.4696,5.4696,5.4696,5.4383,5.4299,5.4447,5.5305,5.5573,5.576,5.5961,5.6137,5.6179,5.6004,5.6222,5.6284,5.5994,5.6585,5.7073,5.7297,5.772,5.7924,5.7774,5.7055,5.6268,5.5505,5.4234,5.2463,5.0137,4.9064,4.7682,4.5896,4.523,4.4602,4.4049,4.4505,4.4733,4.4753,4.5209,4.5435,4.5457,4.5892,4.6079,4.612,4.6555,4.6555,4.6327,4.6451,4.6327,4.6079,4.6079,4.5954,4.5872,4.6183,4.6493,4.6762,4.6948,4.7403,4.79,4.8086,4.8128,4.8107,4.792,4.7921,4.8107,4.8687,4.8397,4.8128,4.8687,4.8459,4.821,4.85,4.8335,4.8128,4.8128,4.7134,4.6489,4.7074,4.5417,4.4491,4.5789,4.5356,4.5312,4.6368,4.6886,4.7299,4.7672,4.7962,4.8252,4.8542,4.8728,4.906,4.9618,4.9743,4.9806,4.9806,4.935,4.9102,4.9102,4.9337,4.9764,5.04,5.0696,5.1333,5.2271,5.273,5.3211,5.3669,5.4172,5.45,5.4696,5.4696,5.4696,5.4696,5.4696,5.4696,5.4696,5.4696,5.4696,5.4696,5.4533,5.4589,5.4682,5.4948,5.5244,5.5435,5.5435,5.5695,5.5931,5.6035,5.6352,5.6303,5.5485,5.5745,5.5831,5.5447,5.5422,5.5422,5.5422,5.4228,5.3367,5.3037,5.2112,5.0633,4.8586,4.7424,4.642,4.5605,4.488,4.4526,4.4526,4.5002,4.5209,4.5229,4.5685,4.5892,4.5912,4.6183,4.6389,4.6534,4.67,4.6679,4.6534,4.672,4.6576,4.6307,4.6307,4.6389,4.6534,4.6534,4.6927,4.7444,4.7444,4.7982,4.8625,4.8625,4.8625,4.8625,4.8625,4.8376,4.8335,4.9122,4.8853,4.8521,4.9185,4.8957,4.8707,4.9018,4.8832,4.8625,4.8625,4.7713,4.7113,4.7631,4.6264,4.5623,4.703,4.6699,4.6658,4.7548,4.8065,4.8355,4.8355,4.877,4.9142,4.9494,4.9515,4.9701,5.0177,4.995,4.9723,4.9578,4.9267,4.9102,4.9102,4.9358,4.9827,5.0421,5.0889,5.1591,5.2533,5.3145,5.3604,5.3931,5.4478,5.4696,5.4696,5.4696,5.4696,5.4696,5.4696,5.4696,5.4696,5.4696,5.4696,5.4696,5.5004,5.5004,5.5004,5.5004,5.5763,5.6371,5.6371,5.7225,5.7637,5.7023,5.6948,5.6104,5.3929,5.367,5.3029,5.1428,5.1293,5.1293,5.1274,5.0796,5.0483,5.0483,5.046,4.9491,4.7343,4.7283,4.6556,4.5002,4.5002,4.5002,4.5021,4.5498,4.5705,4.5725,4.612,4.6307,4.6307,4.6286,4.6576,4.6968,4.6493,4.6596,4.6948,4.6493,4.6286,4.6307,4.6286,4.6596,4.6989,4.701,4.7631,4.8397,4.8397,4.8729,4.9102,4.9102,4.9102,4.9102,4.9102,4.9102,4.9226,4.9682,4.9785,4.9785,4.9785,4.9433,4.9102,4.9102,4.9102,4.9102,4.9102,4.8707,4.8252,4.7796,4.732,4.7175,4.7651,4.7713,4.8065,4.8998,4.9516,4.9806,4.9806,5.0156,5.0403,5.0403,5.0403,5.0218,4.9827,4.9785,4.9578,4.9122,4.9102,4.9102,4.9102,4.9102,4.955,5.04,5.089,5.1616,5.2555,5.3473,5.3888,5.3931,5.4478,5.4696,5.4696,5.4696,5.4696,5.4696,5.4696,5.4696,5.4696,5.4696,5.4696,5.4696,5.5374,5.5429,5.5521,5.5797,5.5096,5.4498,5.4498,5.3789,5.3209,5.3024,5.3001,5.2763,5.2103,5.2022,5.1831,5.1332,5.1293,5.0791,4.9626,4.9415,4.8778,4.7596,4.8335,4.7784,4.5723,4.5999,4.5785,4.5002,4.5332,4.5498,4.5518,4.5913,4.612,4.6141,4.6245,4.6307,4.6327,4.6658,4.6865,4.701,4.7217,4.7155,4.6989,4.6844,4.6596,4.6348,4.6679,4.6886,4.7051,4.7382,4.79,4.8459,4.877,4.8998,4.9102,4.9102,4.9102,4.9102,4.9102,4.9102,4.9143,4.9267,4.9309,4.9309,4.9309,4.9205,4.9102,4.9102,4.9102,4.9102,4.9102,4.8707,4.8459,4.8645,4.8293,4.8273,4.906,4.9163,4.937,4.9949,5.0135,5.0218,5.0218,5.032,5.0403,5.0403,5.0135,4.993,4.9806,4.9495,4.9225,4.9101,4.9102,4.9102,4.9102,4.9721,5.0315,5.089,5.1701,5.2561,5.3495,5.3757,5.4106,5.4478,5.4631,5.4696,5.4696,5.4696,5.4696,5.4696,5.4696,5.4696,5.4696,5.4696,5.4696,5.4696,5.5424,5.5528,5.5375,5.4966,5.4221,5.3482,5.2859,5.1927,5.1293,5.1293,5.1293,5.1043,5.0384,5.0306,5.0034,4.9391,4.9332,4.8899,4.787,4.781,4.7352,4.6347,4.6957,4.6762,4.554,4.5789,4.5789,4.5499,4.5789,4.5954,4.5954,4.6183,4.6307,4.6307,4.6307,4.6307,4.6327,4.6596,4.6927,4.7279,4.7361,4.7486,4.7527,4.7341,4.7092,4.6886,4.7175,4.7382,4.761,4.79,4.8293,4.877,4.9226,4.9247,4.9143,4.933,4.9247,4.9102,4.9102,4.9102,4.9102,4.9102,4.9102,4.9102,4.9102,4.9102,4.9102,4.9102,4.9102,4.9102,4.9102,4.8852,4.877,4.9039,4.8852,4.8935,4.9702,4.9929,5.0136,5.0362,5.0713,5.0879,5.0693,5.0672,5.0527,5.0177,4.9929,4.9723,4.9537,4.9267,4.9102,4.9102,4.9102,4.9102,4.9102,4.9953,5.0634,5.1102,5.2283,5.3191,5.391,5.4106,5.439,5.4696,5.4696,5.4696,5.4696,5.4696,5.4696,5.4696,5.4696,5.4696,5.4696,5.4696,5.4696,5.4696,5.5053,5.5142,5.4635,5.2993,5.2992,5.2783,5.1293,5.0946,5.085,5.085,5.085,5.0268,4.8741,4.8563,4.795,4.6448,4.6307,4.6307,4.6307,4.6307,4.6307,4.6307,4.6307,4.6307,4.6307,4.6307,4.6307,4.6307,4.6307,4.6307,4.6307,4.6307,4.6307,4.6307,4.6307,4.6307,4.6307,4.6348,4.6886,4.7651,4.7237,4.7589,4.8355,4.7879,4.7713,4.7713,4.7755,4.8045,4.8397,4.8438,4.8749,4.9163,4.9599,4.9454,4.9185,4.962,4.9433,4.9102,4.9102,4.9102,4.9102,4.9102,4.9102,4.9102,4.9102,4.9102,4.9102,4.9102,4.9102,4.9102,4.9102,4.9102,4.9122,4.9164,4.9184,4.9392,4.9847,5.0218,5.0465,5.0465,5.1169,5.1522,5.1065,5.1005,5.0653,4.9868,4.9765,4.9557,4.9101,4.9102,4.9102,4.9102,4.9102,4.9122,4.9164,5.003,5.0714,5.1187,5.2604,5.3516,5.3997,5.4478,5.4696,5.4696,5.4696,5.4696,5.4696,5.4696,5.4696,5.4696,5.4696,5.4696,5.4696,5.4696,5.4696,5.4696,5.3131,5.3181,5.2956,5.1367,5.0412,4.9741,4.9411,4.8228,4.7372,4.7372,4.7372,4.7252,4.6891,4.6851,4.669,4.6327,4.6307,4.6307,4.6307,4.6307,4.6307,4.6307,4.6307,4.6307,4.6307,4.6307,4.6307,4.6307,4.6307,4.6307,4.6307,4.6307,4.6307,4.6307,4.6307,4.6307,4.6327,4.67,4.7175,4.7693,4.7589,4.79,4.8355,4.7879,4.7713,4.7755,4.8107,4.8314,4.8459,4.8811,4.9019,4.9122,4.9226,4.9185,4.9122,4.9226,4.9185,4.9102,4.9102,4.9102,4.9102,4.9102,4.9102,4.9102,4.9102,4.9102,4.9102,4.9102,4.9102,4.9102,4.9102,4.9102,4.9226,4.9599,4.9908,5.028,5.0756,5.0901,5.0963,5.0963,5.0796,5.0651,5.0548,5.0281,5.0013,4.9806,4.9454,4.9226,4.9122,4.9102,4.9102,4.9102,4.9102,4.9288,4.964,5.0511,5.1199,5.1741,5.2755,5.369,5.4521,5.4653,5.4696,5.4696,5.4696,5.4696,5.4696,5.4696,5.4696,5.4696,5.4696,5.4696,5.4696,5.4696,5.4696,5.4696,5.0981,5.0912,5.0583,4.8975,4.8371,4.8022,4.7666,4.6871,4.6389,4.6596,4.6844,4.6886,4.6658,4.6638,4.6472,4.6058,4.6017,4.5913,4.5685,4.5892,4.6017,4.6017,4.6203,4.6203,4.6017,4.6203,4.6307,4.6307,4.6307,4.6307,4.6307,4.6099,4.6244,4.6617,4.6203,4.6368,4.6968,4.6989,4.7403,4.8024,4.8024,4.8314,4.8729,4.8459,4.8355,4.8397,4.8645,4.8728,4.877,4.9019,4.9102,4.9102,4.9102,4.9102,4.9102,4.9102,4.9102,4.9102,4.9102,4.9102,4.9102,4.9102,4.9102,4.9102,4.9102,4.9102,4.9102,4.9102,4.9102,4.9102,4.9102,4.9102,4.9267,4.9723,4.9971,5.0219,5.0447,5.0653,5.0694,5.0509,5.0446,5.032,5.0115,4.9909,4.9702,4.9495,4.9247,4.9102,4.9102,4.9102,4.9205,4.9433,4.9226,4.9412,5.0095,5.0542,5.1124,5.1859,5.2767,5.3574,5.432,5.432,5.4453,5.4696,5.4696,5.4696,5.4696,5.4696,5.4696,5.4696,5.4696,5.4696,5.4696,5.4696,5.4696,5.4696,4.8754,4.862,4.8151,4.6507,4.6718,4.6901,4.628,4.6265,4.6472,4.6927,4.7279,4.7341,4.7031,4.6865,4.6451,4.5663,4.558,4.5415,4.5042,4.5456,4.5663,4.558,4.6037,4.6141,4.5809,4.6223,4.6389,4.6307,4.6307,4.6307,4.6307,4.5975,4.6161,4.6761,4.6182,4.6533,4.7548,4.7258,4.7631,4.8397,4.8397,4.8625,4.8977,4.9081,4.906,4.8977,4.9081,4.9164,4.9226,4.9226,4.9226,4.9226,4.9226,4.9164,4.9102,4.9102,4.9102,4.9102,4.9102,4.9102,4.9102,4.9102,4.9102,4.9102,4.9102,4.9102,4.9102,4.9102,4.9102,4.9101,4.9205,4.9226,4.9371,4.9847,4.9888,4.9888,4.9888,5.0115,5.0177,4.9847,5.0011,5.0052,4.9723,4.9682,4.9516,4.9143,4.9102,4.9102,4.9102,4.9102,4.9288,4.9661,4.9309,4.9515,5.0382,5.0403,5.0872,5.1814,5.2592,5.3252,5.3766,5.3855,5.4143,5.4564,5.4652,5.4696,5.4696,5.4696,5.4696,5.4696,5.4696,5.4696,5.4696,5.4696,5.4696,5.4696,4.6633,4.6651,4.645,4.4875,4.5335,4.5901,4.5787,4.6079,4.6472,4.6927,4.67,4.6617,4.6968,4.6347,4.5664,4.5126,4.5084,4.5064,4.5002,4.5456,4.5518,4.5105,4.5872,4.6265,4.6224,4.6658,4.67,4.6307,4.6307,4.6307,4.6307,4.6245,4.6099,4.5892,4.6534,4.6906,4.7134,4.7465,4.7921,4.8397,4.8397,4.8438,4.8542,4.8957,4.8853,4.8542,4.8935,4.9371,4.9702,4.9702,4.9702,4.9702,4.9702,4.9433,4.9102,4.9102,4.9102,4.9102,4.9102,4.9102,4.9102,4.9102,4.9102,4.9102,4.9102,4.9102,4.9102,4.9102,4.9102,4.9226,4.964,4.9702,4.9826,5.0259,5.0322,5.0322,5.0322,5.0074,4.9868,4.9806,4.9474,4.9246,4.9205,4.9184,4.9185,4.9101,4.9102,4.9102,4.9102,4.9102,4.9143,4.9184,4.9143,4.9515,5.0382,5.0403,5.0882,5.1799,5.1929,5.2445,5.3297,5.3721,5.3943,5.4032,5.4497,5.4696,5.4696,5.4696,5.4696,5.4696,5.4696,5.4696,5.4696,5.4696,5.4696,5.4696,4.4913,4.4975,4.5084,4.4414,4.4857,4.5457,4.5954,4.6183,4.6472,4.6927,4.7051,4.7051,4.701,4.643,4.5644,4.4691,4.4836,4.5002,4.5002,4.5644,4.6058,4.612,4.6472,4.67,4.67,4.6886,4.6906,4.67,4.67,4.67,4.6679,4.6203,4.6409,4.7196,4.6782,4.7196,4.8169,4.8107,4.8355,4.877,4.85,4.8563,4.877,4.8728,4.8728,4.8832,4.933,4.9764,5.0116,4.9889,4.9806,4.9765,4.9495,4.9267,4.9102,4.9102,4.9102,4.9102,4.9102,4.9102,4.9102,4.9102,4.9102,4.9102,4.9102,4.9102,4.9102,4.9102,4.9309,4.9557,4.9765,4.9991,5.0197,5.0362,5.0403,5.0403,5.0403,5.0054,4.9702,4.9433,4.9226,4.9102,4.9102,4.9102,4.9102,4.9102,4.9102,4.9102,4.9102,4.9102,4.9226,4.9495,4.9247,4.9639,5.0775,5.0527,5.0858,5.1791,5.1791,5.2152,5.2827,5.3007,5.3387,5.3899,5.4165,5.4431,5.4696,5.4696,5.4696,5.4696,5.4696,5.4696,5.4696,5.4696,5.4696,5.4696]},{"header":{"parameterUnit":"m.s-1","parameterCategory":1,"la1":30.6,"la2":28.766,"lo1":-90.7593,"lo2":-88.6598,"dy":0.0162,"dx":0.0183,"nx":116,"ny":114,"refTime":"2023-10-30T06:00:00:Z","depth":0,"parameterNumber":3,"parameterNumberName":"V-component_of_WINDS"},"data":[0.0,0.0,0.0,0.0,0.0,0.0,0.0,0.0,0.0,0.0,0.0,0.0,0.0,0.0,0.0,0.0,0.0,0.0,0.0,0.0,0.0,0.0,0.0,0.0,0.0,0.0,0.0,0.0,0.0,0.0,0.0,0.0,0.0,0.0,0.0,0.0,0.0,0.0,0.0,0.0,0.0,0.0,0.0,0.0,0.0,0.0,0.0,0.0,0.0,0.0,0.0,0.0,0.0,0.0,0.0,0.0,0.0,0.0,0.0,0.0,0.0,0.0,0.0,0.0,0.0,0.0,0.0,0.0,0.0,0.0,0.0,0.0,0.0,0.0,0.0,0.0,0.0,0.0,0.0,0.0,0.0,0.0,0.0,0.0,0.0,0.0,0.0,0.0,0.0,0.0,0.0,0.0,0.0,0.0,0.0,0.0,0.0,0.0,0.0,0.0,0.0,0.0,0.0,0.0,0.0,0.0,0.0,0.0,0.0,0.0,0.0,0.0,0.0,0.0,0.0,0.0,0.0,0.0,0.0,0.0,0.0,0.0,0.0,0.0,0.0,0.0,0.0,0.0,0.0,0.0,0.0,0.0,0.0,0.0,0.0,0.0,0.0,0.0,0.0,0.0,0.0,0.0,0.0,0.0,0.0,0.0,0.0,0.0,0.0,0.0,0.0,0.0,0.0,0.0,0.0,0.0,0.0,0.0,0.0,0.0,0.0,0.0,0.0,0.0,0.0,0.0,0.0,0.0,0.0,0.0,0.0,0.0,0.0,0.0,0.0,0.0,0.0,0.0,0.0,0.0,0.0,0.0,0.0,0.0,0.0,0.0,0.0,0.0,0.0,0.0,0.0,0.0,0.0,0.0,0.0,0.0,0.0,0.0,0.0,0.0,0.0,0.0,0.0,0.0,0.0,0.0,0.0,0.0,0.0,0.0,0.0,0.0,0.0,0.0,0.0,0.0,0.0,0.0,0.0,0.0,0.0,0.0,0.0,0.0,0.0,0.0,0.0,0.0,0.0,0.0,0.0,0.0,0.0,0.0,0.0,0.0,0.0,0.0,0.0,0.0,0.0,0.0,0.0,0.0,0.0,0.0,0.0,0.0,0.0,0.0,0.0,0.0,0.0,0.0,0.0,0.0,0.0,0.0,0.0,0.0,0.0,0.0,0.0,0.0,0.0,0.0,0.0,0.0,0.0,0.0,0.0,0.0,0.0,0.0,0.0,0.0,0.0,0.0,0.0,0.0,0.0,0.0,0.0,0.0,0.0,0.0,0.0,0.0,0.0,0.0,0.0,0.0,0.0,0.0,0.0,0.0,0.0,0.0,0.0,0.0,0.0,0.0,0.0,0.0,0.0,0.0,0.0,0.0,0.0,0.0,0.0,0.0,0.0,0.0,0.0,0.0,0.0,0.0,0.0,0.0,0.0,0.0,0.0,0.0,0.0,0.0,0.0,0.0,0.0,0.0,0.0,0.0,0.0,0.0,0.0,0.0,0.0,0.0,0.0,0.0,0.0,0.0,0.0,0.0,0.0,0.0,0.0,0.0,0.0,0.0,0.0,0.0,0.0,0.0,0.0,0.0,0.0,0.0,0.0,0.0,0.0,0.0,0.0,0.0,0.0,0.0,0.0,0.0,0.0,0.0,0.0,0.0,0.0,0.0,0.0,0.0,0.0,0.0,0.0,0.0,0.0,0.0,0.0,0.0,0.0,0.0,0.0,0.0,0.0,0.0,0.0,0.0,0.0,0.0,0.0,0.0,0.0,0.0,0.0,0.0,0.0,0.0,0.0,0.0,0.0,0.0,0.0,0.0,0.0,0.0,0.0,0.0,0.0,0.0,0.0,0.0,0.0,0.0,0.0,0.0,0.0,0.0,0.0,0.0,0.0,0.0,0.0,0.0,0.0,0.0,0.0,0.0,0.0,0.0,0.0,0.0,0.0,0.0,0.0,0.0,0.0,0.0,0.0,0.0,0.0,0.0,0.0,0.0,0.0,0.0,0.0,0.0,0.0,0.0,0.0,0.0,0.0,0.0,0.0,0.0,0.0,0.0,0.0,0.0,0.0,0.0,0.0,0.0,0.0,0.0,0.0,0.0,0.0,0.0,0.0,0.0,0.0,0.0,0.0,0.0,0.0,0.0,0.0,0.0,0.0,0.0,0.0,0.0,0.0,0.0,0.0,0.0,0.0,0.0,0.0,0.0,0.0,0.0,0.0,0.0,0.0,0.0,0.0,0.0,0.0,0.0,0.0,0.0,0.0,0.0,0.0,0.0,0.0,0.0,0.0,0.0,0.0,0.0,0.0,0.0,0.0,0.0,0.0,0.0,0.0,0.0,0.0,0.0,0.0,0.0,0.0,0.0,0.0,0.0,0.0,0.0,0.0,0.0,0.0,0.0,0.0,0.0,0.0,0.0,0.0,0.0,0.0,0.0,0.0,0.0,0.0,0.0,0.0,0.0,0.0,0.0,0.0,0.0,0.0,0.0,0.0,0.0,0.0,0.0,0.0,0.0,0.0,0.0,0.0,0.0,0.0,0.0,0.0,0.0,0.0,0.0,0.0,0.0,0.0,0.0,0.0,0.0,0.0,0.0,0.0,0.0,0.0,0.0,0.0,0.0,0.0,0.0,0.0,0.0,0.0,0.0,0.0,0.0,0.0,0.0,0.0,0.0,0.0,0.0,0.0,0.0,0.0,0.0,0.0,0.0,0.0,0.0,0.0,0.0,0.0,0.0,0.0,0.0,0.0,0.0,0.0,0.0,0.0,0.0,0.0,0.0,0.0,0.0,0.0,0.0,0.0,0.0,0.0,0.0,0.0,0.0,0.0,0.0,0.0,0.0,0.0,0.0,0.0,0.0,0.0,0.0,0.0,0.0,0.0,0.0,0.0,0.0,0.0,0.0,0.0,0.0,0.0,0.0,0.0,0.0,0.0,0.0,0.0,0.0,0.0,0.0,0.0,0.0,0.0,0.0,0.0,0.0,0.0,0.0,0.0,0.0,0.0,0.0,0.0,0.0,0.0,0.0,0.0,0.0,0.0,0.0,0.0,0.0,0.0,0.0,0.0,0.0,0.0,0.0,0.0,0.0,0.0,0.0,0.0,0.0,0.0,0.0,0.0,0.0,0.0,0.0,0.0,0.0,0.0,0.0,0.0,0.0,0.0,0.0,0.0,0.0,0.0,0.0,0.0,0.0,0.0,0.0,0.0,0.0,0.0,0.0,0.0,0.0,0.0,0.0,0.0,0.0,0.0,0.0,0.0,0.0,0.0,0.0,0.0,0.0,0.0,0.0,0.0,0.0,0.0,0.0,0.0,0.0,0.0,0.0,0.0,0.0,0.0,0.0,0.0,0.0,0.0,0.0,0.0,0.0,0.0,0.0,0.0,0.0,0.0,0.0,0.0,0.0,0.0,0.0,0.0,0.0,0.0,0.0,0.0,0.0,0.0,0.0,0.0,0.0,0.0,0.0,0.0,0.0,0.0,0.0,0.0,0.0,0.0,0.0,0.0,0.0,0.0,0.0,0.0,0.0,0.0,0.0,0.0,0.0,0.0,0.0,0.0,0.0,0.0,0.0,0.0,0.0,0.0,0.0,0.0,0.0,0.0,0.0,0.0,0.0,0.0,0.0,0.0,0.0,0.0,0.0,0.0,0.0,0.0,0.0,0.0,0.0,0.0,0.0,0.0,0.0,0.0,0.0,0.0,0.0,0.0,0.0,0.0,0.0,0.0,0.0,0.0,0.0,0.0,0.0,0.0,0.0,0.0,0.0,0.0,0.0,0.0,0.0,0.0,0.0,0.0,0.0,0.0,0.0,0.0,0.0,0.0,0.0,0.0,0.0,0.0,0.0,0.0,0.0,0.0,0.0,0.0,0.0,0.0,0.0,0.0,0.0,0.0,0.0,0.0,0.0,0.0,0.0,0.0,0.0,0.0,0.0,0.0,0.0,0.0,0.0,0.0,0.0,0.0,0.0,0.0,0.0,0.0,0.0,0.0,0.0,0.0,0.0,0.0,0.0,0.0,0.0,0.0,0.0,0.0,0.0,0.0,0.0,0.0,0.0,0.0,0.0,0.0,0.0,0.0,0.0,0.0,0.0,0.0,0.0,0.0,0.0,0.0,0.0,0.0,0.0,0.0,0.0,0.0,0.0,0.0,0.0,0.0,0.0,0.0,0.0,0.0,0.0,0.0,0.0,0.0,0.0,0.0,0.0,0.0,0.0,0.0,0.0,0.0,0.0,0.0,0.0,0.0,0.0,0.0,0.0,0.0,0.0,0.0,0.0,0.0,0.0,0.0,0.0,0.0,0.0,0.0,0.0,0.0,0.0,0.0,0.0,0.0,0.0,0.0,0.0,0.0,0.0,0.0,0.0,0.0,0.0,0.0,0.0,0.0,0.0,0.0,0.0,0.0,0.0,0.0,0.0,0.0,0.0,0.0,0.0,0.0,0.0,0.0,0.0,0.0,0.0,0.0,0.0,0.0,0.0,0.0,0.0,0.0,0.0,0.0,0.0,0.0,0.0,0.0,0.0,0.0,0.0,0.0,0.0,0.0,0.0,0.0,0.0,0.0,0.0,0.0,0.0,0.0,0.0,0.0,0.0,0.0,0.0,0.0,0.0,0.0,0.0,0.0,0.0,0.0,0.0,0.0,0.0,0.0,0.0,0.0,0.0,0.0,0.0,0.0,0.0,0.0,0.0,0.0,0.0,0.0,0.0,0.0,0.0,0.0,0.0,0.0,0.0,0.0,0.0,0.0,0.0,0.0,0.0,0.0,0.0,0.0,0.0,0.0,0.0,0.0,0.0,0.0,0.0,0.0,0.0,0.0,0.0,0.0,0.0,0.0,0.0,0.0,0.0,0.0,0.0,0.0,0.0,0.0,0.0,0.0,0.0,0.0,0.0,0.0,0.0,0.0,0.0,0.0,0.0,0.0,0.0,0.0,0.0,0.0,0.0,0.0,0.0,0.0,0.0,0.0,0.0,0.0,0.0,0.0,0.0,0.0,0.0,0.0,0.0,0.0,0.0,0.0,0.0,0.0,0.0,0.0,0.0,0.0,0.0,0.0,0.0,0.0,0.0,0.0,0.0,0.0,0.0,0.0,0.0,0.0,0.0,0.0,0.0,0.0,0.0,0.0,0.0,0.0,0.0,0.0,0.0,0.0,0.0,0.0,0.0,0.0,0.0,0.0,0.0,0.0,0.0,0.0,0.0,0.0,0.0,0.0,0.0,0.0,0.0,0.0,0.0,0.0,0.0,0.0,0.0,0.0,0.0,0.0,0.0,0.0,0.0,0.0,0.0,0.0,0.0,0.0,0.0,0.0,0.0,0.0,0.0,0.0,0.0,0.0,0.0,0.0,0.0,0.0,0.0,0.0,0.0,0.0,0.0,0.0,0.0,0.0,0.0,0.0,0.0,0.0,0.0,0.0,0.0,0.0,0.0,0.0,0.0,0.0,0.0,0.0,0.0,0.0,0.0,0.0,0.0,0.0,0.0,0.0,0.0,0.0,0.0,0.0,0.0,0.0,0.0,0.0,0.0,0.0,0.0,0.0,0.0,0.0,0.0,0.0,0.0,0.0,0.0,0.0,0.0,0.0,0.0,0.0,0.0,0.0,0.0,0.0,0.0,0.0,0.0,0.0,0.0,0.0,0.0,0.0,0.0,0.0,0.0,0.0,0.0,0.0,0.0,0.0,0.0,0.0,0.0,0.0,0.0,0.0,0.0,0.0,0.0,0.0,0.0,0.0,0.0,0.0,0.0,0.0,0.0,0.0,0.0,0.0,0.0,0.0,0.0,0.0,0.0,0.0,0.0,0.0,0.0,0.0,0.0,0.0,0.0,0.0,0.0,0.0,0.0,0.0,0.0,0.0,0.0,0.0,0.0,0.0,0.0,0.0,0.0,0.0,0.0,0.0,0.0,0.0,0.0,0.0,0.0,0.0,0.0,0.0,0.0,0.0,0.0,0.0,0.0,0.0,0.0,0.0,0.0,0.0,0.0,0.0,0.0,0.0,0.0,0.0,0.0,0.0,0.0,0.0,0.0,0.0,0.0,0.0,0.0,0.0,0.0,0.0,0.0,0.0,0.0,0.0,0.0,0.0,0.0,0.0,0.0,2.9047,2.7173,0.0,0.0,0.0,0.0,0.0,0.0,0.0,0.0,0.0,0.0,0.0,0.0,0.0,0.0,0.0,0.0,0.0,0.0,0.0,0.0,0.0,0.0,0.0,0.0,0.0,0.0,0.0,0.0,0.0,0.0,0.0,0.0,0.0,0.0,0.0,0.0,0.0,0.0,0.0,0.0,0.0,0.0,0.0,0.0,0.0,0.0,0.0,0.0,0.0,0.0,0.0,0.0,0.0,0.0,0.0,0.0,0.0,0.0,0.0,0.0,0.0,0.0,0.0,0.0,0.0,0.0,0.0,0.0,0.0,0.0,0.0,0.0,0.0,0.0,0.0,0.0,0.0,0.0,0.0,0.0,0.0,0.0,0.0,0.0,0.0,0.0,0.0,0.0,0.0,0.0,0.0,0.0,0.0,0.0,0.0,0.0,0.0,0.0,0.0,0.0,0.0,0.0,0.0,0.0,0.0,0.0,0.0,0.0,0.0,0.0,0.0,0.0,0.0,0.0,3.448,3.1744,0.0,0.0,0.0,0.0,0.0,0.0,0.0,0.0,0.0,0.0,0.0,0.0,0.0,0.0,0.0,0.0,0.0,0.0,0.0,0.0,0.0,0.0,0.0,0.0,0.0,0.0,0.0,0.0,0.0,0.0,0.0,0.0,0.0,0.0,0.0,0.0,0.0,0.0,0.0,0.0,0.0,0.0,0.0,0.0,0.0,0.0,0.0,0.0,0.0,0.0,0.0,0.0,0.0,0.0,0.0,0.0,0.0,0.0,0.0,0.0,0.0,0.0,0.0,0.0,0.0,0.0,0.0,0.0,0.0,0.0,0.0,0.0,0.0,0.0,0.0,0.0,0.0,0.0,0.0,0.0,0.0,0.0,0.0,0.0,0.0,0.0,0.0,0.0,0.0,0.0,0.0,0.0,0.0,0.0,0.0,0.0,0.0,0.0,0.0,0.0,0.0,0.0,0.0,0.0,0.0,0.0,0.0,0.0,4.1374,4.2484,4.3219,4.3864,4.5438,4.7297,4.108,3.7994,3.7144,3.459,0.0,0.0,0.0,0.0,0.0,0.0,0.0,0.0,0.0,0.0,0.0,0.0,0.0,0.0,0.0,0.0,0.0,0.0,0.0,0.0,0.0,0.0,0.0,0.0,0.0,0.0,0.0,0.0,0.0,0.0,0.0,0.0,0.0,0.0,0.0,0.0,0.0,0.0,3.6589,3.8038,3.7994,3.6539,3.17,0.0,0.0,0.0,0.0,0.0,0.0,0.0,0.0,0.0,0.0,0.0,0.0,0.0,0.0,0.0,0.0,0.0,0.0,0.0,0.0,0.0,0.0,0.0,0.0,0.0,0.0,0.0,0.0,0.0,0.0,0.0,0.0,0.0,0.0,0.0,0.0,0.0,0.0,0.0,0.0,0.0,0.0,0.0,3.0246,3.0375,0.0,0.0,0.0,0.0,0.0,0.0,0.0,0.0,0.0,0.0,0.0,0.0,0.0,3.954,4.1855,4.4922,4.6359,4.6138,4.9383,5.0436,4.9506,5.0114,5.0918,5.1789,5.1292,0.0,4.2896,4.1178,0.0,0.0,0.0,0.0,0.0,0.0,0.0,0.0,0.0,0.0,0.0,0.0,0.0,0.0,0.0,0.0,0.0,0.0,0.0,0.0,0.0,0.0,0.0,0.0,0.0,0.0,0.0,0.0,0.0,0.0,0.0,0.0,0.0,0.0,0.0,0.0,3.7166,4.0695,4.293,4.4222,4.4662,4.4249,4.1896,3.8337,3.4005,3.1766,0.0,0.0,0.0,0.0,0.0,0.0,0.0,0.0,0.0,0.0,0.0,0.0,0.0,0.0,0.0,0.0,0.0,0.0,0.0,0.0,0.0,0.0,0.0,0.0,0.0,0.0,0.0,0.0,0.0,0.0,0.0,0.0,0.0,0.0,0.0,0.0,0.0,0.0,0.0,3.0022,3.1957,3.0532,3.1864,3.1733,0.0,0.0,0.0,0.0,0.0,0.0,0.0,0.0,0.0,4.2433,4.3865,4.5803,4.8408,5.0676,5.2372,5.3511,5.5808,5.6766,5.662,5.7216,5.7477,5.7434,5.7303,5.5078,5.1176,4.6731,4.2348,3.8167,0.0,0.0,0.0,0.0,3.5369,3.5964,0.0,0.0,0.0,0.0,0.0,0.0,0.0,0.0,0.0,0.0,0.0,0.0,0.0,0.0,0.0,3.2073,0.0,0.0,0.0,0.0,0.0,0.0,0.0,0.0,0.0,0.0,0.0,3.9451,4.3368,4.6642,4.9262,5.0383,5.0841,5.0781,5.0944,4.6465,3.8602,3.6309,3.4291,0.0,0.0,0.0,0.0,0.0,0.0,0.0,0.0,0.0,0.0,0.0,0.0,0.0,0.0,0.0,0.0,0.0,0.0,0.0,0.0,0.0,0.0,0.0,0.0,0.0,0.0,0.0,0.0,0.0,0.0,0.0,0.0,0.0,0.0,0.0,0.0,0.0,0.0,3.2441,3.4463,3.1934,3.519,3.583,0.0,0.0,0.0,0.0,0.0,0.0,4.1293,4.2961,4.5496,4.9087,5.0446,5.2465,5.5256,5.6374,5.8044,6.0249,6.1207,6.2006,6.2689,6.2964,6.2848,6.2354,6.1526,6.0264,5.8291,5.1973,4.7725,4.4888,4.1955,4.0283,3.9741,4.1081,4.1847,4.2653,0.0,0.0,0.0,0.0,0.0,0.0,0.0,0.0,0.0,0.0,0.0,0.0,0.0,0.0,3.4733,3.763,3.7058,3.6791,0.0,0.0,0.0,0.0,0.0,0.0,0.0,0.0,0.0,4.6403,4.9294,5.2454,5.5854,5.6552,5.6686,5.6416,5.7064,5.3589,4.6989,4.2509,3.9428,3.7119,0.0,0.0,0.0,0.0,0.0,0.0,0.0,0.0,0.0,0.0,0.0,0.0,0.0,0.0,0.0,0.0,0.0,0.0,0.0,0.0,0.0,0.0,0.0,0.0,0.0,0.0,0.0,0.0,0.0,0.0,0.0,0.0,0.0,0.0,0.0,0.0,0.0,0.0,0.0,3.7195,4.1133,0.0,0.0,0.0,0.0,4.0486,4.189,4.4657,4.9179,5.0062,5.2377,5.6627,5.8045,5.9987,6.2544,6.321,6.4181,6.5515,6.5573,6.5967,6.658,6.5996,6.5689,6.5602,6.4355,6.3442,6.2412,5.7132,5.2902,4.9534,4.8156,4.6852,4.5978,4.7822,4.8437,4.8721,0.0,0.0,0.0,0.0,0.0,0.0,0.0,0.0,0.0,0.0,0.0,0.0,0.0,3.6605,4.0718,4.3527,4.4533,4.405,4.1735,0.0,0.0,0.0,0.0,0.0,0.0,0.0,4.5588,5.1036,5.4135,5.7044,5.9717,5.9898,5.9882,5.9643,5.9824,5.8027,5.4557,5.002,4.6227,4.288,3.796,3.3882,0.0,0.0,0.0,0.0,0.0,0.0,0.0,0.0,0.0,0.0,0.0,0.0,0.0,0.0,0.0,0.0,0.0,0.0,0.0,0.0,0.0,0.0,0.0,0.0,0.0,0.0,0.0,0.0,0.0,0.0,0.0,0.0,0.0,0.0,0.0,0.0,0.0,4.2682,4.6871,0.0,4.43,4.4734,4.6004,4.7796,4.9836,5.2463,5.5822,5.7754,5.9843,6.2165,6.3516,6.4838,6.6173,6.6389,6.6924,6.7766,6.7766,6.7882,6.8114,6.7882,6.7331,6.6506,6.607,6.5286,6.4141,6.1875,5.8465,5.4535,5.2878,5.1693,5.1013,5.2124,5.2752,5.3249,0.0,0.0,0.0,0.0,0.0,0.0,0.0,0.0,0.0,0.0,0.0,3.1374,3.6033,4.1842,4.6572,4.945,5.0104,4.9102,4.62,0.0,0.0,0.0,3.5532,0.0,0.0,4.6139,5.0488,5.5288,5.8008,6.0404,6.2405,6.2154,6.2134,6.2316,6.2271,6.1773,6.0753,5.7081,5.2655,4.7716,4.3105,3.9626,3.6615,0.0,0.0,0.0,0.0,0.0,0.0,0.0,0.0,0.0,0.0,0.0,0.0,0.0,0.0,0.0,0.0,0.0,0.0,0.0,0.0,0.0,0.0,0.0,0.0,0.0,0.0,0.0,0.0,0.0,0.0,0.0,0.0,0.0,0.0,4.3109,4.8106,4.7651,5.2536,5.4633,5.1334,5.2073,5.3541,5.541,5.747,5.9684,6.2064,6.3821,6.5302,6.658,6.7422,6.8206,6.8828,6.8828,6.9147,6.9786,6.9786,6.9885,7.0071,6.9718,6.9117,6.8294,6.7726,6.6879,6.584,6.4987,6.2705,5.9604,5.7425,5.6324,5.5934,5.604,5.6344,5.6762,0.0,0.0,0.0,0.0,0.0,0.0,0.0,0.0,0.0,0.0,2.8771,3.4315,4.052,4.6945,5.2062,5.5184,5.311,5.1369,5.0743,4.3681,0.0,0.0,0.0,0.0,4.6554,5.0923,5.5172,5.931,6.0925,6.2523,6.404,6.3485,6.3686,6.4564,6.4564,6.4926,6.5392,6.3448,5.8534,5.1722,4.7462,4.5396,4.4174,0.0,0.0,0.0,0.0,0.0,0.0,0.0,0.0,0.0,0.0,0.0,0.0,0.0,0.0,0.0,0.0,0.0,0.0,0.0,0.0,0.0,0.0,0.0,0.0,0.0,0.0,0.0,0.0,0.0,0.0,0.0,0.0,0.0,4.1654,4.8437,5.3159,5.2231,5.8147,6.0857,5.7203,5.9021,6.1222,6.3138,6.4431,6.5999,6.7916,6.8032,6.8612,6.9861,6.989,7.018,7.0784,7.0784,7.1075,7.1719,7.1719,7.2003,7.2559,7.1566,7.1111,7.1007,6.9355,6.8312,6.7673,6.6383,6.5481,6.463,6.188,6.0781,6.0665,5.9713,5.9348,5.932,0.0,0.0,0.0,0.0,0.0,0.0,0.0,0.0,0.0,0.0,3.1139,3.7516,4.2642,4.9339,5.4342,5.6564,5.4065,5.1892,5.0912,0.0,0.0,0.0,0.0,0.0,5.2318,5.6246,5.9318,6.1524,6.3676,6.4846,6.5072,6.5438,6.5561,6.5622,6.6117,6.6147,6.5832,6.5263,6.3333,6.0054,5.3652,4.9528,4.6594,0.0,0.0,0.0,0.0,0.0,0.0,0.0,0.0,0.0,0.0,0.0,0.0,0.0,0.0,0.0,0.0,0.0,0.0,0.0,0.0,0.0,0.0,0.0,0.0,0.0,0.0,0.0,0.0,0.0,0.0,0.0,4.423,4.8201,4.8548,5.4204,5.9222,6.1713,6.4554,6.5898,6.4884,6.5386,6.6202,6.7157,6.8015,6.9106,7.0558,7.0662,7.1226,7.2515,7.2079,7.2137,7.2787,7.2323,7.2053,7.1977,7.1977,7.2133,7.2418,7.1707,7.1348,7.1272,7.0364,6.9661,6.9004,6.8169,6.7439,6.6645,6.4058,6.2746,6.239,6.2549,6.2317,6.1905,0.0,0.0,0.0,0.0,0.0,0.0,0.0,0.0,0.0,0.0,3.2908,3.9617,4.4989,5.1149,5.5527,5.7073,5.4173,5.1523,4.9742,0.0,0.0,0.0,0.0,5.2587,5.6794,5.9723,6.2086,6.3914,6.5267,6.601,6.6147,6.6538,6.6778,6.6849,6.7254,6.7373,6.7238,6.6969,6.6386,6.5248,6.0489,5.6739,5.3343,4.7788,4.5213,4.4043,4.022,3.8314,3.7322,3.5119,0.0,0.0,0.0,0.0,0.0,0.0,0.0,0.0,0.0,0.0,0.0,0.0,0.0,0.0,0.0,0.0,0.0,0.0,0.0,0.0,0.0,0.0,0.0,0.0,5.0652,5.5265,5.7933,6.1,6.4125,6.7157,6.8915,6.9873,6.9873,7.0105,7.0424,7.0784,7.1411,7.2008,7.2601,7.282,7.3085,7.3455,7.3255,7.3244,7.3455,7.308,7.2798,7.2598,7.2598,7.267,7.2745,7.198,7.1603,7.151,7.0738,7.006,6.9482,6.9095,6.8567,6.7808,0.0,0.0,0.0,0.0,6.3264,6.2867,0.0,0.0,0.0,0.0,0.0,0.0,0.0,0.0,0.0,0.0,0.0,4.0607,4.6796,5.202,5.5508,5.6618,5.3508,5.0414,0.0,0.0,4.5907,4.982,5.2564,5.6048,6.0378,6.2249,6.4208,6.6386,6.64,6.6789,6.7433,6.7433,6.7792,6.8437,6.8437,6.872,6.9183,6.866,6.8317,6.8002,6.6819,6.4695,6.1542,5.5303,5.3195,5.2945,4.8696,4.4904,4.1803,4.0732,0.0,0.0,0.0,0.0,0.0,0.0,0.0,0.0,0.0,0.0,0.0,0.0,0.0,0.0,0.0,0.0,0.0,0.0,0.0,0.0,0.0,0.0,0.0,0.0,5.7283,6.2616,6.7712,6.7916,6.8206,7.0006,7.1724,7.2762,7.2816,7.3266,7.3578,7.3614,7.4071,7.4235,7.3952,7.4263,0.0,0.0,0.0,7.3766,7.3431,7.3402,7.3355,7.3242,7.3242,7.3252,7.3253,7.2272,7.1849,7.1802,7.0818,7.0051,6.9489,6.9489,6.9142,6.8391,6.6267,6.5216,6.4729,6.3548,6.3206,6.3235,0.0,0.0,0.0,0.0,0.0,0.0,0.0,0.0,0.0,2.7563,3.3882,3.9872,4.492,5.0071,5.3456,5.4206,5.1377,4.8624,0.0,4.7519,4.9862,5.3511,5.7553,6.1024,6.3862,6.6099,6.7742,6.8749,6.9024,6.9496,7.0141,7.0141,7.05,7.1145,7.1145,7.0935,7.056,7.0965,7.0247,6.8764,6.8525,6.6206,6.2587,5.9831,5.7669,5.564,5.2285,5.1067,5.0464,4.6444,4.4721,4.362,3.9927,0.0,0.0,0.0,0.0,0.0,0.0,0.0,0.0,0.0,0.0,0.0,0.0,0.0,0.0,0.0,0.0,0.0,0.0,0.0,0.0,5.6392,6.1457,6.6402,7.1046,7.1568,7.1847,7.2776,7.3338,7.3804,7.4198,7.367,7.3498,7.3812,7.3668,7.3732,7.422,7.3808,7.3942,7.4811,7.4401,7.4116,7.4088,7.4088,7.3661,7.2811,7.2811,0.0,7.3119,7.2423,7.2104,7.2076,7.1334,7.0679,7.0135,7.0135,6.977,6.903,6.7105,6.6915,6.745,6.5242,6.5067,6.5724,0.0,0.0,0.0,0.0,0.0,0.0,0.0,0.0,0.0,0.0,3.2053,3.7089,4.1513,4.5396,4.7763,4.806,4.6476,0.0,4.6263,4.9599,5.3574,5.8104,6.1882,6.4897,6.7094,6.8509,6.969,7.0651,7.082,7.1248,7.189,7.189,7.2086,7.2385,7.2385,7.2026,7.1427,7.2116,7.1457,6.9991,7.032,6.89,6.6311,6.404,6.2244,6.0563,5.7917,5.6413,5.5234,5.2187,5.0357,4.8856,4.5966,4.2789,3.9479,0.0,0.0,0.0,0.0,0.0,0.0,0.0,0.0,0.0,0.0,0.0,0.0,0.0,0.0,4.4675,4.8377,0.0,5.7687,6.2778,6.652,6.9845,7.2836,7.4718,7.5409,7.4366,7.4617,7.4602,7.4016,7.4705,7.4897,7.4169,7.4863,7.5409,7.5535,7.5506,7.5724,7.6281,7.6164,7.5801,7.5221,7.5956,7.5717,7.4392,7.444,7.4344,7.4124,7.2818,7.2206,7.215,7.1175,7.0566,7.0304,7.0304,7.0135,6.9714,6.8496,6.8215,6.8299,6.6725,6.6511,6.6876,0.0,0.0,0.0,0.0,0.0,0.0,0.0,0.0,0.0,0.0,3.003,3.3993,3.7755,4.0371,4.1747,0.0,0.0,4.3777,4.6987,5.1918,5.7103,6.247,6.5573,6.8088,7.0027,7.0389,7.1204,7.2491,7.2342,7.2624,7.3283,7.3163,7.3146,7.3266,7.3146,7.2804,7.2342,7.3013,7.2488,7.1338,7.1876,7.1414,7.0097,6.7687,6.6199,6.5129,6.3085,6.0472,5.7856,5.6589,5.454,5.224,5.0809,4.8048,4.4582,4.0771,3.8556,0.0,0.0,0.0,0.0,0.0,0.0,0.0,0.0,3.8463,4.0844,4.4509,4.7645,5.1257,5.6229,5.9588,6.3351,6.8625,7.1075,7.2951,7.4742,7.7367,7.8307,7.6315,7.6394,7.6068,7.4671,7.6253,7.6692,7.5153,7.6605,7.7403,7.6924,7.7466,7.772,7.7594,7.8024,7.7701,7.6558,7.7752,7.7752,7.6539,7.6329,7.6013,7.5584,7.3804,7.2877,7.2575,7.1136,7.0508,7.0473,7.036,7.0304,7.0248,6.977,6.9283,6.8749,6.7831,6.7663,6.7691,0.0,0.0,0.0,0.0,0.0,0.0,0.0,0.0,0.0,0.0,0.0,0.0,0.0,0.0,0.0,0.0,4.1835,4.5629,4.8802,5.4853,6.0474,6.5338,6.8372,7.0747,7.2465,7.2535,7.3223,7.4557,7.3958,7.4018,7.4646,7.4078,7.4108,7.4646,7.4031,7.3732,7.3702,7.4377,7.3881,7.2668,7.2757,7.2355,7.1534,7.0097,6.8404,6.6576,6.516,6.2144,5.8682,5.7526,5.5721,5.3779,5.2659,5.0621,4.7962,4.4429,4.0952,3.7825,3.5856,3.576,3.6638,3.8417,3.9551,4.1727,0.0,4.9095,5.0392,5.4108,5.692,5.9636,6.2516,6.5229,6.8094,7.1386,7.3335,7.5503,7.8532,7.914,7.9502,8.0143,7.9821,7.937,7.8941,7.852,7.8068,7.7624,7.7999,7.802,7.7372,7.7951,7.8309,7.8291,7.8843,7.8833,7.8137,7.8253,7.8253,7.8137,7.6939,7.6669,7.7122,7.6313,7.5331,7.4148,7.2194,7.1279,7.1072,7.051,7.0304,7.0304,7.0248,7.0164,6.9883,6.814,6.8225,6.8927,0.0,0.0,0.0,0.0,0.0,0.0,0.0,0.0,0.0,0.0,0.0,0.0,0.0,0.0,0.0,3.3587,3.8989,4.4341,4.8952,5.6095,6.2789,6.8651,7.0806,7.3092,7.5751,7.4662,7.5113,7.7221,7.5385,7.5011,7.606,7.4977,7.4616,7.4886,7.4616,7.4257,7.3941,7.4616,7.4138,7.2907,7.2907,7.2265,7.1128,6.9468,6.7174,6.4589,6.2744,6.0282,0.0,0.0,5.4353,5.3639,5.3525,5.1616,4.8763,4.5339,4.2987,4.1411,4.1112,4.0888,4.1283,4.3365,4.608,4.9062,5.2257,5.4417,5.6585,5.9651,6.2631,6.5344,6.7505,6.9811,7.2198,7.4695,7.6401,7.7856,7.9094,8.0566,8.0899,7.9176,7.9875,7.9905,7.8454,7.8696,7.8397,7.7172,7.8642,7.9505,7.928,7.9236,7.9924,8.145,8.0633,8.0198,8.0179,8.0689,8.0463,7.9604,7.9095,7.8792,7.8626,7.7133,7.5542,7.3937,7.3078,7.2445,7.2058,7.2584,7.2782,7.287,7.3675,7.3991,7.3532,6.9936,6.9707,7.0986,0.0,0.0,0.0,0.0,0.0,0.0,0.0,0.0,0.0,0.0,0.0,0.0,0.0,0.0,2.9285,3.0631,3.6353,4.2391,4.8232,5.589,6.3232,7.0013,7.2162,7.4398,7.7007,7.6368,7.658,7.7802,7.6213,7.5759,7.6313,7.535,7.4886,7.4886,7.4886,7.4616,7.4227,7.4676,7.4347,7.3402,7.2864,7.1936,7.0603,6.7966,6.4947,6.1909,6.0122,5.7607,0.0,0.0,5.1477,5.1292,5.1702,5.034,4.8096,4.5541,4.4045,4.3433,4.4221,4.4947,4.6033,4.8434,5.2357,5.5949,5.7186,5.9745,6.2593,6.5237,6.7765,7.0115,7.2128,7.3474,7.5017,7.7309,7.8516,7.9336,7.9712,8.1283,8.1297,7.8308,7.8832,7.8801,7.7158,7.8463,7.9078,7.8237,7.9853,8.0962,8.1178,8.0825,8.1553,8.3628,8.1972,8.141,8.2117,8.2186,8.1876,8.1121,8.0804,8.0497,8.0152,7.8483,7.6704,7.4986,7.5028,7.4608,7.4024,7.4813,7.5133,7.5251,7.6208,7.6601,7.6179,7.2658,7.2338,7.3443,0.0,0.0,0.0,0.0,0.0,0.0,0.0,0.0,0.0,0.0,0.0,0.0,0.0,0.0,2.7766,3.0204,3.4871,4.0399,4.6747,5.3898,6.1096,6.8245,7.1983,7.422,7.4967,7.7496,7.7544,7.5023,7.623,7.618,7.4954,7.492,7.4886,7.4886,7.4886,7.4886,7.4856,7.4886,7.4886,7.4676,7.2731,7.1517,7.0422,6.5999,6.2204,5.9127,5.8408,0.0,0.0,4.8309,4.6987,4.603,4.6065,4.6068,4.6003,4.5447,4.3781,4.2386,4.353,4.6437,4.9968,5.3486,5.7696,6.1612,6.4123,6.6672,6.9271,7.1956,7.3066,7.4244,7.6557,7.6047,7.6106,7.8725,7.8995,7.9577,8.1455,8.1047,8.0109,7.8901,7.7155,7.6018,7.5966,7.828,8.057,8.2461,8.2091,8.2032,8.2709,8.2728,8.3027,8.3688,8.2439,8.2361,8.3639,8.1792,8.1482,8.2709,8.1403,8.1115,8.1729,8.104,7.9925,7.8473,7.8591,7.8156,7.7326,7.678,7.6552,7.6552,7.6585,7.6601,7.6585,7.644,7.6423,7.6304,0.0,0.0,0.0,0.0,0.0,0.0,0.0,0.0,0.0,0.0,0.0,0.0,0.0,0.0,0.0,0.0,3.3818,3.8717,4.403,5.2173,5.9344,6.5084,7.066,7.4421,7.6128,7.7488,7.8153,7.8169,7.7295,7.6677,7.6197,7.5316,7.4886,7.4886,7.4886,7.4886,7.4856,7.4437,7.4257,7.3988,7.1128,6.9319,6.7866,6.3074,5.8063,5.3215,0.0,0.0,0.0,4.3268,4.2345,4.2144,4.2504,4.2442,4.2118,4.1194,4.2267,4.4385,4.7267,5.1244,5.5729,6.036,6.4571,6.821,7.0367,7.2579,7.4295,7.4711,7.353,7.2555,7.2882,7.2886,7.3599,7.5919,7.8345,8.039,8.1639,8.1914,8.0872,7.7779,7.6887,7.6305,7.5814,7.6628,7.8041,8.0004,8.0752,8.162,8.2747,8.2387,8.2619,8.3658,8.2907,8.2687,8.3117,8.2839,8.3007,8.3527,8.4063,8.4186,8.3959,8.3273,8.1951,8.0159,7.9709,7.9099,7.8469,7.9159,7.9466,7.9543,8.0423,8.0766,8.0766,8.0766,8.0766,8.0458,0.0,0.0,0.0,0.0,0.0,0.0,0.0,0.0,0.0,0.0,0.0,0.0,0.0,0.0,0.0,0.0,0.0,3.7067,4.1558,4.8486,5.4673,5.9812,6.4573,6.8076,7.0202,7.1172,7.2219,7.3322,7.2794,7.2688,7.2995,7.2349,7.2192,7.2432,7.2671,7.291,7.3073,7.2199,7.155,7.0805,6.7101,6.4539,6.2394,5.7423,5.2324,0.0,0.0,0.0,3.9698,3.8602,3.8608,3.9103,3.9207,4.0156,4.1161,4.1125,4.3887,4.7979,5.2544,5.7003,6.1596,6.6616,7.0301,7.3138,7.4824,7.6085,7.6614,7.5837,7.3445,7.1249,7.0353,6.9928,7.0535,7.3174,7.5743,7.8161,8.0378,8.0658,7.9745,7.7394,7.6971,7.6691,7.6191,7.6441,7.7653,8.0071,8.0851,8.191,8.3482,8.3149,8.3422,8.4491,8.3663,8.384,8.5102,8.4643,8.4447,8.4524,8.5595,8.5766,8.5107,8.4843,8.3912,8.2414,8.1684,8.1113,8.0786,8.1366,8.1625,8.1712,8.2571,8.2883,8.2883,8.2883,8.2883,8.2661,0.0,0.0,0.0,0.0,0.0,0.0,0.0,0.0,0.0,0.0,0.0,0.0,0.0,0.0,0.0,0.0,0.0,0.0,3.9211,4.3089,4.7531,5.2673,5.4645,5.6444,5.8248,5.9812,6.0914,6.1523,6.3501,6.4856,6.5577,6.622,6.6863,6.7507,6.8133,6.8761,6.9297,6.8056,6.6798,6.5291,6.0867,5.7473,5.4539,4.9628,0.0,0.0,0.0,0.0,3.3514,3.4682,3.6053,3.7182,3.671,3.9497,4.333,4.524,4.8667,5.3139,5.8969,6.3427,6.7516,7.2113,7.4676,7.6385,7.7543,7.7291,7.6467,7.5393,7.271,7.0143,6.878,6.7171,6.7147,7.0605,7.1764,7.3793,7.836,7.7976,7.747,7.8178,7.7748,7.7339,7.7229,7.7799,7.9524,8.2837,8.2423,8.2961,8.4981,8.5109,8.5423,8.607,8.4899,8.5863,8.9164,8.6979,8.5879,8.5841,8.6128,8.5955,8.5342,8.5905,8.5801,8.5115,8.4379,8.4043,8.3943,8.3248,8.2916,8.2883,8.2883,8.2883,8.2883,8.2883,8.2883,8.2883,0.0,0.0,0.0,0.0,0.0,0.0,0.0,0.0,0.0,0.0,0.0,0.0,0.0,0.0,0.0,0.0,0.0,0.0,3.4885,4.0097,4.3996,4.6066,5.2323,5.5568,5.5222,5.8951,6.036,5.9253,6.0801,6.0974,5.9893,6.0084,6.0231,6.0422,6.0584,6.0746,6.0849,6.0029,5.9222,5.8224,0.0,5.2439,5.0339,0.0,0.0,0.0,0.0,3.6518,3.4063,3.4675,3.7034,4.0044,4.2024,4.4924,4.8106,5.061,5.5134,6.0209,6.4171,6.8538,7.2682,7.5796,7.7394,7.8221,7.8255,7.743,7.5822,7.2866,6.8197,6.3907,6.1626,6.2544,6.4597,6.7451,7.3524,7.9036,8.2257,8.3763,8.4216,8.3371,8.2747,8.2127,8.156,8.0835,8.1809,8.5163,8.3765,8.4139,8.7266,8.6934,8.6746,8.6938,8.7594,8.7914,8.7797,8.8247,8.8717,8.9232,8.878,8.8472,8.8274,8.7385,8.6597,8.5884,8.5123,8.4506,8.401,8.3811,8.3413,8.2883,8.2883,8.2883,8.2883,8.2883,8.2883,8.2883,0.0,0.0,0.0,0.0,0.0,0.0,0.0,0.0,0.0,0.0,0.0,0.0,0.0,0.0,0.0,0.0,0.0,0.0,0.0,3.6216,3.8911,4.0149,4.4224,4.6578,4.6915,4.8888,5.0214,5.076,0.0,0.0,5.2268,5.2573,5.2878,5.3155,5.346,5.3899,5.4328,5.3147,0.0,0.0,0.0,0.0,0.0,0.0,0.0,0.0,0.0,3.614,3.6263,3.8018,4.053,4.3531,4.7234,5.0872,5.4421,5.7971,6.2396,6.6845,7.0093,7.4175,7.7724,7.8603,7.9472,7.939,7.6429,7.4686,7.2142,6.6691,6.2464,5.8883,5.6123,5.8145,6.1596,6.5686,7.2045,7.8367,8.3819,8.5587,8.6471,8.692,8.6694,8.6188,8.5466,8.5043,8.5601,8.7526,8.5678,8.5577,8.8164,8.8196,8.8181,8.8215,8.8963,8.9217,8.8983,9.0213,9.0651,9.0261,8.969,8.956,8.9825,8.8099,8.7403,8.7503,8.5832,8.4856,8.4473,8.4142,8.3579,8.2883,8.2883,8.2883,8.2883,8.2883,8.2883,8.2883,0.0,0.0,0.0,0.0,0.0,0.0,0.0,0.0,0.0,0.0,0.0,0.0,0.0,0.0,0.0,0.0,0.0,0.0,0.0,0.0,0.0,3.5264,3.4843,3.5458,3.7366,3.6468,3.7441,4.0423,4.104,4.2291,0.0,0.0,0.0,0.0,0.0,0.0,0.0,0.0,0.0,0.0,0.0,0.0,0.0,0.0,0.0,0.0,3.338,3.5331,3.8622,4.2806,4.5455,4.7822,5.2687,5.7236,6.1675,6.6153,6.9851,7.313,7.6109,7.9525,8.1977,8.0677,8.0727,7.9515,7.3562,7.0501,6.6808,5.9349,5.6607,5.4699,5.1977,5.4424,5.8871,6.5104,6.9739,7.5683,8.467,8.5987,8.7066,8.9805,9.0049,8.9725,8.9096,8.9526,8.9891,8.999,8.8208,8.7644,8.8814,8.9497,8.9821,8.9821,8.9821,9.0359,9.1468,9.2298,9.1918,9.0349,8.972,8.9725,9.0288,8.8232,8.7967,8.8963,8.6494,8.5287,8.5055,8.4506,8.3745,8.2916,8.3016,8.2983,8.2883,8.2883,8.2883,8.2883,0.0,0.0,0.0,0.0,0.0,0.0,0.0,0.0,0.0,0.0,2.4042,2.3717,0.0,0.0,0.0,0.0,0.0,0.0,0.0,0.0,0.0,0.0,3.443,3.5249,3.5789,3.6599,3.7157,3.7453,3.8112,3.8425,0.0,0.0,0.0,0.0,0.0,0.0,0.0,0.0,0.0,0.0,0.0,0.0,0.0,0.0,0.0,0.0,3.3874,3.4977,3.7445,4.5311,5.0274,5.4066,5.9335,6.4218,6.8825,7.2997,7.6301,7.8934,8.0612,8.2367,8.3429,8.2077,8.0011,7.7023,7.2239,6.7324,6.2071,5.6007,5.302,5.1029,4.9535,5.2897,5.8419,6.6072,7.1936,7.8864,8.835,9.0146,9.137,9.366,9.3406,9.2987,9.2854,9.2391,9.2358,9.2987,9.2135,9.1678,9.1926,9.2059,9.2125,9.2125,9.2125,9.2501,9.3305,9.2905,9.2541,9.2213,9.0306,8.946,8.9526,8.8,8.7437,8.7635,8.7138,8.6229,8.5121,8.5614,8.4653,8.295,8.3579,8.3446,8.2883,8.2883,8.2883,8.2883,0.0,0.0,0.0,0.0,0.0,0.0,0.0,2.267,2.4377,2.75,2.7259,2.6721,2.6502,2.6534,0.0,0.0,0.0,0.0,0.0,0.0,0.0,0.0,0.0,0.0,3.4142,3.4855,3.5125,3.4928,0.0,3.5308,3.5058,3.5058,3.5058,3.5058,3.4975,3.5097,3.5339,3.4836,0.0,3.4357,3.4111,3.3542,0.0,0.0,0.0,0.0,0.0,3.5522,3.8089,4.3809,4.9994,5.6537,6.372,6.9445,7.4165,7.7551,8.0261,8.2464,8.3818,8.5173,8.5536,8.259,8.0103,7.6288,6.8215,6.2821,5.7552,5.0574,4.8488,4.7722,4.7136,5.1233,5.6766,6.3029,6.8769,7.5854,8.5646,8.8036,9.0319,9.4411,9.4577,9.4378,9.4378,9.4047,9.3815,9.3782,9.3815,9.3517,9.2738,9.234,9.2141,9.2141,9.2506,9.2705,9.2671,9.2671,9.2506,9.2108,9.0271,8.9791,9.0469,8.8647,8.825,8.8912,8.815,8.7223,8.6244,8.6225,8.5349,8.4028,8.401,8.3778,8.3413,8.3049,8.2883,8.2883,0.0,0.0,0.0,0.0,0.0,0.0,0.0,2.4017,2.5708,3.0128,3.0622,3.0234,2.9459,2.8291,2.749,0.0,0.0,0.0,0.0,0.0,0.0,0.0,0.0,0.0,3.2935,0.0,0.0,3.3157,3.3157,0.0,0.0,0.0,0.0,0.0,3.289,3.3006,3.3403,3.2581,3.2381,0.0,0.0,3.2244,3.198,0.0,0.0,0.0,0.0,3.561,3.8183,4.1901,4.7906,5.5198,6.3379,7.0405,7.609,7.8673,8.1411,8.4012,8.5635,8.7038,8.7049,8.2849,7.9851,7.5106,6.4433,5.8784,5.3641,4.6063,4.4927,4.5407,4.5652,4.9569,5.4618,6.0301,6.4839,7.1383,8.2132,8.5006,8.8128,9.3982,9.5074,9.5306,9.514,9.5273,9.5074,9.4312,9.4511,9.408,9.2771,9.2141,9.1744,9.1611,9.2174,9.2174,9.1611,9.2174,9.2174,9.1578,9.0255,9.0222,9.1313,8.9409,8.9096,8.9957,8.8798,8.7819,8.7021,8.6623,8.5813,8.4823,8.4407,8.4028,8.3711,8.3115,8.2883,8.2883,0.0,0.0,0.0,0.0,0.0,0.0,0.0,2.4284,2.7344,3.1735,3.1923,3.1701,3.1863,3.0423,2.8652,0.0,0.0,0.0,0.0,0.0,0.0,0.0,0.0,0.0,0.0,0.0,0.0,3.2757,3.2757,0.0,0.0,0.0,0.0,0.0,0.0,3.1946,3.1936,3.1127,0.0,0.0,0.0,0.0,0.0,0.0,0.0,0.0,0.0,3.4049,3.5689,4.217,4.5645,4.8303,5.4238,6.3139,7.1755,7.3707,7.8024,8.2761,8.5397,8.6814,8.6747,8.3341,7.823,7.1795,6.3316,5.6728,5.0795,4.5076,4.4306,4.5016,4.6123,4.8037,5.2318,6.1116,6.3089,6.8219,8.1628,8.4477,8.7357,9.3224,9.567,9.6614,9.5968,9.6482,9.6581,9.5869,9.461,9.355,9.2738,9.2638,9.2307,9.1611,9.1677,9.1677,9.1611,9.1677,9.1677,9.1578,9.0785,9.0487,9.0586,8.9692,8.8997,8.85,8.8367,8.7521,8.6358,8.6954,8.5979,8.4175,8.4757,8.4175,8.2983,8.2916,8.2883,8.2883,0.0,0.0,0.0,0.0,0.0,0.0,2.3032,2.446,2.7074,3.2775,3.3324,3.3179,3.3226,3.2009,2.9929,2.6748,0.0,0.0,0.0,0.0,0.0,0.0,0.0,0.0,0.0,0.0,3.2587,3.2345,3.2955,0.0,0.0,0.0,0.0,0.0,0.0,3.1257,3.1229,3.0799,0.0,0.0,0.0,0.0,0.0,0.0,0.0,0.0,0.0,0.0,3.5411,3.8033,4.1323,4.4421,4.4811,5.096,5.9834,6.8888,7.5063,8.0092,8.5474,8.7239,8.6757,8.3325,7.7527,7.0505,6.2263,5.5606,4.9764,4.4827,4.3801,4.4242,4.5628,4.6565,4.9034,5.4883,5.6373,6.0234,7.0094,7.414,7.9058,8.7131,9.1089,9.3865,9.5803,9.6664,9.6432,9.4809,9.4544,9.3749,9.2108,9.2042,9.1909,9.1611,9.2042,9.2042,9.1611,9.2042,9.2042,9.1578,9.0851,9.0719,9.1132,8.9924,8.9741,9.0204,8.8879,8.7985,8.7455,8.7337,8.6509,8.5316,8.5169,8.4724,8.4109,8.3215,8.2883,8.2883,0.0,0.0,0.0,0.0,0.0,1.8324,2.3179,2.4218,2.6527,3.2326,3.3248,3.3404,3.3466,3.2131,3.0146,2.7437,2.6975,0.0,0.0,0.0,0.0,0.0,0.0,0.0,0.0,0.0,3.2218,3.2105,3.2675,3.2719,0.0,0.0,3.2106,3.1728,0.0,0.0,0.0,0.0,0.0,0.0,0.0,0.0,0.0,0.0,0.0,0.0,0.0,0.0,0.0,0.0,0.0,4.0786,3.8703,4.206,4.9254,6.1888,6.9582,7.5513,8.2406,8.5213,8.5471,8.2443,7.6347,6.907,6.1307,5.4614,4.8803,4.4427,4.3464,4.3765,4.5007,4.5801,4.7397,5.0748,5.2256,5.5569,6.2973,6.7177,7.2586,8.0983,8.5125,8.8912,9.3038,9.5474,9.6134,9.4577,9.4511,9.3981,9.2638,9.1976,9.1611,9.1611,9.2108,9.2141,9.1611,9.2108,9.2108,9.1578,9.1066,9.0999,9.1231,9.0436,9.037,9.0867,8.9295,8.8367,8.7952,8.7271,8.6409,8.5482,8.497,8.4625,8.4326,8.3281,8.3049,8.3181,0.0,0.0,0.0,0.0,0.0,0.0,2.1215,2.3418,2.6014,2.9935,3.1195,3.1904,3.2362,3.0338,2.8922,2.8872,2.7412,0.0,0.0,0.0,0.0,0.0,0.0,0.0,0.0,0.0,0.0,3.2088,3.1646,3.1805,3.2573,3.1172,3.0957,3.1623,0.0,0.0,0.0,0.0,0.0,0.0,0.0,0.0,3.309,0.0,0.0,0.0,0.0,0.0,0.0,0.0,0.0,0.0,0.0,3.8606,4.2138,5.1888,6.0688,6.8579,7.4981,7.9767,8.2462,8.0495,7.4343,6.6995,6.0421,5.3633,4.7611,4.3706,4.3295,4.3807,4.4479,4.6033,4.8085,5.0838,5.2645,5.6405,6.4193,6.6862,7.0138,7.5816,7.8454,8.1793,8.692,9.2629,9.6001,9.6001,9.4643,9.4113,9.4842,9.2804,9.1611,9.1611,9.1611,9.1611,9.1611,9.1611,9.1611,9.1611,9.1578,9.1198,9.0553,9.1231,9.0801,8.9427,8.9394,8.8614,8.7253,8.6524,8.5349,8.401,8.401,8.3579,8.2916,8.2916,8.3347,8.3863,0.0,0.0,0.0,0.0,0.0,0.0,0.0,2.1523,2.3346,2.7292,2.7719,2.8456,3.0532,2.8885,2.7683,2.7906,2.7069,0.0,0.0,0.0,0.0,0.0,0.0,0.0,0.0,0.0,0.0,0.0,0.0,3.2311,3.2247,3.1699,3.1199,3.0689,2.9346,2.869,0.0,0.0,0.0,0.0,0.0,3.1054,3.1644,0.0,0.0,0.0,0.0,0.0,0.0,0.0,0.0,0.0,0.0,0.0,0.0,4.3347,5.2063,6.1297,6.6991,7.0424,7.1924,6.9959,6.5167,5.9689,5.5112,5.0482,4.6369,4.349,4.3018,4.3508,4.4849,4.478,4.6355,5.1889,5.2475,5.4147,5.9743,6.5177,7.0612,7.5981,8.5033,9.1664,9.3779,9.5227,9.5803,9.5306,9.4345,9.3699,9.3434,9.2241,9.1611,9.1611,9.1611,9.1114,9.0105,9.0602,9.0851,9.0851,9.0337,9.0502,9.1198,8.9939,8.9361,8.9361,8.8382,8.7123,8.5832,8.6078,8.5316,8.401,8.401,8.3877,8.3579,8.3082,8.3049,8.3215,0.0,0.0,0.0,0.0,0.0,0.0,0.0,2.0168,2.1458,2.4767,2.4876,2.5671,2.8387,2.7128,2.642,2.7234,2.6536,0.0,0.0,0.0,0.0,0.0,0.0,0.0,0.0,0.0,0.0,0.0,0.0,0.0,0.0,0.0,3.2075,3.0897,2.9623,2.8777,0.0,0.0,0.0,0.0,3.0016,3.0526,3.0925,0.0,0.0,0.0,0.0,0.0,0.0,0.0,0.0,0.0,0.0,0.0,0.0,0.0,4.4401,5.1895,5.8812,6.2672,6.4509,6.3754,5.9845,5.5469,5.2488,4.8681,4.5274,4.3293,4.3043,4.3544,4.4813,4.462,4.5921,5.0947,5.1587,5.3066,5.7708,6.3816,7.0058,7.628,8.6287,9.2891,9.3352,9.4715,9.5405,9.4941,9.3948,9.3318,9.3135,9.2141,9.1479,9.1198,9.1165,9.0602,8.9427,8.9858,9.0222,9.0472,9.0023,9.0156,9.0701,8.9343,8.8798,8.893,8.7801,8.6608,0.0,8.5714,8.4904,8.3579,8.3579,8.3579,8.3546,8.3082,8.3082,8.3281,0.0,0.0,0.0,0.0,0.0,0.0,0.0,1.9292,2.0315,2.2468,2.2653,2.3488,2.5938,2.5153,2.5075,2.66,0.0,0.0,0.0,0.0,0.0,0.0,0.0,0.0,0.0,0.0,0.0,0.0,3.2649,3.3527,3.5063,0.0,0.0,3.1967,3.0515,2.9354,0.0,0.0,0.0,0.0,2.9335,2.994,0.0,0.0,0.0,0.0,0.0,0.0,0.0,0.0,0.0,0.0,0.0,0.0,0.0,0.0,0.0,0.0,0.0,5.5771,5.9164,6.0263,5.709,5.322,5.1564,4.7717,0.0,4.3021,4.3177,4.3795,4.4643,4.5384,4.6643,4.904,5.0678,5.3313,5.8106,6.349,6.9773,7.7321,8.3961,8.7809,8.7518,9.1988,9.4875,9.4842,9.3484,9.3003,9.3683,9.2373,9.1231,9.0454,9.0421,9.0056,8.9262,8.9295,8.9659,9.0355,9.0288,8.9957,8.9394,8.9228,8.8831,8.8184,8.7503,8.6789,8.5993,8.5302,8.4161,8.2883,8.2883,8.2883,8.2883,8.2883,8.3347,8.3811,0.0,0.0,0.0,0.0,0.0,0.0,0.0,0.0,0.0,0.0,2.119,2.1735,2.3199,2.3238,2.3387,0.0,0.0,0.0,0.0,0.0,0.0,0.0,0.0,0.0,0.0,0.0,0.0,3.1305,3.2543,3.375,3.4871,3.4909,0.0,0.0,0.0,0.0,0.0,0.0,0.0,0.0,2.8997,2.9366,0.0,0.0,0.0,0.0,3.1728,3.2594,0.0,0.0,0.0,0.0,0.0,0.0,0.0,0.0,3.5612,3.6834,4.0734,0.0,4.7258,4.786,4.6813,4.5527,0.0,4.376,4.2427,4.1668,4.2345,4.3765,4.6098,4.6013,4.7559,5.3528,5.4177,5.5696,6.0756,7.0565,7.9261,8.4732,9.044,9.2745,8.9652,9.2712,9.4676,9.408,9.3219,9.2771,9.297,9.2075,9.0999,8.9692,8.9659,8.9063,8.7801,8.8316,8.8632,8.8798,8.8283,8.8515,8.9328,8.7702,8.7171,8.7503,8.6789,8.5714,8.4506,8.4341,8.3711,8.2883,8.2883,8.2883,8.2883,8.2883,8.3016,8.3148,0.0,0.0,0.0,0.0,0.0,0.0,0.0,0.0,0.0,0.0,0.0,0.0,0.0,0.0,0.0,0.0,0.0,0.0,0.0,0.0,0.0,0.0,0.0,0.0,0.0,0.0,0.0,0.0,0.0,3.4499,0.0,0.0,0.0,0.0,0.0,0.0,0.0,0.0,0.0,2.768,2.8976,0.0,0.0,0.0,0.0,0.0,3.1216,3.23,0.0,3.4491,3.5432,3.6245,0.0,0.0,0.0,0.0,3.4798,3.5187,3.6977,3.975,4.2411,4.3575,4.3494,4.3146,4.3268,4.2412,4.1478,4.1168,4.1937,4.3336,4.5549,4.6268,4.8232,5.3361,5.5257,5.8711,6.6175,7.3963,8.1262,8.7629,9.1563,9.3481,9.2825,9.3745,9.4213,9.3815,9.2804,9.2208,9.2208,9.1496,9.0569,8.9427,8.9394,8.8864,8.7753,8.8117,8.8467,8.8798,8.8084,8.815,8.8831,8.7006,8.6424,8.6756,8.6012,8.5037,8.401,8.401,8.3579,8.2883,8.2883,8.2883,8.2883,8.2883,8.2883,8.2883,0.0,0.0,0.0,0.0,0.0,0.0,0.0,0.0,0.0,0.0,0.0,0.0,0.0,0.0,0.0,0.0,0.0,0.0,0.0,0.0,0.0,0.0,0.0,0.0,0.0,0.0,0.0,0.0,0.0,0.0,0.0,0.0,0.0,0.0,0.0,0.0,0.0,0.0,2.8481,2.8183,2.9114,0.0,0.0,0.0,0.0,0.0,0.0,0.0,0.0,3.4355,3.5571,3.6738,3.6182,0.0,0.0,0.0,0.0,0.0,3.6578,3.9143,4.1673,4.2943,4.3195,4.3162,4.3352,4.2195,4.1098,4.1144,4.1934,4.3231,4.5224,4.7133,4.9422,5.2512,5.6653,6.2945,7.286,7.6658,8.1062,8.8225,9.0608,9.2541,9.47,9.4035,9.3418,9.3285,9.2026,9.1313,9.1446,9.0719,9.0056,8.9427,8.9295,8.893,8.8301,8.84,8.8665,8.9063,8.8349,8.8051,8.8117,8.6575,8.5993,8.6159,8.5302,8.4558,8.401,8.3877,8.348,8.2883,8.2883,8.2883,8.2883,8.2883,8.2883,8.2883,0.0,0.0,0.0,0.0,0.0,0.0,0.0,0.0,0.0,0.0,0.0,0.0,0.0,0.0,0.0,0.0,0.0,0.0,0.0,0.0,0.0,0.0,0.0,0.0,0.0,0.0,0.0,0.0,0.0,0.0,3.658,3.8755,3.7706,0.0,0.0,0.0,0.0,0.0,2.8654,2.8665,2.9262,0.0,0.0,0.0,0.0,0.0,0.0,0.0,0.0,3.3158,3.4213,3.5056,3.4476,0.0,0.0,0.0,0.0,0.0,3.7574,4.0708,4.2594,4.0861,4.1173,4.1806,4.1582,4.1315,4.1156,4.1387,4.2576,4.4917,4.921,5.0711,5.2846,5.7716,6.3376,7.0315,7.9188,8.3464,8.6496,8.8665,9.2123,9.3171,9.0274,9.1168,9.1677,9.105,9.0222,8.999,9.0653,8.9957,8.9526,8.9394,8.8798,8.84,8.8301,8.893,8.868,8.7602,8.6873,8.6855,8.737,8.5268,8.5018,8.6126,8.4738,8.4095,8.3943,8.3314,8.2983,8.2883,8.2883,8.2883,8.2883,8.2883,8.2883,8.2883,0.0,0.0,0.0,0.0,0.0,0.0,0.0,0.0,0.0,0.0,0.0,0.0,0.0,0.0,0.0,0.0,0.0,0.0,0.0,0.0,0.0,0.0,0.0,0.0,0.0,0.0,0.0,0.0,0.0,3.7425,3.8711,3.7953,3.6323,3.3889,0.0,0.0,0.0,0.0,2.8861,2.9183,0.0,0.0,0.0,0.0,0.0,0.0,0.0,0.0,0.0,0.0,3.3911,3.5122,3.4179,0.0,0.0,0.0,0.0,0.0,3.6368,3.8777,4.0744,4.1595,4.3621,0.0,0.0,4.3566,4.348,4.3796,4.508,4.7299,5.1185,5.4441,5.9062,6.6878,7.0479,7.4627,8.1252,8.36,8.5841,8.9147,9.1512,9.2662,9.2205,9.2161,9.1909,9.1165,9.0023,8.956,8.9891,8.9195,8.8632,8.8283,8.8283,8.7738,8.6579,8.7687,8.7934,8.7286,8.6144,8.5765,8.6063,8.4639,8.4374,8.497,8.4275,8.3778,8.338,8.3049,8.2883,8.2883,8.2883,8.2883,8.2883,8.2883,8.2883,8.2883,0.0,0.0,0.0,0.0,0.0,0.0,0.0,0.0,0.0,0.0,0.0,0.0,0.0,0.0,0.0,0.0,0.0,0.0,0.0,0.0,0.0,0.0,0.0,0.0,0.0,0.0,3.2959,3.5837,3.7517,3.917,4.0739,3.7526,3.5267,0.0,0.0,0.0,0.0,0.0,2.9068,2.9711,0.0,0.0,0.0,0.0,0.0,0.0,0.0,0.0,0.0,0.0,0.0,0.0,0.0,0.0,0.0,3.39,3.3447,3.3712,3.565,3.7534,3.9648,4.2582,0.0,0.0,0.0,0.0,4.6885,4.8027,4.9441,5.1278,5.383,5.8781,6.5274,7.3945,7.6413,7.8912,8.3699,8.4572,8.6299,9.0469,9.1267,9.2154,9.3968,9.2788,9.1629,9.0882,8.9641,8.8963,8.9129,8.8268,8.7654,8.7304,8.7455,8.6744,8.5121,8.6045,8.6608,8.6774,8.5467,8.4923,8.5055,8.4175,8.3844,8.401,8.3811,8.3413,8.2883,8.2883,8.2883,8.2883,8.2883,8.2883,8.2883,8.2883,8.2883,8.2883,0.0,0.0,0.0,0.0,0.0,0.0,0.0,0.0,0.0,0.0,0.0,0.0,0.0,0.0,0.0,0.0,0.0,0.0,0.0,0.0,0.0,0.0,0.0,0.0,0.0,3.3282,3.4372,3.6879,3.8947,4.0219,4.0747,3.8619,3.6107,3.3259,0.0,0.0,0.0,0.0,0.0,3.0159,3.0181,0.0,0.0,0.0,0.0,0.0,0.0,0.0,0.0,0.0,0.0,0.0,0.0,0.0,3.4195,3.4576,3.4018,3.3957,3.6994,3.9588,4.1647,4.2551,4.3077,0.0,5.0403,5.0966,5.1258,5.459,5.6496,5.7882,5.8921,6.4246,7.0049,7.4794,7.9896,8.4837,8.9306,9.1081,9.2353,9.3423,9.296,9.238,9.1894,9.0502,8.9328,8.8599,8.7867,8.7735,8.8334,8.7105,8.6656,8.7271,8.603,8.5254,8.5088,8.454,8.4573,8.5254,8.4473,8.4426,8.5055,8.3645,8.3347,8.3962,8.3281,8.295,8.2883,8.2883,8.2883,8.2883,8.2883,8.2883,8.2883,8.2883,8.2883,8.2883,0.0,0.0,0.0,0.0,0.0,0.0,0.0,0.0,0.0,0.0,0.0,0.0,0.0,0.0,0.0,0.0,0.0,0.0,0.0,0.0,0.0,0.0,0.0,3.0721,3.3029,3.4443,3.6704,3.9859,4.0938,4.1076,4.0287,3.7325,0.0,0.0,0.0,0.0,0.0,0.0,0.0,3.0629,3.0032,2.9274,0.0,0.0,0.0,0.0,0.0,0.0,0.0,0.0,3.1216,3.2268,3.2338,3.3349,3.4404,3.3937,3.3337,3.3257,3.543,3.8555,4.1715,4.3911,4.566,0.0,0.0,5.4166,5.6323,5.842,6.1741,6.4621,6.5749,7.0484,7.5302,7.8547,8.3,8.7377,9.1319,9.2358,9.297,9.3716,9.3153,9.2406,9.1677,9.0271,8.9096,8.8367,8.7702,8.7205,8.7006,8.649,8.5927,8.5268,8.5169,8.4658,8.3745,8.391,8.391,8.3745,8.3446,8.348,8.3711,8.3148,8.3049,8.3314,8.3016,8.2883,8.2883,8.2883,8.2883,8.2883,8.2883,8.2883,8.2883,8.2883,8.2883,8.2883,0.0,0.0,0.0,0.0,0.0,0.0,0.0,0.0,0.0,0.0,0.0,0.0,0.0,0.0,0.0,0.0,0.0,0.0,0.0,0.0,0.0,0.0,0.0,3.0628,3.2027,3.4837,3.7729,4.0655,4.1604,4.1076,3.9047,0.0,0.0,0.0,0.0,0.0,0.0,0.0,0.0,0.0,3.0124,2.932,0.0,0.0,0.0,0.0,0.0,0.0,0.0,0.0,3.107,3.2098,3.2392,3.3432,3.4429,3.3864,3.3849,3.4198,3.5263,3.8284,4.1799,4.4566,0.0,0.0,5.4648,5.7952,6.1162,6.4368,6.7153,6.9404,7.0762,7.4237,7.7826,8.0724,8.5003,8.906,9.2241,9.2506,9.2539,9.3069,9.2258,9.1364,9.065,8.9641,8.8665,8.772,8.7205,8.6623,8.5879,8.5614,8.5051,8.4043,8.426,8.391,8.2916,8.3413,8.3413,8.2883,8.2883,8.2883,8.2883,8.2883,8.2883,8.2883,8.2883,8.2883,8.2883,8.2883,8.2883,8.2883,8.2883,8.2883,8.2883,8.2883,8.2883,8.2883,0.0,0.0,0.0,0.0,0.0,0.0,0.0,0.0,0.0,0.0,0.0,0.0,0.0,0.0,0.0,0.0,0.0,0.0,0.0,0.0,0.0,0.0,0.0,2.9975,3.102,3.4449,3.7026,3.8596,4.0586,3.9997,3.6947,3.5483,0.0,0.0,0.0,0.0,0.0,0.0,0.0,0.0,3.0606,3.0204,0.0,0.0,0.0,0.0,0.0,0.0,0.0,0.0,3.0906,3.1349,3.3958,3.444,3.4134,3.465,3.5927,3.718,3.718,3.9401,4.2195,4.4223,4.8361,5.3652,6.0101,6.2537,6.5605,7.3113,7.2964,7.1907,7.3369,7.487,7.7055,8.0607,8.5809,9.0156,9.2373,9.2042,9.1578,9.1578,9.0271,8.9096,8.8367,8.8268,8.7687,8.6292,8.6192,8.5879,8.5136,8.4407,8.401,8.401,8.3281,8.2883,8.2883,8.2883,8.2883,8.2883,8.2883,8.2883,8.2883,8.2883,8.2883,8.2883,8.2883,8.2883,8.2883,8.2883,8.2883,8.2883,8.2883,8.2883,8.2883,8.2883,8.2883,8.2883,0.0,0.0,0.0,0.0,0.0,0.0,0.0,0.0,0.0,0.0,0.0,0.0,0.0,0.0,0.0,0.0,0.0,0.0,0.0,0.0,0.0,0.0,0.0,0.0,0.0,0.0,3.42,3.8527,3.8788,3.7905,0.0,0.0,0.0,3.2483,0.0,0.0,0.0,0.0,0.0,0.0,3.0755,2.9998,0.0,0.0,0.0,0.0,0.0,0.0,0.0,0.0,0.0,0.0,3.3146,3.4819,3.6002,3.4625,3.5375,3.6468,3.5727,3.9051,4.325,4.5367,5.1644,5.8934,6.5104,6.7402,7.0416,7.8077,7.8454,7.7237,7.672,7.9322,8.1508,8.1227,8.497,8.8497,9.0138,9.0204,9.0056,9.0056,8.9195,8.8349,8.7668,8.7138,8.6443,8.55,8.5434,8.5103,8.4374,8.4128,8.3778,8.3248,8.3016,8.2883,8.2883,8.2883,8.2883,8.2883,8.2883,8.2883,8.2883,8.2883,8.2883,8.2883,8.2883,8.2883,8.2883,8.2883,8.2883,8.2883,8.2883,8.2883,8.2883,8.2883,8.2883,8.2883,0.0,0.0,0.0,0.0,0.0,0.0,0.0,0.0,0.0,0.0,0.0,0.0,0.0,0.0,0.0,0.0,0.0,0.0,0.0,0.0,0.0,0.0,0.0,0.0,0.0,2.9305,3.174,0.0,0.0,0.0,0.0,0.0,0.0,3.3678,0.0,3.5019,0.0,0.0,3.281,3.2708,3.157,3.095,3.0721,0.0,0.0,0.0,0.0,0.0,0.0,0.0,0.0,0.0,3.3102,3.4424,3.5568,3.5299,3.6314,3.7669,3.8402,4.2144,4.6718,5.0184,5.6567,6.3844,7.0936,7.4194,7.7222,8.2468,8.2462,8.1375,8.0869,8.2292,8.3478,8.3231,8.5482,8.7801,8.9195,8.9162,8.8864,8.8614,8.7919,8.719,8.6494,8.6012,8.5449,8.4738,8.4658,8.4326,8.3612,8.3579,8.3347,8.2916,8.2883,8.2883,8.2883,8.2883,8.2883,8.2883,8.2883,8.2883,8.2883,8.2883,8.2883,8.2883,8.2883,8.2883,8.2883,8.2883,8.2883,8.2883,8.2883,8.2883,8.2883,8.2883,8.2883,8.2883,0.0,0.0,0.0,0.0,0.0,0.0,0.0,0.0,0.0,0.0,0.0,0.0,0.0,0.0,0.0,0.0,0.0,0.0,0.0,0.0,0.0,0.0,0.0,0.0,0.0,0.0,0.0,0.0,0.0,0.0,0.0,0.0,3.4875,3.5963,0.0,3.746,0.0,3.5608,3.4395,3.3134,3.257,3.2363,3.2317,3.188,0.0,0.0,0.0,0.0,0.0,0.0,0.0,0.0,3.3534,3.3643,3.3837,3.6104,3.7945,3.9964,4.3263,4.7002,5.1362,5.7021,6.2599,6.8856,7.7036,8.1644,8.454,8.5846,8.5235,8.4672,8.5188,8.4241,8.401,8.5894,8.6756,8.7635,8.893,8.8467,8.7786,8.7171,8.6509,8.5813,8.5055,8.4989,8.4691,8.3976,8.391,8.3612,8.295,8.2883,8.2883,8.2883,8.2883,8.2883,8.2883,8.2883,8.2883,8.2883,8.2883,8.2883,8.2883,8.2883,8.2883,8.2883,8.2883,8.2883,8.2883,8.2883,8.2883,8.2883,8.2883,8.2883,8.2883,8.2883,8.2883,8.2916,0.0,0.0,0.0,0.0,0.0,0.0,0.0,0.0,0.0,0.0,0.0,0.0,0.0,0.0,0.0,0.0,0.0,0.0,0.0,0.0,0.0,0.0,0.0,0.0,0.0,0.0,0.0,0.0,0.0,0.0,0.0,0.0,0.0,3.594,0.0,3.6294,3.4266,3.3103,3.2421,3.2089,3.1547,3.1329,3.1364,3.1651,3.118,0.0,0.0,0.0,0.0,0.0,0.0,0.0,3.3237,3.4242,3.4909,3.4491,3.678,3.9861,4.1896,4.6479,5.2347,5.9218,6.8133,7.6432,8.0921,8.3924,8.5647,8.5401,8.6877,8.7952,8.7006,8.6991,8.6925,8.6292,8.6325,8.6557,8.6855,8.6262,8.5718,8.56,8.5434,8.5037,8.4308,8.4241,8.3943,8.3181,8.3148,8.3082,8.2916,8.2883,8.2883,8.2883,8.2883,8.2883,8.2883,8.2883,8.2883,8.2883,8.2883,8.2883,8.2883,8.2883,8.2883,8.2883,8.2883,8.2883,8.2883,8.2883,8.2883,8.2883,8.2883,8.2883,8.2883,8.2883,8.2883,8.2855,0.0,0.0,0.0,0.0,0.0,0.0,0.0,0.0,0.0,0.0,0.0,0.0,0.0,0.0,0.0,0.0,0.0,0.0,0.0,0.0,0.0,0.0,0.0,0.0,0.0,0.0,0.0,0.0,0.0,0.0,0.0,0.0,0.0,3.6082,0.0,3.6131,3.4132,3.322,3.2582,3.2123,3.2111,3.2099,3.2099,3.2123,3.149,3.0549,3.0285,0.0,0.0,0.0,0.0,0.0,0.0,0.0,3.4485,3.4963,3.6787,3.9561,4.3719,4.9063,5.5935,6.6321,7.4397,8.0391,8.2855,8.4885,8.5979,8.5268,8.7374,8.8979,8.7569,8.7602,8.7355,8.5912,8.568,8.568,8.568,8.5335,8.4956,8.4639,8.4573,8.426,8.3546,8.348,8.3314,8.2916,8.2883,8.2883,8.2883,8.2883,8.2883,8.2883,8.2552,8.2552,8.2883,8.2188,8.2188,8.2883,8.2552,8.2552,8.2883,8.2883,8.2883,8.2883,8.2883,8.2883,8.2883,8.2883,8.2883,8.2883,8.2883,8.2883,8.2869,8.2728,8.2656,8.2628,0.0,0.0,0.0,0.0,0.0,0.0,0.0,0.0,0.0,0.0,0.0,0.0,0.0,0.0,0.0,0.0,0.0,0.0,0.0,0.0,0.0,0.0,0.0,0.0,0.0,0.0,0.0,0.0,0.0,0.0,0.0,0.0,0.0,3.6289,0.0,0.0,3.4601,3.3821,3.2948,3.2134,3.2593,3.2764,3.2731,0.0,0.0,0.0,3.0365,3.0499,3.0994,3.1636,0.0,0.0,0.0,0.0,3.3572,3.5432,3.6821,3.9121,4.5364,5.2364,6.0934,7.372,7.9368,8.2188,8.3678,8.4952,8.5647,8.5037,8.7208,8.878,8.737,8.712,8.6674,8.5335,8.4989,8.489,8.489,8.479,8.4506,8.3863,8.3811,8.3579,8.295,8.2883,8.2883,8.2883,8.2883,8.2883,8.2883,8.2784,8.2718,8.2718,8.2121,8.2022,8.2519,8.144,8.144,8.2519,8.1903,8.1937,8.2519,8.2519,8.2651,8.2883,8.2883,8.2883,8.2883,8.2883,8.2883,8.2883,8.2883,8.2855,8.277,8.2481,8.2367,8.228,0.0,0.0,0.0,0.0,0.0,0.0,0.0,0.0,0.0,0.0,0.0,0.0,0.0,0.0,0.0,0.0,0.0,0.0,0.0,0.0,0.0,0.0,0.0,0.0,0.0,0.0,0.0,0.0,0.0,0.0,0.0,0.0,0.0,3.6533,0.0,0.0,0.0,3.2178,3.1054,3.0503,3.0595,3.0618,0.0,0.0,0.0,0.0,0.0,3.0499,3.1041,3.2067,3.2766,0.0,0.0,0.0,3.3191,3.3077,3.5383,3.8698,4.207,5.3567,6.6664,7.5179,7.9561,8.2188,8.3678,8.4142,8.4275,8.4175,8.6461,8.8018,8.6623,8.6358,8.6078,8.5235,8.4558,8.4142,8.4142,8.3612,8.3148,8.3049,8.3049,8.3016,8.2916,8.2883,8.2883,8.2883,8.2883,8.2883,8.2883,8.2287,8.197,8.197,8.187,8.1539,8.1009,8.1426,8.1426,8.1009,8.0876,8.0909,8.1009,8.1009,8.1705,8.2883,8.2883,8.2883,8.2883,8.2883,8.2883,8.2883,8.2883,8.2728,8.2452,8.241,8.227,8.201,0.0,0.0,0.0,0.0,0.0,0.0,0.0,0.0,0.0,0.0,0.0,0.0,0.0,0.0,0.0,1.862,1.9411,2.0033,2.0275,2.0664,0.0,0.0,0.0,0.0,0.0,0.0,0.0,0.0,0.0,0.0,0.0,3.2805,3.4806,0.0,0.0,0.0,0.0,0.0,0.0,3.0618,3.0308,3.0905,0.0,0.0,0.0,0.0,0.0,0.0,3.0709,3.2054,3.2815,3.3207,3.3198,0.0,0.0,0.0,3.4462,3.8591,4.7415,5.7319,6.7137,7.5358,7.8696,8.0551,8.285,8.338,8.338,8.338,8.507,8.6196,8.5169,8.4985,8.4738,8.401,8.3612,8.338,8.338,8.3115,8.2883,8.2883,8.2883,8.2883,8.2883,8.2883,8.2883,8.2883,8.2519,8.2287,8.2287,8.1572,8.1174,8.1174,8.0796,8.0598,8.0711,8.02,7.9988,8.0087,8.0498,8.0711,8.0711,8.0711,8.1042,8.1658,8.1658,8.1903,8.2287,8.2287,8.2519,8.2883,8.2883,8.2699,8.2367,8.2241,8.1996,8.1675,0.0,0.0,0.0,0.0,0.0,0.0,0.0,0.0,0.0,0.0,0.0,0.0,0.0,0.0,0.0,0.0,1.8716,1.9668,2.0542,2.0254,0.0,0.0,0.0,0.0,0.0,0.0,0.0,0.0,0.0,0.0,3.1912,3.3398,3.5752,0.0,3.7054,0.0,0.0,0.0,0.0,0.0,0.0,0.0,0.0,0.0,0.0,0.0,0.0,0.0,0.0,3.2439,3.2994,3.3352,3.3231,3.3211,0.0,0.0,0.0,3.8187,5.0258,5.757,6.3907,7.2639,7.6128,7.8252,8.1342,8.2353,8.2618,8.2618,8.3645,8.436,8.3811,8.3877,8.3778,8.3016,8.2883,8.2883,8.2883,8.2883,8.2817,8.2651,8.2784,8.2751,8.2386,8.2519,8.2552,8.2353,8.1823,8.1539,8.1539,8.0829,8.0432,8.0432,7.9888,7.9789,8.0134,7.906,7.8782,7.9345,7.9888,8.0134,8.0134,8.0134,8.0134,8.0167,8.0545,8.1141,8.179,8.179,8.2179,8.277,8.277,8.2543,8.2137,8.1952,8.1661,8.1352,0.0,0.0,0.0,0.0,0.0,0.0,0.0,0.0,0.0,0.0,0.0,0.0,0.0,0.0,1.7615,1.7786,1.8214,1.9056,2.0502,1.9816,2.0116,0.0,0.0,0.0,0.0,0.0,0.0,0.0,0.0,0.0,3.434,3.5258,3.7859,4.1686,3.9582,3.7722,3.6075,0.0,0.0,0.0,0.0,0.0,0.0,0.0,0.0,0.0,0.0,0.0,3.5102,3.3643,3.3474,3.3787,3.3332,3.3211,3.2999,0.0,0.0,0.0,4.5206,5.0708,5.6364,6.5447,7.1149,7.5453,7.8954,8.0849,8.1856,8.1856,8.2453,8.3016,8.295,8.3546,8.3778,8.3016,8.2883,8.2883,8.2883,8.2883,8.2651,8.1923,8.2453,8.2353,8.0943,8.1473,8.1572,8.0876,8.0777,8.0777,8.0777,8.0054,7.9643,7.9643,7.961,7.9279,7.863,7.853,7.8517,7.855,7.8583,7.8616,7.8616,7.8616,7.8616,7.8696,8.0101,8.1141,8.179,8.179,8.2052,8.2424,8.2424,8.2064,8.154,8.1525,8.1322,8.1025,0.0,0.0,0.0,0.0,0.0,0.0,0.0,0.0,0.0,0.0,0.0,0.0,0.0,1.8114,1.8205,1.855,1.8688,1.9012,1.9534,2.0041,2.0276,2.0172,0.0,0.0,0.0,0.0,0.0,0.0,0.0,2.7177,3.1335,3.343,3.5758,3.8209,3.7941,3.7821,3.7554,3.4384,0.0,0.0,0.0,0.0,0.0,0.0,0.0,0.0,3.5039,3.4867,3.5627,3.5715,3.5144,3.4335,3.3848,3.3468,3.3196,3.314,3.5014,3.8406,4.4334,4.8676,5.338,6.1107,6.6388,7.0513,7.3718,7.7157,7.9689,7.9689,8.1028,8.2188,8.2188,8.2784,8.3215,8.295,8.2486,8.2188,8.2188,8.1804,8.1406,8.1141,8.134,8.1274,8.0744,8.0943,8.0976,8.0711,8.0266,7.9988,7.9988,7.9292,7.8881,7.8881,7.8881,7.8749,7.8484,7.8484,7.8484,7.8484,7.8484,7.8484,7.8484,7.8484,7.8484,7.8517,7.906,7.9689,8.0418,8.0896,8.1325,8.1736,8.223,8.2021,8.1481,8.1481,8.1293,8.0995,0.0,0.0,0.0,0.0,0.0,0.0,0.0,0.0,0.0,0.0,0.0,0.0,0.0,0.0,1.905,1.9314,1.9332,1.9267,1.912,1.9883,2.0151,1.965,2.1139,0.0,0.0,0.0,0.0,0.0,0.0,0.0,0.0,3.2575,3.4888,3.7,3.6508,3.7229,0.0,0.0,0.0,3.4725,0.0,0.0,3.562,0.0,0.0,3.8912,3.7662,3.7433,3.7709,3.7903,3.7227,3.6092,3.4911,0.0,0.0,0.0,3.534,3.8115,4.2088,4.5654,4.9928,5.68,6.1182,6.5079,6.9892,7.3502,7.6202,7.7504,7.9325,8.0829,8.134,8.1823,8.2221,8.2486,8.2121,8.1705,8.1473,8.1009,8.0611,8.0366,8.0531,8.0512,8.0001,8.02,8.0233,7.9968,7.9524,7.9245,7.9245,7.8749,7.8484,7.8484,7.8484,7.8484,7.8484,7.8749,7.8848,7.8881,7.9126,7.9126,7.8848,7.8848,7.8716,7.8484,7.8484,7.8914,7.9643,8.012,8.066,8.1218,8.1726,8.1665,8.1337,8.1337,8.1204,8.0995,0.0,0.0,0.0,0.0,0.0,0.0,0.0,0.0,0.0,0.0,0.0,0.0,0.0,0.0,0.0,2.0065,2.0047,1.9852,1.9377,1.935,1.9689,2.0474,2.0773,0.0,0.0,0.0,0.0,0.0,0.0,0.0,0.0,0.0,3.5538,0.0,3.564,3.615,3.9124,0.0,3.8174,3.7759,0.0,3.6406,3.6223,3.9998,4.1347,4.1306,4.1788,4.1956,4.1746,4.0248,3.966,3.9083,3.6444,0.0,0.0,0.0,0.0,0.0,0.0,0.0,0.0,5.2243,5.5559,5.9309,6.7535,6.9924,7.1516,7.5276,7.7312,7.8828,8.0313,8.0611,8.0909,8.1591,8.1724,8.1506,8.0777,8.0644,8.0366,7.9643,8.02,8.0067,7.863,7.9146,7.9279,7.855,7.8484,7.8484,7.8484,7.8484,7.8497,7.8451,7.8451,7.8484,7.8484,7.9179,7.9543,7.961,8.0332,8.0299,7.961,7.961,7.9179,7.8484,7.8484,7.8914,7.9563,7.9563,8.0093,8.0867,8.0886,8.0921,8.0995,8.0995,8.0995,8.0995,0.0,0.0,0.0,0.0,0.0,0.0,0.0,0.0,0.0,0.0,0.0,0.0,0.0,0.0,0.0,2.1556,2.1277,2.0914,2.0485,2.0595,2.0629,2.0516,2.1358,2.2413,0.0,0.0,0.0,0.0,0.0,0.0,0.0,0.0,0.0,0.0,3.5388,3.5865,3.5933,3.4313,0.0,3.8275,3.708,3.8336,4.1044,4.1722,4.4019,4.6766,4.6056,4.6038,4.6241,4.541,4.333,4.0452,3.6764,0.0,0.0,0.0,0.0,0.0,3.8204,0.0,0.0,0.0,0.0,0.0,5.8752,6.3271,6.7492,7.0001,7.312,7.584,7.7252,7.8828,7.9789,7.9458,7.9855,8.0153,7.9921,7.9458,7.9027,7.8815,7.8994,7.8961,7.853,7.8682,7.8716,7.8517,7.8484,7.8484,7.8484,7.8484,7.8265,7.7735,7.7702,7.7954,7.8484,7.8166,7.855,7.961,7.9822,7.9808,7.961,7.961,7.9179,7.8484,7.8484,7.8522,7.8545,7.9106,7.9616,8.0122,8.0413,8.0731,8.0995,8.0995,8.0995,8.0995,0.0,0.0,0.0,0.0,0.0,0.0,0.0,0.0,0.0,0.0,0.0,0.0,0.0,0.0,0.0,0.0,2.262,2.2134,2.137,2.159,2.163,2.1351,2.2647,2.3807,0.0,0.0,0.0,0.0,0.0,0.0,0.0,0.0,0.0,0.0,0.0,0.0,0.0,0.0,3.3614,3.7755,3.9056,4.0979,4.3266,4.5348,4.7356,4.92,4.9885,4.9913,4.9597,4.9522,4.6451,4.2018,3.8444,0.0,0.0,0.0,0.0,0.0,0.0,0.0,0.0,4.5183,0.0,0.0,5.5814,5.9031,6.2347,6.6653,6.9867,7.2527,7.4602,7.6291,7.7404,7.757,7.7702,7.8,7.8583,7.8318,7.802,7.802,7.7768,7.7702,7.8,7.802,7.802,7.802,7.802,7.7901,7.7603,7.757,7.7537,7.7404,7.7106,7.7305,7.8033,7.7934,7.8418,7.961,7.9921,8.0054,8.0054,7.9742,7.9179,7.8484,7.8484,7.835,7.8126,7.8418,7.8774,7.9232,7.9747,8.0188,8.0637,8.0898,8.0995,8.0995,0.0,0.0,0.0,0.0,0.0,0.0,0.0,0.0,0.0,0.0,0.0,0.0,0.0,0.0,0.0,0.0,2.3979,2.3425,2.2252,2.2459,2.2635,2.2686,2.4169,2.5252,2.5781,0.0,0.0,0.0,0.0,0.0,0.0,0.0,0.0,0.0,0.0,0.0,0.0,0.0,3.2979,3.682,4.1487,4.3572,4.4411,4.963,5.0976,5.0515,5.3413,5.3565,5.2434,5.2596,4.9053,4.4021,4.0988,3.8934,3.7185,3.4995,3.6519,0.0,0.0,0.0,0.0,0.0,4.7457,0.0,5.5672,5.6182,5.7156,6.3916,6.6572,6.85,7.128,7.2513,7.3516,7.4803,7.4913,7.54,7.706,7.7272,7.7239,7.7172,7.6642,7.651,7.7007,7.7106,7.7139,7.704,7.7106,7.6874,7.6225,7.6245,7.6576,7.7139,7.651,7.6576,7.7404,7.7967,7.8716,7.961,8.0266,8.0578,8.0578,7.9888,7.9179,7.8484,7.8484,7.8323,7.8025,7.7719,7.7869,7.8339,7.8916,7.9491,8.0083,8.0654,8.0931,8.0995,1.9823,0.0,0.0,0.0,0.0,0.0,0.0,0.0,0.0,0.0,0.0,0.0,0.0,0.0,0.0,0.0,0.0,2.4417,0.0,2.3608,2.3536,2.3846,2.4598,2.5605,2.6942,2.7205,0.0,0.0,0.0,0.0,0.0,0.0,0.0,0.0,0.0,0.0,0.0,3.3405,3.5525,3.7347,3.9267,4.3427,4.8715,5.0871,5.369,5.6537,5.6637,5.6746,5.6458,5.3876,5.0768,4.7267,4.3415,4.16,4.0402,3.7922,3.8543,0.0,0.0,0.0,0.0,4.456,4.7827,0.0,4.9931,5.2364,5.5429,5.7531,5.9685,6.1687,6.3232,6.5054,6.6473,6.6964,6.9827,7.3064,7.6082,7.651,7.6311,7.5774,7.6059,7.5927,7.4925,7.5343,7.5443,7.4892,7.5376,7.5641,7.5509,7.5993,7.6125,7.5708,7.5575,7.6105,7.7404,7.694,7.7702,7.961,7.9742,7.9808,7.9822,7.9676,7.9179,7.8484,7.8484,7.8201,7.7692,7.7637,7.7869,7.8293,7.8167,7.8881,8.0018,8.0133,8.054,8.0995,2.0921,0.0,0.0,0.0,0.0,0.0,0.0,0.0,0.0,0.0,0.0,0.0,0.0,0.0,0.0,0.0,0.0,0.0,0.0,0.0,2.52,2.5443,2.6247,2.7282,2.8578,2.8634,2.8925,0.0,0.0,0.0,0.0,0.0,0.0,0.0,0.0,0.0,0.0,3.3471,3.5157,3.7297,4.1852,4.6555,5.1184,5.4315,5.6864,5.8842,5.9132,5.9199,5.8602,5.502,5.2364,4.9858,4.5591,4.4085,4.3346,4.0609,4.1207,4.27,4.2207,4.4323,4.6587,4.6266,4.8096,0.0,0.0,5.0482,5.212,5.5391,5.6226,5.7131,5.9669,6.0787,6.1741,6.3096,6.6273,6.9019,7.037,7.3278,7.4979,7.4283,7.4171,7.4038,7.3687,7.3985,7.4051,7.3687,7.4329,7.4428,7.3687,7.4681,7.5111,7.476,7.476,7.529,7.6324,7.5993,7.6722,7.853,7.8881,7.9458,8.0134,7.9789,7.9411,7.9014,7.8515,7.8019,7.7596,7.7444,7.7451,7.7579,7.7747,7.824,7.9,7.9727,8.0198,8.054,2.1739,0.0,0.0,0.0,0.0,0.0,0.0,0.0,0.0,0.0,0.0,0.0,0.0,0.0,0.0,0.0,0.0,0.0,0.0,0.0,2.716,2.73,2.8204,2.909,2.9931,3.0068,3.0137,3.0204,0.0,0.0,0.0,0.0,0.0,0.0,0.0,0.0,0.0,3.3873,3.5497,3.8823,4.5599,4.9306,5.1342,5.6333,5.8419,5.8927,6.061,6.0758,5.9669,5.6128,5.4077,5.2204,4.7745,4.6638,4.6412,4.3349,4.4118,4.5695,4.452,4.6023,4.811,4.8819,4.8948,4.9257,0.0,0.0,0.0,5.3978,5.3706,5.3674,5.6851,5.6945,5.7172,5.9127,6.2038,6.3854,6.3288,6.8234,7.1743,7.1327,7.1581,7.182,7.1849,7.1689,7.1866,7.2622,7.2808,7.263,7.2039,7.3388,7.413,7.3997,7.413,7.4561,7.529,7.5422,7.6125,7.7404,7.8285,7.9259,8.0266,7.9822,7.9483,7.9263,7.8465,7.7889,7.7513,7.7297,7.705,7.6848,7.7398,7.7675,7.7934,7.9129,7.9759,8.0083,2.2097,2.2802,0.0,0.0,0.0,0.0,0.0,0.0,0.0,0.0,0.0,0.0,0.0,0.0,0.0,0.0,0.0,0.0,3.2601,3.0278,0.0,2.9529,2.9657,2.9872,3.0157,3.0617,3.0652,3.0204,0.0,0.0,0.0,0.0,0.0,0.0,3.272,3.4107,3.5018,3.7183,4.0683,4.5037,4.7439,4.7768,4.7386,5.2432,5.525,5.6959,6.0079,6.0758,5.9825,5.7357,5.6058,5.4674,5.0077,4.9575,5.0023,4.6584,4.7065,4.8625,4.8531,5.0217,5.1531,4.944,5.1501,5.2848,4.8226,0.0,5.0446,5.0152,0.0,5.0748,5.1363,0.0,0.0,5.0916,5.4551,5.7321,5.7432,6.0999,6.3866,6.4651,6.8468,7.0082,6.7668,6.6627,6.7504,7.0909,6.9243,6.9243,7.1869,7.3388,7.3885,7.3243,7.3865,7.4561,7.529,7.5894,7.6576,7.7437,7.8815,7.9212,7.8762,7.9345,7.9123,7.8246,7.8153,7.778,7.7241,7.7213,7.705,7.6815,7.688,7.7269,7.7805,7.7981,7.8888,8.0018,2.208,2.293,0.0,0.0,0.0,0.0,0.0,0.0,0.0,0.0,0.0,0.0,3.4131,3.4348,3.4952,3.6076,3.4716,3.3939,3.4261,3.2296,0.0,3.1852,3.103,3.0996,3.1982,3.1343,3.1031,3.1123,3.0503,0.0,0.0,0.0,0.0,3.3299,3.4175,3.6035,3.8667,4.0596,4.2143,4.3611,4.7392,4.7618,4.6474,5.3653,5.7141,5.8462,6.0264,6.0599,5.9825,5.7383,5.6146,5.5175,5.2689,5.1608,5.0934,4.9392,4.9502,4.9939,4.8941,5.1252,5.3348,5.0652,5.2069,5.3165,4.9622,4.8812,4.91,5.017,0.0,0.0,0.0,0.0,0.0,0.0,5.2552,5.4413,5.3309,5.6907,6.036,6.2305,6.3682,6.4586,6.4932,6.6704,6.8196,6.8935,6.9244,6.9592,7.0051,7.1897,7.278,7.2469,7.3177,7.3918,7.466,7.4946,7.5628,7.6775,7.8252,7.9014,7.9146,7.9888,7.9686,7.8686,7.8081,7.7568,7.7185,7.705,7.6896,7.6783,7.6783,7.6977,7.7333,7.8143,7.8823,7.9485,2.2623,0.0,0.0,0.0,2.5184,0.0,0.0,3.0422,0.0,0.0,3.4472,3.5945,3.6385,3.7256,3.8212,3.9293,3.8514,3.766,3.6957,3.4874,3.3789,3.404,3.2769,3.2544,3.3608,3.2314,3.1616,3.1582,3.0813,3.0503,0.0,0.0,0.0,3.5369,3.596,3.8257,4.1809,4.379,4.4669,4.5063,4.8791,4.9651,4.9353,5.511,5.8259,5.9669,6.033,6.0408,5.9818,5.7334,5.6441,5.6102,5.4791,5.388,5.3273,5.2951,5.3203,5.3178,5.1403,5.3421,5.5266,5.2086,5.2264,5.2624,5.0378,4.9133,4.8965,5.0823,5.014,0.0,0.0,0.0,4.8621,4.9205,0.0,5.2019,5.0167,5.2958,5.6101,5.8621,5.9092,6.031,6.3096,6.5823,6.7227,6.6781,6.8172,6.8866,6.8428,7.0295,7.1587,7.1985,7.2701,7.3442,7.4196,7.4395,7.5111,7.6311,7.7802,7.8782,7.9312,8.0067,7.9851,7.8837,7.7976,7.7444,7.7172,7.691,7.6783,7.6783,7.6783,7.6783,7.6945,7.8143,7.8856,7.9356,2.4166,2.369,0.0,0.0,2.5736,2.6836,2.9579,3.0378,3.1395,3.3486,3.5228,3.7118,3.9325,4.0459,4.2513,4.6151,4.3197,4.138,4.1942,3.8445,3.6257,3.5919,3.5109,3.4614,3.447,3.366,3.2489,3.1031,3.0985,3.1249,3.1744,3.1767,3.2911,3.5039,3.8173,4.0872,4.3342,4.6571,4.9982,5.3178,5.2895,5.4657,5.7225,5.5492,5.6683,5.9397,6.0011,6.0224,5.9837,5.7545,5.7645,5.8297,5.6055,5.6874,5.852,5.7868,5.8914,5.9898,5.8081,5.8222,5.7854,5.3603,5.2547,5.1841,4.9169,5.0023,5.1331,5.1231,5.2683,5.3716,5.2879,5.1666,0.0,0.0,0.0,0.0,0.0,4.8243,4.9356,5.1662,5.5326,5.894,6.2226,6.1851,6.2275,6.4429,6.4415,6.5295,6.7509,6.9069,7.0527,7.1951,7.2701,7.3442,7.4196,7.4925,7.5608,7.6311,7.7802,7.8517,7.855,7.9312,7.9077,7.8126,7.7747,7.7444,7.7172,7.691,7.6783,7.6783,7.6783,7.6783,7.688,7.7593,7.8726,7.9986,0.0,0.0,0.0,2.5179,2.5923,2.7565,3.0512,3.2601,3.4894,3.7851,3.9631,4.1857,4.5151,4.5821,4.6549,4.7823,4.679,4.5426,4.388,4.1485,4.002,3.979,3.7842,3.6886,3.7076,3.5564,3.4349,3.3509,3.2489,3.2432,3.3259,3.3308,3.4409,3.6483,3.945,4.2268,4.5023,4.8843,5.0888,5.1638,5.2533,5.4816,5.7566,5.6777,5.7493,5.8947,5.9189,5.9392,5.9488,5.9156,5.8802,5.8608,5.9447,5.9364,5.918,6.0114,6.0675,6.0876,6.0243,6.1774,6.2205,5.6894,5.6022,5.529,5.0834,5.0935,5.1798,5.1143,5.2918,5.422,5.3033,5.1978,0.0,0.0,0.0,0.0,0.0,4.699,4.7346,4.9136,5.2742,5.5335,5.5961,6.011,6.2309,6.1261,6.3539,6.5507,6.6804,6.7799,6.9455,7.1918,7.225,7.2945,7.4196,7.4461,7.4925,7.5675,7.7073,7.7768,7.7802,7.9047,7.8935,7.776,7.7651,7.7366,7.6924,7.6825,7.6783,7.6783,7.6783,7.7074,7.756,7.8273,7.8838,7.9421,2.8473,2.7932,2.7261,2.6769,2.7754,2.953,3.2202,3.4885,3.7662,4.0646,4.2843,4.5419,4.8701,4.9643,5.0177,5.0542,5.0254,4.8762,4.565,4.4435,4.3266,4.1997,4.0459,3.9698,3.9833,3.7929,3.6503,3.5658,3.4611,3.4557,3.5425,3.5077,3.6081,3.8224,4.0456,4.3068,4.6074,5.0241,5.2031,5.2229,5.3724,5.5666,5.7645,5.7474,5.771,5.8234,5.8767,5.9052,5.9405,6.069,6.0757,6.0602,6.2548,6.2561,6.2072,6.3242,6.3709,6.3725,6.2966,6.4421,6.4926,5.9975,5.9203,5.8413,5.3693,5.3748,5.4473,5.3549,5.4553,5.576,5.6174,5.4161,0.0,0.0,0.0,0.0,0.0,4.5746,4.6003,4.724,5.0129,5.2552,5.3971,5.7755,5.9992,5.9742,6.1948,6.3935,6.5271,6.654,6.8428,7.1123,7.172,7.2581,7.3786,7.4064,7.4428,7.4925,7.6105,7.6907,7.7437,7.8384,7.8494,7.7897,7.7692,7.7389,7.7078,7.6868,7.6783,7.6783,7.6783,7.7074,7.756,7.8532,7.9212,7.978,3.0252,2.9579,2.9208,2.9966,3.1039,3.249,3.4509,3.7008,3.9537,4.1962,4.4965,4.7787,5.0205,5.2006,5.3436,5.4333,5.3562,5.1405,4.758,4.7284,4.5905,4.2899,4.3057,4.3064,4.2759,4.0773,3.9012,3.7529,3.7204,3.7405,3.8099,3.7038,3.7764,4.0026,4.1204,4.3411,4.646,5.071,5.3516,5.5199,5.642,5.7305,5.7841,5.7529,5.7439,5.757,5.8831,5.9314,5.9744,6.211,6.3354,6.4075,6.5252,6.6286,6.7063,6.7112,6.79,6.8305,6.6347,6.6321,6.6081,6.2801,6.1891,6.0939,5.7505,5.8183,5.9253,5.8147,5.7666,5.8433,6.1681,5.7906,5.4271,0.0,0.0,0.0,4.4516,4.4498,4.5136,4.5872,4.7602,5.0692,5.5716,5.4789,5.5507,5.9424,5.9584,6.062,6.3218,6.5215,6.7356,6.9732,7.1223,7.2349,7.3032,7.3819,7.4163,7.4163,7.4925,7.6039,7.7338,7.7371,7.7788,7.8417,7.7842,7.7582,7.7513,7.7022,7.6783,7.6783,7.6783,7.6848,7.7074,7.8417,7.978,8.0995,3.0856,3.1808,3.2694,3.2907,3.228,3.2545,3.4955,3.7701,4.1138,4.5702,4.886,5.2024,5.5519,5.6295,5.6512,5.6325,5.5357,5.3964,5.2088,5.0429,4.9041,4.8098,4.7527,4.6925,4.6303,4.3932,4.2548,4.2181,3.9197,3.8443,3.9768,3.8942,3.8854,3.9491,4.1642,4.3806,4.6142,4.9795,5.3312,5.6462,5.7044,5.7878,5.871,5.8262,5.909,6.0539,6.0487,6.1057,6.2183,6.4145,6.4926,6.5333,6.6925,6.7615,6.7962,6.8812,6.9298,6.9408,6.8867,6.8849,6.8477,6.6256,6.4634,6.2919,6.0495,6.0835,6.1305,5.9878,6.0996,6.1578,5.9401,5.7389,5.5143,5.2417,4.9618,4.6941,4.4486,4.4104,4.4744,4.6514,4.798,4.8988,4.931,5.2786,5.4832,5.4491,5.6584,5.9718,6.3902,6.3316,6.4995,6.9654,7.1223,7.2084,7.227,7.3567,7.3918,7.3409,7.4681,7.5741,7.6609,7.7139,7.7575,7.7815,7.7678,7.7361,7.6994,7.6853,7.6783,7.6783,7.6783,7.7431,7.8402,7.8773,7.978,8.0995,3.2053,3.3785,3.5323,3.5323,3.5611,3.643,3.8097,3.9628,4.2303,4.7172,5.0391,5.319,5.5736,5.7575,5.8637,5.8739,5.7703,5.6526,5.5279,5.4247,5.3047,5.1631,5.1377,5.0801,4.9766,4.7279,4.5637,4.4942,4.149,4.0202,4.0946,3.9678,3.9019,3.902,4.1622,4.3699,4.5567,5.0583,5.4403,5.713,5.7876,5.8869,0.0,6.0164,6.155,6.3385,6.3562,6.3614,6.3847,6.593,6.6653,6.6899,6.8391,6.8843,6.8965,6.961,6.981,6.981,6.981,7.0042,7.0043,6.9026,6.8178,6.6927,6.4356,6.4193,6.423,6.3016,6.3084,6.3197,6.2676,5.9109,5.476,5.0123,4.7788,4.5993,4.4423,4.4209,4.4685,4.5888,4.723,4.7491,4.608,5.2311,5.5252,5.2334,5.6031,5.8853,5.9762,6.1789,6.4256,6.7217,7.0974,7.2647,7.2018,7.4084,7.4449,7.3132,7.4581,7.5641,7.6311,7.7073,7.7562,7.7801,7.7665,7.738,7.6966,7.6839,7.6783,7.6783,7.6783,7.7657,7.8902,7.8902,7.978,8.0995,3.3581,3.5657,3.7351,3.7237,3.966,4.1958,4.2971,4.2934,4.4156,4.8052,5.1276,5.3607,5.4582,5.7725,6.0208,6.1217,6.0206,5.8912,5.7521,5.7807,5.6828,5.4168,5.47,5.442,5.3009,5.0505,4.8347,4.6636,4.3619,4.1903,4.1403,3.9744,3.8828,3.8727,4.1348,4.3464,4.5395,5.194,5.5616,5.7188,5.871,6.0048,6.1312,6.2655,6.4276,6.5976,6.6945,6.6299,6.5298,6.7569,6.8329,6.849,6.949,6.981,6.981,6.981,6.981,6.981,6.981,7.0262,7.0759,7.0759,7.1223,7.0983,6.8193,6.7541,6.7379,6.6716,6.4904,6.4441,6.7655,6.1551,5.4183,4.8513,4.7073,4.6372,4.557,4.5551,4.5618,4.5633,4.7004,0.0,4.5064,5.215,5.5291,5.1455,5.5735,5.7341,5.4642,6.0264,6.3846,6.4407,7.0395,7.3156,7.2138,7.4622,7.5019,7.3396,7.4681,7.5641,7.6311,7.7073,7.7629,7.8025,7.7733,7.7417,7.7116,7.6896,7.6783,7.6783,7.6783,7.7593,7.8758,7.8856,7.973,8.0866,3.5116,3.7508,3.9292,3.8459,4.1331,4.4967,4.8611,4.9026,4.9808,5.2249,5.5509,5.829,6.0153,6.0972,6.1793,6.274,6.1824,6.0598,5.9251,5.8416,5.7526,5.646,5.7093,5.6882,5.5575,5.2806,5.0377,4.835,4.4375,4.1609,4.0043,3.9875,3.9547,3.924,4.1279,4.4196,4.7804,5.1597,5.4198,5.6051,5.8782,6.095,6.2731,6.4375,6.6122,6.7661,6.7883,6.7736,6.7664,6.9029,6.9502,6.9538,6.9751,6.981,6.981,6.981,6.981,6.981,6.981,6.9898,7.0009,7.0009,7.0108,7.0027,6.9463,6.9328,6.9307,6.9175,6.8813,6.7961,6.6149,6.1498,5.6364,5.1565,5.1359,5.1887,5.2076,5.0813,4.9876,4.9988,5.1756,5.0892,4.5718,4.9334,5.1166,4.9113,5.031,5.3059,5.7377,5.7955,6.0605,6.5904,6.8999,7.1322,7.29,7.3396,7.4072,7.4925,7.519,7.5641,7.6311,7.7073,7.7522,7.7692,7.7637,7.7325,7.6868,7.6811,7.6783,7.6783,7.6783,7.7301,7.8078,7.8661,7.9453,8.0263,3.81,3.9667,4.1437,4.3168,4.5733,4.9044,5.3443,5.5343,5.6062,5.5572,5.7499,5.929,6.0305,6.1982,6.3549,6.4804,6.383,6.2919,6.2425,6.1313,6.0215,5.9211,5.9502,5.9123,5.7851,5.5125,5.2379,4.9675,4.5339,4.2221,4.0236,3.9362,3.8845,3.8754,4.1752,4.5663,5.0174,5.264,5.5265,5.7989,6.0449,6.293,6.5258,6.6421,6.7725,6.8965,6.8965,6.8965,6.9083,6.961,6.981,6.981,6.981,6.981,6.981,6.981,7.0075,7.0361,7.0361,7.0924,7.1421,7.1024,7.1533,7.1765,7.0638,7.0659,7.0726,6.9976,6.981,6.8726,6.5218,6.1035,5.7382,5.5107,5.3547,5.2971,5.3967,5.321,5.23,5.1606,5.1904,5.0755,4.7153,4.7913,4.8981,4.9881,5.0966,5.3549,5.8061,5.7277,5.9161,6.4528,6.8746,7.1455,7.2502,7.3993,7.4734,7.4726,7.5476,7.5993,7.6344,7.747,7.7858,7.761,7.761,7.7311,7.6783,7.6783,7.6783,7.6783,7.6783,7.7431,7.8402,7.8758,7.9568,8.0572,4.1504,4.2498,4.4302,4.8173,5.0477,5.317,5.7313,6.0392,6.1381,5.89,5.9524,6.0308,6.0634,6.3062,6.5196,6.6465,6.5663,6.4999,6.4816,6.3719,6.2645,6.1658,6.1338,6.0729,5.9742,5.7158,5.4073,5.0532,4.6691,4.3336,4.0432,3.9367,3.9014,3.9423,4.3218,4.7375,5.1701,5.3945,5.691,6.0321,6.2594,6.5084,6.7464,6.8184,6.9034,6.981,6.981,6.981,6.981,6.981,6.981,6.981,6.981,6.981,6.981,6.981,7.0196,7.0693,7.0858,7.1753,7.2535,7.2117,7.2759,7.3024,7.1289,7.1223,7.1189,7.0042,6.981,6.8645,6.4937,6.2044,5.9811,5.8562,5.6458,5.5323,5.6451,5.6152,5.5372,5.404,5.2699,5.1233,4.9486,4.832,4.8984,5.2094,5.3134,5.4635,5.698,5.7367,5.9064,6.2547,6.771,7.079,7.1594,7.411,7.5231,7.4892,7.586,7.6377,7.6576,7.7834,7.8134,7.7596,7.7541,7.7241,7.6783,7.6783,7.6783,7.6783,7.6783,7.756,7.8708,7.8838,7.9698,8.0816,4.4741,4.6634,4.872,5.1194,5.3874,5.6677,5.9561,6.2515,6.4006,6.2895,6.3315,6.426,6.5649,6.6104,6.6432,6.683,6.676,6.5953,6.421,6.3486,6.3067,6.2935,6.1803,6.1135,6.1019,5.8464,5.4988,5.0594,4.8774,4.4938,3.9313,4.1019,4.235,4.348,4.6451,4.9034,5.1296,5.4692,5.799,6.1169,6.4547,6.6746,6.8122,6.9228,6.9727,6.981,6.981,6.981,6.981,6.981,6.981,6.981,6.981,6.981,6.981,6.981,6.9843,7.003,7.0726,7.0991,7.1256,7.1852,7.1587,7.1156,7.0958,7.044,6.9964,6.9843,6.981,6.883,6.5662,6.6522,6.622,6.1701,6.262,6.3885,6.3834,6.2504,6.1269,6.0514,5.8454,5.6027,5.3266,5.1909,5.2366,5.5166,5.4111,5.3392,5.3574,5.7915,6.0769,6.1526,6.397,6.6914,7.0241,7.1707,7.3993,7.7106,7.6543,7.6642,7.7325,7.7892,7.7924,7.7596,7.7352,7.7078,7.6783,7.6783,7.6783,7.6783,7.6783,7.7236,7.7967,7.8661,7.9421,8.0166,4.9579,5.0434,5.2159,5.5668,5.7316,5.9573,6.3655,6.5616,6.6627,6.6598,6.6823,6.719,6.7805,6.7558,6.7537,6.7994,6.7347,6.6389,6.5225,6.459,6.3734,6.2558,6.2006,6.1571,6.1222,5.9422,5.6637,5.2813,5.0918,4.7689,4.331,4.3254,4.42,4.6115,4.8338,5.1367,5.496,5.7458,6.0669,6.4282,6.6042,6.7716,6.918,6.9622,6.981,6.981,6.981,6.9905,7.0011,6.9858,6.981,6.981,6.981,6.981,6.9898,7.0328,7.0759,7.1289,7.2018,7.2548,7.2726,7.215,7.2117,7.1885,7.0527,7.0361,7.0328,6.9898,6.981,6.9405,6.817,6.6945,6.6169,6.6364,6.5423,6.5025,6.6019,6.5231,6.3959,6.2382,5.9618,5.7265,5.5704,5.3532,5.2792,5.4131,5.215,5.215,5.4994,5.6869,5.8975,6.1445,6.4698,6.7952,7.1216,7.2634,7.4283,7.6138,7.6722,7.7106,7.7424,7.7898,7.7834,7.7352,7.7092,7.6896,7.6783,7.6783,7.6783,7.6783,7.6783,7.7495,7.8499,7.8791,7.9633,8.0622,5.3546,5.4027,5.5591,5.9586,6.0732,6.242,6.63,6.748,6.8102,6.8724,6.8794,6.8794,6.8794,6.8421,6.8247,6.8492,6.7522,6.6622,6.5951,6.5154,6.4183,6.2993,6.2399,6.1977,6.1745,6.0322,5.8133,5.5182,5.3519,5.0747,4.6988,4.5968,4.6746,4.9115,5.0923,5.4208,5.8502,6.0291,6.3268,6.6819,6.7586,6.8659,6.981,6.981,6.981,6.981,6.981,6.9917,7.0047,6.9869,6.981,6.981,6.981,6.9943,7.0241,7.0759,7.1421,7.215,7.29,7.3475,7.3687,7.2846,7.2879,7.2701,7.1123,7.0825,7.0693,6.9931,6.981,6.981,6.981,6.7698,6.6723,6.8929,6.745,6.6319,6.7271,6.6586,6.521,6.3183,5.9803,5.7549,5.7482,5.51,5.3797,5.4301,5.3006,5.3526,5.6585,5.7634,5.9213,6.1479,6.4912,6.8032,7.0766,7.3073,7.466,7.5608,7.6609,7.7265,7.7603,7.7768,7.756,7.706,7.6868,7.6912,7.7107,7.7107,7.7236,7.7431,7.7431,7.8157,7.9226,7.9226,7.9989,8.0995,5.6059,5.7366,5.9182,6.2478,6.4109,6.5373,6.6696,6.748,6.8102,6.8724,6.8794,6.8794,6.8794,6.8794,6.855,6.7974,6.7277,6.6622,6.5951,6.4732,6.4313,6.4954,6.3109,6.2412,6.3051,6.1164,5.9248,5.7246,5.6703,5.3937,4.9147,4.9211,5.0519,5.2908,5.4726,5.7549,6.1077,6.2824,6.5307,6.8172,6.9313,6.9798,6.981,6.981,6.981,6.981,6.981,6.981,6.981,6.981,6.981,6.981,6.981,7.0295,7.0891,7.0891,7.1421,7.215,7.29,7.3098,7.3276,7.3997,7.362,7.3098,7.3065,7.1951,7.0693,6.9931,6.981,6.981,6.981,6.9765,6.9385,6.8304,6.9038,6.934,6.8234,6.6849,6.5259,6.3504,5.9524,5.7437,5.8747,5.7033,5.6187,5.7002,5.8258,5.8511,5.7449,6.1283,6.286,6.145,6.3497,6.5719,6.7926,7.211,7.4912,7.6278,7.6311,7.6941,7.806,7.7491,7.7046,7.6783,7.6783,7.7172,7.7773,7.7773,7.8208,7.887,7.887,7.9324,7.9986,7.9986,8.041,8.0995,6.0097,6.0977,6.1992,6.3449,6.5141,6.629,6.6228,6.7534,6.845,6.8218,6.855,6.8794,6.8794,6.845,6.8276,6.8492,6.7928,6.7306,6.6622,6.6215,6.5489,6.4371,6.3732,6.3094,6.2412,6.1803,6.045,5.8306,5.7935,5.6035,5.2809,5.2851,5.3744,5.5438,5.7642,6.0363,6.3525,6.5733,6.7663,6.9277,6.9634,6.981,6.981,6.981,6.981,6.981,6.981,6.9917,7.0035,6.9858,6.9917,7.0035,6.9858,7.0307,7.109,7.2105,7.2581,7.2912,7.3653,7.3852,7.3786,7.3508,7.3276,7.2966,7.2469,7.1587,7.0825,7.0593,7.0141,6.981,6.981,6.981,6.967,6.9313,6.9562,6.9492,6.8642,6.7255,6.5762,6.4227,6.2408,6.1244,6.1152,6.0823,5.9982,5.845,5.8667,5.7875,5.5493,6.0287,6.2888,6.2289,6.6101,6.8962,7.0696,7.351,7.5409,7.6311,7.7338,7.778,7.7747,7.738,7.7064,7.6783,7.6783,7.7172,7.7805,7.7805,7.7934,7.8143,7.8143,7.8596,7.9259,7.9259,7.9989,8.0995,6.2296,6.2993,6.3645,6.4284,6.5983,6.7115,6.6738,6.7882,6.8666,6.8276,6.8579,6.8794,6.8794,6.8463,6.8392,6.8782,6.8247,6.7712,6.7306,6.6796,6.5967,6.4761,6.4268,6.3582,6.2662,6.217,6.1164,5.9651,5.8629,5.7359,5.5924,5.5928,5.6859,5.8605,6.0562,6.307,6.5947,6.7456,6.8769,6.981,6.981,6.981,6.981,6.981,6.981,6.981,6.981,6.9905,7.0023,6.9858,7.0116,7.0477,7.0575,7.1123,7.1852,7.2502,7.3078,7.362,7.4064,7.4196,7.4097,7.362,7.3508,7.331,7.2581,7.2051,7.1653,7.1355,7.0726,7.0196,7.0196,7.0009,6.981,6.981,6.981,6.9545,6.8816,6.717,6.5466,6.3754,6.2682,6.1896,6.1426,6.2121,6.2224,6.1383,6.1305,6.0736,5.9418,6.1024,6.2759,6.4483,6.7958,7.0759,7.2825,7.4714,7.6026,7.6709,7.7707,7.7688,7.6829,7.6985,7.6966,7.6783,7.6783,7.7333,7.8208,7.8208,7.8517,7.9003,7.9003,7.9294,7.9698,7.9698,8.0233,8.0995,6.2921,6.3752,6.4468,6.5092,6.6778,6.8045,6.8065,6.8489,6.8799,6.882,6.8799,6.8794,6.8794,6.8794,6.8782,6.8753,6.8218,6.7857,6.777,6.6576,6.5864,6.5802,6.4613,6.3788,6.3414,6.2219,6.1387,6.1004,5.8947,5.8166,5.8548,5.8605,5.9888,6.2194,6.3479,6.554,6.8097,6.8192,6.883,6.981,6.981,6.981,6.981,6.9876,6.9831,6.981,6.9876,6.9876,6.9876,6.9876,7.0361,7.109,7.1786,7.2515,7.2966,7.2349,7.3123,7.4196,7.4196,7.4196,7.4196,7.4196,7.4196,7.403,7.3343,7.3132,7.29,7.2216,7.1521,7.1024,7.0924,7.0361,6.9931,6.981,6.9777,6.9446,6.865,6.6772,6.4679,6.2531,6.1198,6.0435,6.037,6.1713,6.3321,6.5059,6.5269,6.5865,6.7187,6.315,6.2931,6.762,6.9268,7.1434,7.4163,7.5628,7.6742,7.7457,7.7555,7.6908,7.5656,7.6465,7.6783,7.6783,7.6848,7.7593,7.8823,7.8935,7.973,8.0866,8.0866,8.0898,8.0931,8.0866,8.0931,8.0995,6.3652,6.5543,6.7097,6.727,6.8465,6.9453,6.9506,6.9093,6.8822,6.8862,6.8827,6.8794,6.8794,6.8794,6.8608,6.8131,6.7974,6.748,6.6431,6.6067,6.5576,6.4871,6.4047,6.3255,6.2434,6.1646,6.0817,6.0021,5.9767,6.0129,6.1055,6.1526,6.2776,6.4706,6.5869,6.7029,6.8179,6.9013,6.955,6.981,6.981,6.981,6.9876,7.0428,7.0295,6.9864,7.0428,7.0626,7.0626,7.0626,7.1123,7.1786,7.1951,7.2515,7.3177,7.3554,7.3931,7.4196,7.4196,7.4196,7.4196,7.4196,7.4196,7.4163,7.3997,7.3508,7.3032,7.2867,7.2701,7.225,7.1123,7.1223,7.1123,6.9964,6.9346,6.8518,6.7203,6.6574,6.5435,6.3276,6.4186,6.4734,6.4175,6.5469,6.5504,6.3496,6.3829,6.4012,6.3852,6.433,6.603,6.9166,7.1798,7.35,7.4196,7.6159,7.7504,7.8219,7.7818,7.7446,7.7091,7.6888,7.6783,7.6815,7.7333,7.774,7.8143,7.9291,7.9615,7.9406,7.9406,7.973,8.0166,7.96,8.0071,8.0995,6.5196,6.6537,6.7745,6.8308,6.949,7.0465,7.0813,7.0489,7.0126,6.9853,6.9249,6.8744,6.8406,6.799,6.7462,6.6814,6.7455,6.748,6.6418,6.5937,6.5456,6.4931,6.4136,6.3265,6.2285,6.1658,6.0874,5.9917,6.0625,6.1422,6.2333,6.3492,6.484,6.632,6.7209,6.8097,6.8916,6.9538,6.981,6.981,6.981,6.9997,7.0307,7.0361,7.0361,7.0295,7.0361,7.0593,7.0891,7.0891,7.162,7.2502,7.2502,7.3011,7.3687,7.4097,7.4196,7.4196,7.4196,7.4196,7.4196,7.4196,7.4196,7.4196,7.4196,7.3885,7.3587,7.3587,7.3343,7.2734,7.162,7.1455,7.1024,6.9545,6.8297,6.7267,6.6616,6.5824,6.5195,6.4818,6.6077,6.686,6.643,6.7733,6.7722,6.5596,6.6094,6.6487,6.6445,6.7873,6.9341,7.0747,7.3003,7.466,7.5641,7.7139,7.7934,7.7987,7.7719,7.7446,7.7137,7.6902,7.6783,7.6848,7.7514,7.7981,7.8402,7.9518,7.9939,7.9845,7.9845,8.0119,8.041,8.0021,8.033,8.0995,6.691,6.7377,6.7995,6.9283,7.0451,7.1473,7.2248,7.2024,7.1536,7.0959,6.97,6.8608,6.8031,6.7249,6.6425,6.556,6.695,6.7488,6.652,6.5663,6.5121,6.4986,6.4107,6.3155,6.2159,6.1648,6.1126,6.0593,6.1659,6.2622,6.3506,6.5126,6.6503,6.7604,6.8134,6.8891,6.981,6.9931,6.9964,6.9976,7.0108,7.0494,7.0991,7.0361,7.0461,7.0825,7.0328,7.0461,7.0924,7.1156,7.2051,7.3132,7.3243,7.3687,7.4196,7.4196,7.4196,7.4196,7.4196,7.4196,7.4196,7.4196,7.4196,7.4196,7.4196,7.4196,7.4196,7.4196,7.3786,7.3177,7.2316,7.1653,7.0611,6.876,6.7269,6.6238,6.598,6.5149,6.5033,6.6339,6.7456,6.8085,6.8085,6.9323,6.9864,6.9247,6.9777,7.0394,7.1024,7.1985,7.2515,7.2515,7.3819,7.5509,7.7537,7.8199,7.8172,7.7504,7.756,7.7301,7.669,7.679,7.6848,7.6977,7.769,7.8305,7.8967,7.9809,8.041,8.0848,8.0848,8.0898,8.0995,8.0898,8.0898,8.0995,6.7706,6.9184,7.0725,7.2113,7.2486,7.3027,7.4307,7.2553,7.1023,7.092,6.9496,6.8443,6.8325,6.8441,6.7806,6.5992,6.7037,6.6867,6.461,6.4283,6.3834,6.2985,6.2324,6.1508,6.0505,6.0437,6.1069,6.2406,6.3142,6.4545,6.6524,6.7324,6.8284,6.9385,6.9502,6.9622,6.9831,7.0461,7.0726,7.0792,7.1421,7.172,7.1819,7.1686,7.1355,7.0958,7.1488,7.1322,7.109,7.2337,7.29,7.321,7.3819,7.4097,7.4196,7.4196,7.4196,7.4196,7.4196,7.4196,7.4196,7.4196,7.4196,7.4196,7.4196,7.4196,7.4196,7.4196,7.4594,7.4548,7.3177,7.2833,7.1594,6.8006,6.7409,6.6446,6.3825,6.5517,6.691,6.6551,6.8793,7.0394,7.0394,7.1156,7.162,7.1488,7.1587,7.172,7.1819,7.372,7.4793,7.4793,7.5562,7.6742,7.8318,7.8418,7.831,7.7996,7.7741,7.7439,7.7092,7.6873,7.7107,7.7675,7.8402,7.8791,7.9,8.0298,8.0572,8.018,8.018,8.0507,8.0931,8.0345,8.0507,8.0995,6.8424,6.921,7.0123,7.1138,7.1612,7.2165,7.3229,7.2314,7.1283,7.0768,6.972,6.8643,6.7723,6.7625,6.6935,6.5293,6.5499,6.5196,6.4026,6.4115,6.403,6.3597,6.3093,6.245,6.1669,6.1617,6.2173,6.3356,6.4871,6.6351,6.7699,6.8589,6.9289,6.981,7.0208,7.0394,7.0428,7.1189,7.1488,7.1521,7.1852,7.225,7.2535,7.2138,7.2051,7.2084,7.2018,7.2051,7.2183,7.2867,7.3376,7.3753,7.4097,7.4461,7.4726,7.4329,7.4196,7.4296,7.4693,7.4494,7.4395,7.5144,7.476,7.4395,7.5178,7.5045,7.4892,7.5244,7.531,7.4958,7.3885,7.3045,7.1903,7.0088,6.7788,6.6354,6.6567,6.6727,6.7152,6.815,7.0196,7.1488,7.1488,7.215,7.2602,7.2602,7.2602,7.3111,7.4258,7.4946,7.584,7.6987,7.7305,7.7802,7.8484,7.8484,7.8363,7.8107,7.776,7.7444,7.7185,7.7299,7.7514,7.787,7.9,7.9485,7.9583,8.0589,8.0816,8.054,8.054,8.0719,8.0963,8.0654,8.0719,8.0995,6.9089,6.9027,6.9212,7.0228,7.0737,7.1261,7.1998,7.2059,7.1614,7.0541,6.9729,6.8721,6.7272,6.6975,6.6302,6.4974,6.4842,6.4645,6.4196,6.452,6.4647,6.4378,6.3792,6.3373,6.3198,6.3072,6.3623,6.481,6.6561,6.7788,6.8502,6.9571,7.0075,7.0108,7.0825,7.1156,7.1189,7.1951,7.225,7.2283,7.2448,7.2846,7.3276,7.2548,7.2602,7.3032,7.2481,7.2515,7.29,7.3243,7.372,7.4229,7.4395,7.4826,7.5223,7.4826,7.4681,7.4793,7.519,7.5124,7.5211,7.6291,7.5728,7.5244,7.6311,7.6026,7.5675,7.6179,7.5894,7.5343,7.4793,7.3488,7.2287,7.1515,6.8464,6.6856,6.869,6.7805,6.7856,7.0277,7.172,7.2647,7.2978,7.3496,7.3827,7.3827,7.3993,7.4821,7.6477,7.639,7.7053,7.8682,7.8583,7.8484,7.8484,7.8484,7.8323,7.7998,7.7719,7.7417,7.712,7.7595,7.7902,7.8143,7.9421,8.0083,8.0263,8.0784,8.0995,8.0995,8.0995,8.0995,8.0995,8.0995,8.0995,8.0995,6.9704,6.9335,6.952,7.149,7.1568,7.1612,7.2331,7.2201,7.154,7.0202,6.9196,6.8286,6.7532,6.7706,6.7345,6.6021,6.6955,6.6843,6.5038,6.5464,6.5261,6.4094,6.2889,6.2688,6.3724,6.3744,6.5052,6.7782,6.7946,6.8589,6.9691,7.0458,7.0825,7.0858,7.1587,7.1918,7.1985,7.2701,7.3032,7.3065,7.3753,7.4064,7.403,7.331,7.3032,7.3098,7.3032,7.2602,7.2283,7.3666,7.4163,7.4329,7.4991,7.5257,7.5409,7.5993,7.6146,7.6026,7.5443,7.6192,7.7172,7.7305,7.7239,7.7172,7.7305,7.6742,7.6245,7.6278,7.6245,7.6212,7.6159,7.4979,7.3059,7.0089,6.9505,6.8735,6.6642,6.8191,7.0355,7.2602,7.3554,7.4548,7.5847,7.6013,7.6046,7.6046,7.6709,7.7139,7.7305,7.8563,7.9345,7.951,7.8848,7.8484,7.8484,7.8484,7.8215,7.7637,7.7623,7.7338,7.6844,7.7495,7.8175,7.8856,7.9662,8.036,8.0931,8.0963,8.0995,8.0995,8.0995,8.0995,8.0995,8.0995,8.0995,8.0995,6.8946,6.8763,6.8795,6.9411,6.9397,6.9397,6.9687,6.9595,6.926,6.8546,6.8468,6.8164,6.7288,6.766,6.7454,6.6131,6.6436,6.6414,6.5662,6.6545,6.6651,6.571,6.5246,6.5331,6.6008,6.6762,6.7468,6.8084,6.9276,7.0053,7.0494,7.1223,7.1587,7.162,7.2349,7.2668,7.2746,7.3488,7.3786,7.3852,7.4594,7.4594,7.4229,7.4382,7.4184,7.3786,7.3786,7.3587,7.3455,7.3997,7.4494,7.4925,7.5223,7.5906,7.6655,7.6907,7.6974,7.694,7.6689,7.6642,7.694,7.7868,7.7404,7.6974,7.7868,7.7504,7.7106,7.757,7.7305,7.6974,7.6974,7.5476,7.4082,7.3758,7.1895,7.077,7.1659,7.1841,7.2515,7.425,7.5078,7.5695,7.6245,7.6709,7.7172,7.7636,7.7934,7.8464,7.9405,7.9557,7.961,7.961,7.8881,7.8484,7.8484,7.8336,7.8019,7.761,7.7417,7.7371,7.7449,7.8175,7.8888,7.9615,8.0313,8.0751,8.0995,8.0995,8.0995,8.0995,8.0995,8.0995,8.0995,8.0995,8.0995,8.0995,6.8328,6.8283,6.8209,6.8045,6.8107,6.8153,6.8153,6.8243,6.8152,6.7712,6.8057,6.8149,6.7608,6.8001,6.8031,6.7487,6.7457,6.7457,6.7457,6.8022,6.8154,6.7618,6.7645,6.7884,6.8312,6.9124,6.9473,6.9311,7.0617,7.1256,7.1256,7.2018,7.2349,7.2382,7.3111,7.3442,7.3475,7.3997,7.4329,7.4561,7.4826,7.4793,7.4561,7.4859,7.4627,7.4196,7.4196,7.4329,7.4561,7.4561,7.519,7.5973,7.5973,7.6788,7.7768,7.7768,7.7768,7.7768,7.7768,7.7371,7.7305,7.8517,7.8086,7.7603,7.8616,7.8252,7.7901,7.8398,7.81,7.7768,7.7768,7.6357,7.5443,7.6179,7.4038,7.3057,7.531,7.4734,7.4668,7.6138,7.692,7.7338,7.7338,7.8,7.8643,7.916,7.9193,7.9537,8.0299,7.9888,7.9477,7.9245,7.8749,7.8484,7.8484,7.8323,7.8025,7.7596,7.7664,7.7715,7.7837,7.8791,7.9518,8.0051,8.0719,8.0995,8.0995,8.0995,8.0995,8.0995,8.0995,8.0995,8.0995,8.0995,8.0995,8.0995,6.8,6.8,6.8,6.8,6.8289,6.8498,6.8498,6.8805,6.8766,6.8108,6.8019,6.8211,6.8756,6.881,6.9305,7.0501,7.0599,7.0599,7.0613,6.9995,6.9643,6.9643,6.9611,6.9825,7.0312,7.0306,7.0883,7.2018,7.2018,7.2018,7.2005,7.2767,7.3098,7.3132,7.3852,7.4196,7.4196,7.4209,7.4627,7.5257,7.4494,7.466,7.5223,7.4494,7.4209,7.4196,7.4209,7.466,7.529,7.5323,7.6225,7.7404,7.7404,7.7888,7.8484,7.8484,7.8484,7.8484,7.8484,7.8484,7.8682,7.9411,7.9577,7.9577,7.9577,7.9014,7.8484,7.8484,7.8484,7.8484,7.8484,7.7901,7.7172,7.6444,7.5728,7.5542,7.6212,7.6311,7.6874,7.8318,7.9146,7.961,7.961,8.0266,8.0711,8.0711,8.0711,8.0366,7.9643,7.9577,7.9245,7.8517,7.8484,7.8484,7.8484,7.8484,7.8201,7.761,7.8363,7.8401,7.787,7.9324,7.9986,8.0051,8.0719,8.0995,8.0995,8.0995,8.0995,8.0995,8.0995,8.0995,8.0995,8.0995,8.0995,8.0995,6.7699,6.7653,6.7578,6.735,6.8076,6.8705,6.8705,6.9509,7.0052,6.9849,6.9818,6.99,7.0053,7.0064,7.0205,7.0571,7.0599,7.0961,7.1828,7.1689,7.1935,7.2769,7.1575,7.1051,7.1469,7.1988,7.2171,7.2018,7.2502,7.2767,7.28,7.3521,7.3852,7.3885,7.4097,7.4196,7.4229,7.476,7.5091,7.5323,7.5562,7.5509,7.529,7.5058,7.466,7.4262,7.4793,7.5124,7.5389,7.5827,7.6609,7.7504,7.8,7.8318,7.8484,7.8484,7.8484,7.8484,7.8484,7.8484,7.855,7.8749,7.8815,7.8815,7.8815,7.8649,7.8484,7.8484,7.8484,7.8484,7.8484,7.7901,7.7504,7.7802,7.7239,7.7205,7.8418,7.863,7.8961,7.9935,8.0233,8.0366,8.0366,8.0578,8.0711,8.0711,8.0233,7.9808,7.961,7.9113,7.8729,7.853,7.8484,7.8484,7.8484,7.8093,7.8037,7.8363,7.8158,7.8524,7.9356,7.9792,8.0263,8.0719,8.0898,8.0995,8.0995,8.0995,8.0995,8.0995,8.0995,8.0995,8.0995,8.0995,8.0995,8.0995,6.6899,6.6914,6.6989,6.7275,6.8127,6.8956,6.9435,7.0135,7.0599,7.0599,7.0599,7.0781,7.1251,7.1306,7.1497,7.199,7.2031,7.2325,7.3057,7.3096,7.3441,7.4171,7.3091,7.2613,7.2879,7.3322,7.3322,7.2858,7.3322,7.3541,7.3541,7.3997,7.4196,7.4196,7.4196,7.4196,7.4229,7.466,7.519,7.5708,7.584,7.5993,7.6105,7.5807,7.5409,7.5078,7.5542,7.5873,7.6192,7.6609,7.7239,7.7954,7.8682,7.8716,7.855,7.8848,7.8716,7.8484,7.8484,7.8484,7.8484,7.8484,7.8484,7.8484,7.8484,7.8484,7.8484,7.8484,7.8484,7.8484,7.8484,7.8133,7.8,7.8431,7.8133,7.8265,7.9444,7.9855,8.0186,8.0644,8.1208,8.1473,8.1174,8.1141,8.0909,8.0299,7.9855,7.9477,7.9179,7.8749,7.8484,7.8484,7.8484,7.8484,7.8484,7.8316,7.8389,7.8691,7.8804,7.9231,8.0018,8.0263,8.0637,8.0995,8.0995,8.0995,8.0995,8.0995,8.0995,8.0995,8.0995,8.0995,8.0995,8.0995,8.0995,8.0995,6.5937,6.6117,6.6536,6.7752,6.8594,6.9492,7.0599,7.085,7.092,7.092,7.092,7.1333,7.2432,7.2551,7.3005,7.4108,7.4196,7.4196,7.4196,7.4196,7.4196,7.4196,7.4196,7.4196,7.4196,7.4196,7.4196,7.4196,7.4196,7.4196,7.4196,7.4196,7.4196,7.4196,7.4196,7.4196,7.4196,7.4262,7.5078,7.6258,7.5641,7.6205,7.7338,7.6576,7.6311,7.6311,7.6377,7.6841,7.7404,7.747,7.7921,7.863,7.9279,7.9047,7.8616,7.9312,7.9014,7.8484,7.8484,7.8484,7.8484,7.8484,7.8484,7.8484,7.8484,7.8484,7.8484,7.8484,7.8484,7.8484,7.8484,7.8484,7.8517,7.8583,7.8663,7.8947,7.9676,8.0366,8.081,8.081,8.1937,8.2453,8.1771,8.1624,8.1061,7.9709,7.9543,7.9212,7.853,7.8484,7.8484,7.8484,7.8484,7.8517,7.8583,7.9053,7.9127,7.8822,7.9902,8.0282,8.0101,8.0719,8.0995,8.0995,8.0995,8.0995,8.0995,8.0995,8.0995,8.0995,8.0995,8.0995,8.0995,8.0995,8.0995,8.0995,6.6348,6.7008,6.7781,6.8945,7.0512,7.1701,7.1977,7.2821,7.3428,7.3428,7.3428,7.3505,7.3782,7.3807,7.3909,7.4184,7.4196,7.4196,7.4196,7.4196,7.4196,7.4196,7.4196,7.4196,7.4196,7.4196,7.4196,7.4196,7.4196,7.4196,7.4196,7.4196,7.4196,7.4196,7.4196,7.4196,7.4229,7.4826,7.5542,7.6278,7.6159,7.6609,7.7338,7.6576,7.6311,7.6377,7.694,7.7272,7.7504,7.8067,7.8351,7.8517,7.8682,7.8616,7.8517,7.8682,7.8616,7.8484,7.8484,7.8484,7.8484,7.8484,7.8484,7.8484,7.8484,7.8484,7.8484,7.8484,7.8484,7.8484,7.8484,7.8484,7.8682,7.9279,7.9869,8.0465,8.1227,8.1459,8.1558,8.1558,8.134,8.1108,8.0943,8.0418,7.9941,7.961,7.9047,7.8682,7.8517,7.8484,7.8484,7.8484,7.8484,7.8782,7.9345,7.9766,7.9837,7.958,8.013,8.0542,8.0784,8.0931,8.0995,8.0995,8.0995,8.0995,8.0995,8.0995,8.0995,8.0995,8.0995,8.0995,8.0995,8.0995,8.0995,8.0995,6.6741,6.7333,6.797,6.9138,7.0463,7.1785,7.305,7.3795,7.4329,7.466,7.5012,7.5078,7.476,7.4726,7.4461,7.3753,7.3687,7.3521,7.3156,7.3488,7.3687,7.3687,7.403,7.403,7.3687,7.403,7.4196,7.4196,7.4196,7.4196,7.4196,7.3819,7.4051,7.4693,7.3985,7.425,7.5211,7.529,7.5906,7.6808,7.6808,7.7272,7.7888,7.7504,7.7338,7.7404,7.7802,7.7934,7.8,7.8351,7.8484,7.8484,7.8484,7.8484,7.8484,7.8484,7.8484,7.8484,7.8484,7.8484,7.8484,7.8484,7.8484,7.8484,7.8484,7.8484,7.8484,7.8484,7.8484,7.8484,7.8484,7.8484,7.8749,7.9477,7.9921,8.0319,8.0683,8.1061,8.1128,8.0782,8.073,8.0578,8.02,7.9822,7.9444,7.9113,7.8716,7.8484,7.8484,7.8484,7.8649,7.9014,7.8682,7.9027,8.012,8.0347,8.0441,8.0527,8.0963,8.1181,8.1248,8.1248,8.1159,8.0995,8.0995,8.0995,8.0995,8.0995,8.0995,8.0995,8.0995,8.0995,8.0995,8.0995,8.0995,8.0995,6.7181,6.7615,6.8093,6.9274,7.0167,7.1451,7.366,7.413,7.4461,7.519,7.5662,7.5761,7.5356,7.5091,7.4382,7.3032,7.29,7.2635,7.2039,7.2701,7.3032,7.29,7.372,7.3931,7.331,7.4018,7.4329,7.4196,7.4196,7.4196,7.4196,7.3575,7.3873,7.4879,7.3906,7.4469,7.6092,7.5675,7.6225,7.7404,7.7404,7.7768,7.8332,7.8451,7.8418,7.8332,7.8451,7.8583,7.8682,7.8682,7.8682,7.8682,7.8682,7.8583,7.8484,7.8484,7.8484,7.8484,7.8484,7.8484,7.8484,7.8484,7.8484,7.8484,7.8484,7.8484,7.8484,7.8484,7.8484,7.853,7.8649,7.8682,7.8914,7.9676,7.9789,7.9789,7.9789,8.02,8.0299,7.9676,8.0034,8.0101,7.9477,7.9411,7.9146,7.855,7.8484,7.8484,7.8484,7.8484,7.8782,7.9378,7.8815,7.9193,8.0678,8.0711,8.097,8.1576,8.196,8.1952,8.1569,8.1511,8.1366,8.1085,8.1025,8.0995,8.0995,8.0995,8.0995,8.0995,8.0995,8.0995,8.0995,8.0995,8.0995,8.0995,6.7772,6.8516,6.9312,7.0481,7.1808,7.2837,7.3185,7.3786,7.4461,7.519,7.4826,7.4693,7.5257,7.4171,7.3078,7.2216,7.215,7.2117,7.2018,7.2701,7.28,7.2183,7.3455,7.413,7.4064,7.476,7.4826,7.4196,7.4196,7.4196,7.4196,7.4097,7.3819,7.3442,7.4515,7.5157,7.5476,7.596,7.6642,7.7404,7.7404,7.747,7.7636,7.8252,7.8086,7.7636,7.8265,7.8914,7.9444,7.9444,7.9444,7.9444,7.9444,7.9014,7.8484,7.8484,7.8484,7.8484,7.8484,7.8484,7.8484,7.8484,7.8484,7.8484,7.8484,7.8484,7.8484,7.8484,7.8484,7.8682,7.9345,7.9444,7.9689,8.0432,8.0531,8.0531,8.0531,8.0087,7.9709,7.961,7.9126,7.8762,7.8649,7.8663,7.8616,7.853,7.8484,7.8484,7.8484,7.8484,7.855,7.8663,7.855,7.9193,8.0678,8.0711,8.1379,8.2694,8.2751,8.2471,8.1923,8.1646,8.1499,8.144,8.1129,8.0995,8.0995,8.0995,8.0995,8.0995,8.0995,8.0995,8.0995,8.0995,8.0995,8.0995,6.883,6.9628,7.0301,7.0819,7.1786,7.2746,7.3587,7.3997,7.4461,7.519,7.5343,7.5343,7.5323,7.4349,7.309,7.1521,7.1753,7.2018,7.2018,7.309,7.3753,7.3852,7.4461,7.4826,7.4826,7.5124,7.5157,7.4826,7.4826,7.4826,7.4793,7.3985,7.427,7.5483,7.4912,7.5575,7.7086,7.694,7.7338,7.8,7.757,7.7669,7.8,7.7934,7.7934,7.81,7.8848,7.959,8.0153,7.9742,7.961,7.9543,7.9113,7.8749,7.8484,7.8484,7.8484,7.8484,7.8484,7.8484,7.8484,7.8484,7.8484,7.8484,7.8484,7.8484,7.8484,7.8484,7.8815,7.9212,7.9543,7.9954,8.0332,8.0644,8.0711,8.0711,8.0711,8.0054,7.9444,7.9014,7.8682,7.8484,7.8484,7.8484,7.8484,7.8484,7.8484,7.8484,7.8484,7.8484,7.8682,7.9113,7.8716,7.9391,8.1307,8.0909,8.144,8.2883,8.2883,8.2656,8.2227,8.2064,8.1818,8.1481,8.1352,8.1174,8.0995,8.0995,8.0995,8.0995,8.0995,8.0995,8.0995,8.0995,8.0995,8.0995]}]]